[[{"header":{"parameterUnit":"m.s-1","parameterCategory":1,"la1":31.0,"la2":29.5877,"lo1":-88.7671,"lo2":-86.6584,"dy":0.0162,"dx":0.0185,"nx":115,"ny":88,"refTime":"2023-05-07T06:00:00:Z","depth":0,"parameterNumber":2,"parameterNumberName":"U-component_of_WINDS"},"data":[0.0,0.0,0.0,0.0,0.0,0.0,0.0,0.0,0.0,0.0,0.0,0.0,0.0,0.0,0.0,0.0,0.0,0.0,0.0,0.0,0.0,0.0,0.0,0.0,0.0,0.0,0.0,0.0,0.0,0.0,0.0,0.0,0.0,0.0,0.0,0.0,0.0,0.0,0.0,0.0,0.0,0.0,0.0,0.0,0.0,0.0,0.0,0.0,0.0,0.0,0.0,0.0,0.0,0.0,0.0,0.0,0.0,0.0,0.0,0.0,0.0,0.0,0.0,0.0,0.0,0.0,0.0,0.0,0.0,0.0,0.0,0.0,0.0,0.0,0.0,0.0,0.0,0.0,0.0,0.0,0.0,0.0,0.0,0.0,0.0,0.0,0.0,0.0,0.0,0.0,0.0,0.0,0.0,0.0,0.0,0.0,0.0,0.0,0.0,0.0,0.0,0.0,0.0,0.0,0.0,0.0,0.0,0.0,0.0,0.0,0.0,0.0,0.0,0.0,0.0,0.0,0.0,0.0,0.0,0.0,0.0,0.0,0.0,0.0,0.0,0.0,0.0,0.0,0.0,0.0,0.0,0.0,0.0,0.0,0.0,0.0,0.0,0.0,0.0,0.0,0.0,0.0,0.0,0.0,0.0,0.0,0.0,0.0,0.0,0.0,0.0,0.0,0.0,0.0,0.0,0.0,0.0,0.0,0.0,0.0,0.0,0.0,0.0,0.0,0.0,0.0,0.0,0.0,0.0,0.0,0.0,0.0,0.0,0.0,0.0,0.0,0.0,0.0,0.0,0.0,0.0,0.0,0.0,0.0,0.0,0.0,0.0,0.0,0.0,0.0,0.0,0.0,0.0,0.0,0.0,0.0,0.0,0.0,0.0,0.0,0.0,0.0,0.0,0.0,0.0,0.0,0.0,0.0,0.0,0.0,0.0,0.0,0.0,0.0,0.0,0.0,0.0,0.0,0.0,0.0,0.0,0.0,0.0,0.0,0.0,0.0,0.0,0.0,0.0,0.0,0.0,0.0,0.0,0.0,0.0,0.0,0.0,0.0,0.0,0.0,0.0,0.0,0.0,0.0,0.0,0.0,0.0,0.0,0.0,0.0,0.0,0.0,0.0,0.0,0.0,0.0,0.0,0.0,0.0,0.0,0.0,0.0,0.0,0.0,0.0,0.0,0.0,0.0,0.0,0.0,0.0,0.0,0.0,0.0,0.0,0.0,0.0,0.0,0.0,0.0,0.0,0.0,0.0,0.0,0.0,0.0,0.0,0.0,0.0,0.0,0.0,0.0,0.0,0.0,0.0,0.0,0.0,0.0,0.0,0.0,0.0,0.0,0.0,0.0,0.0,0.0,0.0,0.0,0.0,0.0,0.0,0.0,0.0,0.0,0.0,0.0,0.0,0.0,0.0,0.0,0.0,0.0,0.0,0.0,0.0,0.0,0.0,0.0,0.0,0.0,0.0,0.0,0.0,0.0,0.0,0.0,0.0,0.0,0.0,0.0,0.0,0.0,0.0,0.0,0.0,0.0,0.0,0.0,0.0,0.0,0.0,0.0,0.0,0.0,0.0,0.0,0.0,0.0,0.0,0.0,0.0,0.0,0.0,0.0,0.0,0.0,0.0,0.0,0.0,0.0,0.0,0.0,0.0,0.0,0.0,0.0,0.0,0.0,0.0,0.0,0.0,0.0,0.0,0.0,0.0,0.0,0.0,0.0,0.0,0.0,0.0,0.0,0.0,0.0,0.0,0.0,0.0,0.0,0.0,0.0,0.0,0.0,0.0,0.0,0.0,0.0,0.0,0.0,0.0,0.0,0.0,0.0,0.0,0.0,0.0,0.0,0.0,0.0,0.0,0.0,0.0,0.0,0.0,0.0,0.0,0.0,0.0,0.0,0.0,0.0,0.0,0.0,0.0,0.0,0.0,0.0,0.0,0.0,0.0,0.0,0.0,0.0,0.0,0.0,0.0,0.0,0.0,0.0,0.0,0.0,0.0,0.0,0.0,0.0,0.0,0.0,0.0,0.0,0.0,0.0,0.0,0.0,0.0,0.0,0.0,0.0,0.0,0.0,0.0,0.0,0.0,0.0,0.0,0.0,0.0,0.0,0.0,0.0,0.0,0.0,0.0,0.0,0.0,0.0,0.0,0.0,0.0,0.0,0.0,0.0,0.0,0.0,0.0,0.0,0.0,0.0,0.0,0.0,0.0,0.0,0.0,0.0,0.0,0.0,0.0,0.0,0.0,0.0,0.0,0.0,0.0,0.0,0.0,0.0,0.0,0.0,0.0,0.0,0.0,0.0,0.0,0.0,0.0,0.0,0.0,0.0,0.0,0.0,0.0,0.0,0.0,0.0,0.0,0.0,0.0,0.0,0.0,0.0,0.0,0.0,0.0,0.0,0.0,0.0,0.0,0.0,0.0,0.0,0.0,0.0,0.0,0.0,0.0,0.0,0.0,0.0,0.0,0.0,0.0,0.0,0.0,0.0,0.0,0.0,0.0,0.0,0.0,0.0,0.0,0.0,0.0,0.0,0.0,0.0,0.0,0.0,0.0,0.0,0.0,0.0,0.0,0.0,0.0,0.0,0.0,0.0,0.0,0.0,0.0,0.0,0.0,0.0,0.0,0.0,0.0,0.0,0.0,0.0,0.0,0.0,0.0,0.0,0.0,0.0,0.0,0.0,0.0,0.0,0.0,0.0,0.0,0.0,0.0,0.0,0.0,0.0,0.0,0.0,0.0,0.0,0.0,0.0,0.0,0.0,0.0,0.0,0.0,0.0,0.0,0.0,0.0,0.0,0.0,0.0,0.0,0.0,0.0,0.0,0.0,0.0,0.0,0.0,0.0,0.0,0.0,0.0,0.0,0.0,0.0,0.0,0.0,0.0,0.0,0.0,0.0,0.0,0.0,0.0,0.0,0.0,0.0,0.0,0.0,0.0,0.0,0.0,0.0,0.0,0.0,0.0,0.0,0.0,0.0,0.0,0.0,0.0,0.0,0.0,0.0,0.0,0.0,0.0,0.0,0.0,0.0,0.0,0.0,0.0,0.0,0.0,0.0,0.0,0.0,0.0,0.0,0.0,0.0,0.0,0.0,0.0,0.0,0.0,0.0,0.0,0.0,0.0,0.0,0.0,0.0,0.0,0.0,0.0,0.0,0.0,0.0,0.0,0.0,0.0,0.0,0.0,0.0,0.0,0.0,0.0,0.0,0.0,0.0,0.0,0.0,0.0,0.0,0.0,0.0,0.0,0.0,0.0,0.0,0.0,0.0,0.0,0.0,0.0,0.0,0.0,0.0,0.0,0.0,0.0,0.0,0.0,0.0,0.0,0.0,0.0,0.0,0.0,0.0,0.0,0.0,0.0,0.0,0.0,0.0,0.0,0.0,0.0,0.0,0.0,0.0,0.0,0.0,0.0,0.0,0.0,0.0,0.0,0.0,0.0,0.0,0.0,0.0,0.0,0.0,0.0,0.0,0.0,0.0,0.0,0.0,0.0,0.0,0.0,0.0,0.0,0.0,0.0,0.0,0.0,0.0,0.0,0.0,0.0,0.0,0.0,0.0,0.0,0.0,0.0,0.0,0.0,0.0,0.0,0.0,0.0,0.0,0.0,0.0,0.0,0.0,0.0,0.0,0.0,0.0,0.0,0.0,0.0,0.0,0.0,0.0,0.0,0.0,0.0,0.0,0.0,0.0,0.0,0.0,0.0,0.0,0.0,0.0,0.0,0.0,0.0,0.0,0.0,0.0,0.0,0.0,0.0,0.0,0.0,0.0,0.0,0.0,0.0,0.0,0.0,0.0,0.0,0.0,0.0,0.0,0.0,0.0,0.0,0.0,0.0,0.0,0.0,0.0,0.0,0.0,0.0,0.0,0.0,0.0,0.0,0.0,0.0,0.0,0.0,0.0,0.0,0.0,0.0,0.0,0.0,0.0,0.0,0.0,0.0,0.0,0.0,0.0,0.0,0.0,0.0,0.0,0.0,0.0,0.0,0.0,0.0,0.0,0.0,0.0,0.0,0.0,0.0,0.0,0.0,0.0,0.0,0.0,0.0,0.0,0.0,0.0,0.0,0.0,0.0,0.0,0.0,0.0,0.0,0.0,0.0,0.0,0.0,0.0,0.0,0.0,0.0,0.0,0.0,0.0,0.0,0.0,0.0,0.0,0.0,0.0,0.0,0.0,0.0,0.0,0.0,0.0,0.0,0.0,0.0,0.0,0.0,0.0,0.0,0.0,0.0,0.0,0.0,0.0,0.0,0.0,0.0,0.0,0.0,-4.7461,0.0,0.0,0.0,0.0,0.0,0.0,0.0,0.0,0.0,0.0,0.0,0.0,0.0,0.0,0.0,0.0,0.0,0.0,0.0,0.0,0.0,0.0,0.0,0.0,0.0,0.0,0.0,0.0,0.0,0.0,0.0,0.0,0.0,0.0,0.0,0.0,0.0,0.0,0.0,0.0,0.0,0.0,0.0,0.0,0.0,0.0,0.0,0.0,0.0,0.0,0.0,0.0,0.0,0.0,0.0,0.0,0.0,0.0,0.0,0.0,0.0,0.0,0.0,0.0,0.0,0.0,0.0,0.0,0.0,0.0,0.0,0.0,0.0,0.0,0.0,0.0,0.0,0.0,0.0,0.0,0.0,0.0,0.0,0.0,0.0,0.0,0.0,0.0,0.0,0.0,0.0,0.0,0.0,0.0,0.0,0.0,0.0,0.0,0.0,0.0,0.0,0.0,0.0,0.0,0.0,0.0,0.0,0.0,0.0,0.0,-5.0816,-5.0839,-5.043,-4.959,-4.83,0.0,0.0,0.0,0.0,0.0,0.0,0.0,0.0,0.0,0.0,0.0,0.0,0.0,0.0,0.0,0.0,0.0,0.0,0.0,0.0,0.0,0.0,0.0,0.0,0.0,0.0,0.0,0.0,0.0,0.0,0.0,0.0,0.0,0.0,0.0,0.0,0.0,0.0,0.0,0.0,0.0,0.0,0.0,0.0,0.0,0.0,0.0,0.0,0.0,0.0,0.0,0.0,0.0,0.0,0.0,0.0,0.0,0.0,0.0,0.0,0.0,0.0,0.0,0.0,0.0,0.0,0.0,0.0,0.0,0.0,0.0,0.0,0.0,0.0,0.0,0.0,0.0,0.0,0.0,0.0,0.0,0.0,0.0,0.0,0.0,0.0,0.0,0.0,0.0,0.0,0.0,0.0,0.0,0.0,0.0,0.0,0.0,0.0,0.0,0.0,0.0,0.0,0.0,0.0,0.0,0.0,0.0,0.0,0.0,0.0,0.0,0.0,-5.08,-4.9785,-4.8298,0.0,0.0,0.0,0.0,0.0,0.0,0.0,0.0,0.0,0.0,0.0,0.0,0.0,0.0,0.0,0.0,0.0,0.0,0.0,0.0,0.0,0.0,0.0,0.0,0.0,0.0,0.0,0.0,0.0,0.0,0.0,0.0,0.0,0.0,0.0,0.0,0.0,0.0,0.0,0.0,0.0,0.0,0.0,0.0,0.0,0.0,0.0,0.0,0.0,0.0,0.0,0.0,0.0,0.0,0.0,0.0,0.0,0.0,0.0,0.0,0.0,0.0,0.0,0.0,0.0,0.0,0.0,0.0,0.0,0.0,0.0,0.0,0.0,0.0,0.0,0.0,0.0,0.0,0.0,0.0,0.0,0.0,0.0,0.0,0.0,0.0,0.0,0.0,0.0,0.0,0.0,0.0,0.0,0.0,0.0,0.0,0.0,0.0,0.0,0.0,0.0,0.0,0.0,0.0,0.0,0.0,0.0,0.0,0.0,0.0,-5.1396,-5.1385,-5.1308,0.0,-4.6714,0.0,0.0,0.0,0.0,0.0,0.0,0.0,0.0,0.0,0.0,0.0,0.0,0.0,0.0,0.0,0.0,0.0,0.0,0.0,0.0,0.0,0.0,0.0,0.0,0.0,0.0,0.0,0.0,0.0,0.0,0.0,0.0,0.0,0.0,0.0,0.0,0.0,0.0,0.0,0.0,0.0,0.0,0.0,0.0,0.0,0.0,0.0,0.0,0.0,0.0,0.0,0.0,0.0,0.0,0.0,0.0,0.0,0.0,0.0,0.0,0.0,0.0,0.0,0.0,0.0,0.0,0.0,0.0,0.0,0.0,0.0,0.0,0.0,0.0,0.0,0.0,0.0,0.0,0.0,0.0,0.0,0.0,0.0,0.0,0.0,0.0,0.0,0.0,0.0,0.0,0.0,0.0,0.0,0.0,0.0,0.0,0.0,0.0,0.0,0.0,0.0,0.0,0.0,0.0,0.0,0.0,0.0,0.0,0.0,0.0,-5.139,-5.1401,-5.0446,-4.8765,0.0,0.0,0.0,0.0,0.0,0.0,0.0,0.0,0.0,0.0,0.0,0.0,0.0,0.0,0.0,0.0,0.0,0.0,0.0,0.0,0.0,0.0,0.0,0.0,0.0,0.0,0.0,0.0,0.0,0.0,0.0,0.0,0.0,0.0,0.0,0.0,0.0,0.0,0.0,0.0,0.0,0.0,0.0,0.0,0.0,0.0,0.0,0.0,0.0,0.0,0.0,0.0,0.0,0.0,0.0,0.0,0.0,0.0,0.0,0.0,0.0,0.0,0.0,0.0,0.0,0.0,0.0,0.0,0.0,0.0,0.0,0.0,0.0,0.0,0.0,0.0,0.0,0.0,0.0,0.0,0.0,0.0,0.0,0.0,0.0,0.0,0.0,0.0,0.0,0.0,0.0,0.0,0.0,0.0,0.0,0.0,0.0,0.0,0.0,0.0,0.0,0.0,0.0,0.0,0.0,0.0,0.0,0.0,0.0,0.0,-5.1344,-5.1379,-5.1319,-4.9776,-4.8094,-4.6351,0.0,0.0,0.0,0.0,0.0,0.0,0.0,0.0,0.0,0.0,0.0,0.0,0.0,0.0,0.0,0.0,0.0,0.0,0.0,0.0,0.0,0.0,0.0,0.0,0.0,0.0,0.0,0.0,0.0,0.0,0.0,0.0,0.0,0.0,0.0,0.0,0.0,0.0,0.0,0.0,0.0,0.0,0.0,0.0,0.0,0.0,0.0,0.0,0.0,0.0,0.0,0.0,0.0,0.0,0.0,0.0,0.0,0.0,0.0,0.0,0.0,0.0,0.0,0.0,0.0,0.0,0.0,0.0,0.0,0.0,0.0,0.0,0.0,0.0,0.0,0.0,0.0,0.0,0.0,0.0,0.0,0.0,0.0,0.0,0.0,0.0,0.0,0.0,0.0,0.0,0.0,0.0,0.0,0.0,0.0,0.0,0.0,0.0,0.0,0.0,0.0,0.0,0.0,0.0,0.0,0.0,0.0,0.0,-5.1135,-5.1275,-5.1325,-5.1378,-4.9772,-4.8086,0.0,0.0,0.0,0.0,0.0,0.0,0.0,0.0,0.0,0.0,0.0,0.0,0.0,0.0,0.0,0.0,0.0,0.0,0.0,0.0,0.0,0.0,0.0,0.0,0.0,0.0,0.0,0.0,0.0,0.0,0.0,0.0,0.0,0.0,0.0,0.0,0.0,0.0,0.0,0.0,0.0,0.0,0.0,0.0,0.0,0.0,0.0,0.0,0.0,0.0,0.0,0.0,0.0,0.0,0.0,0.0,0.0,0.0,0.0,0.0,0.0,0.0,0.0,0.0,0.0,0.0,0.0,0.0,0.0,0.0,0.0,0.0,0.0,0.0,0.0,0.0,0.0,0.0,0.0,0.0,0.0,0.0,0.0,0.0,0.0,0.0,0.0,0.0,0.0,0.0,0.0,0.0,0.0,0.0,0.0,0.0,0.0,0.0,0.0,0.0,0.0,0.0,0.0,0.0,0.0,0.0,0.0,0.0,0.0,-5.1108,-5.131,-5.1384,-5.1345,-4.9786,-4.8063,0.0,0.0,0.0,0.0,0.0,0.0,0.0,0.0,0.0,0.0,0.0,0.0,0.0,0.0,0.0,0.0,0.0,0.0,0.0,0.0,0.0,0.0,0.0,0.0,0.0,0.0,0.0,0.0,0.0,0.0,0.0,0.0,0.0,0.0,0.0,0.0,0.0,0.0,0.0,0.0,0.0,0.0,0.0,0.0,0.0,0.0,0.0,0.0,0.0,0.0,0.0,0.0,0.0,0.0,0.0,0.0,0.0,0.0,0.0,0.0,0.0,0.0,0.0,0.0,0.0,0.0,0.0,0.0,0.0,0.0,0.0,0.0,0.0,0.0,0.0,0.0,0.0,0.0,0.0,0.0,0.0,0.0,0.0,0.0,0.0,0.0,0.0,0.0,0.0,0.0,0.0,0.0,0.0,0.0,0.0,0.0,0.0,0.0,0.0,0.0,0.0,0.0,0.0,0.0,0.0,0.0,0.0,0.0,0.0,-5.1116,0.0,-5.1341,-5.1318,-4.9729,-4.8164,0.0,0.0,0.0,0.0,0.0,0.0,0.0,0.0,0.0,0.0,0.0,0.0,0.0,0.0,0.0,0.0,0.0,0.0,0.0,0.0,0.0,0.0,0.0,0.0,0.0,0.0,0.0,0.0,0.0,0.0,0.0,0.0,0.0,0.0,0.0,0.0,0.0,0.0,0.0,0.0,0.0,0.0,0.0,0.0,0.0,0.0,0.0,0.0,0.0,0.0,0.0,0.0,0.0,0.0,0.0,0.0,0.0,0.0,0.0,0.0,0.0,0.0,0.0,0.0,0.0,0.0,0.0,0.0,0.0,0.0,0.0,0.0,0.0,0.0,0.0,0.0,0.0,0.0,0.0,0.0,0.0,0.0,0.0,0.0,0.0,0.0,0.0,0.0,0.0,0.0,0.0,0.0,0.0,0.0,0.0,0.0,0.0,0.0,0.0,0.0,0.0,0.0,0.0,0.0,0.0,0.0,0.0,0.0,-4.9374,-5.1125,-5.124,-5.1288,-5.1271,-4.9724,-4.8412,0.0,0.0,0.0,0.0,0.0,0.0,0.0,0.0,0.0,0.0,0.0,0.0,0.0,0.0,0.0,0.0,0.0,0.0,0.0,0.0,0.0,0.0,0.0,0.0,0.0,0.0,0.0,0.0,0.0,0.0,0.0,0.0,0.0,0.0,0.0,0.0,0.0,0.0,0.0,0.0,0.0,0.0,0.0,0.0,0.0,0.0,0.0,0.0,0.0,0.0,0.0,0.0,0.0,0.0,0.0,0.0,0.0,0.0,0.0,0.0,0.0,0.0,0.0,0.0,0.0,0.0,0.0,0.0,0.0,0.0,0.0,0.0,0.0,0.0,0.0,0.0,0.0,0.0,0.0,0.0,0.0,0.0,0.0,0.0,0.0,0.0,0.0,0.0,0.0,0.0,0.0,0.0,0.0,0.0,0.0,0.0,0.0,0.0,0.0,0.0,0.0,0.0,0.0,0.0,0.0,0.0,0.0,0.0,0.0,-5.1923,-5.1967,-5.2,-5.1994,-5.0421,-4.8883,0.0,0.0,0.0,0.0,0.0,0.0,0.0,0.0,0.0,0.0,0.0,0.0,0.0,0.0,0.0,0.0,0.0,0.0,0.0,0.0,0.0,0.0,0.0,0.0,0.0,0.0,0.0,0.0,0.0,0.0,0.0,0.0,0.0,0.0,0.0,0.0,0.0,0.0,0.0,0.0,0.0,0.0,0.0,0.0,0.0,0.0,0.0,0.0,0.0,0.0,0.0,0.0,0.0,0.0,0.0,0.0,0.0,0.0,0.0,0.0,0.0,0.0,0.0,0.0,0.0,0.0,0.0,0.0,0.0,0.0,0.0,0.0,0.0,0.0,0.0,0.0,0.0,0.0,0.0,0.0,0.0,0.0,0.0,0.0,0.0,0.0,0.0,0.0,0.0,0.0,0.0,0.0,0.0,0.0,0.0,0.0,0.0,0.0,0.0,0.0,0.0,0.0,0.0,0.0,0.0,0.0,0.0,0.0,0.0,-5.3386,-5.2941,-5.2702,-5.2757,-5.1177,-4.9648,-4.8202,0.0,0.0,0.0,0.0,0.0,0.0,0.0,0.0,0.0,0.0,0.0,0.0,0.0,0.0,0.0,0.0,0.0,0.0,0.0,0.0,0.0,0.0,0.0,0.0,0.0,0.0,0.0,0.0,0.0,0.0,0.0,0.0,0.0,0.0,0.0,0.0,0.0,0.0,0.0,0.0,0.0,0.0,0.0,0.0,0.0,0.0,0.0,0.0,0.0,0.0,0.0,0.0,0.0,0.0,0.0,0.0,0.0,0.0,0.0,0.0,0.0,0.0,0.0,0.0,0.0,0.0,0.0,0.0,0.0,0.0,0.0,0.0,0.0,0.0,0.0,0.0,0.0,0.0,0.0,0.0,0.0,0.0,0.0,0.0,0.0,0.0,0.0,0.0,0.0,0.0,0.0,0.0,0.0,0.0,0.0,0.0,0.0,0.0,0.0,0.0,0.0,0.0,0.0,0.0,0.0,0.0,0.0,0.0,-5.5339,-5.4117,-5.3491,-5.3494,-5.1962,-5.0657,0.0,0.0,0.0,0.0,0.0,0.0,0.0,0.0,0.0,0.0,0.0,0.0,0.0,0.0,0.0,0.0,0.0,0.0,0.0,0.0,0.0,0.0,0.0,0.0,0.0,0.0,0.0,0.0,0.0,0.0,0.0,0.0,0.0,0.0,0.0,0.0,0.0,0.0,0.0,0.0,0.0,0.0,0.0,0.0,0.0,0.0,0.0,0.0,0.0,0.0,0.0,0.0,0.0,0.0,0.0,0.0,0.0,0.0,0.0,0.0,0.0,0.0,0.0,0.0,0.0,0.0,0.0,0.0,0.0,0.0,0.0,0.0,0.0,0.0,0.0,0.0,0.0,0.0,0.0,0.0,0.0,0.0,0.0,0.0,0.0,0.0,0.0,0.0,0.0,0.0,0.0,0.0,0.0,0.0,0.0,0.0,0.0,0.0,0.0,0.0,0.0,0.0,0.0,0.0,0.0,0.0,0.0,0.0,0.0,-5.4938,-5.5301,-5.5262,-5.4858,-5.3268,-5.1423,0.0,0.0,0.0,0.0,0.0,0.0,0.0,0.0,0.0,0.0,0.0,0.0,0.0,0.0,0.0,0.0,0.0,0.0,0.0,0.0,0.0,0.0,0.0,0.0,0.0,0.0,0.0,0.0,0.0,0.0,0.0,0.0,0.0,0.0,0.0,0.0,0.0,0.0,0.0,0.0,0.0,0.0,0.0,0.0,0.0,0.0,0.0,0.0,0.0,0.0,0.0,0.0,0.0,0.0,0.0,0.0,0.0,0.0,0.0,0.0,0.0,0.0,0.0,0.0,0.0,0.0,0.0,0.0,0.0,0.0,0.0,0.0,0.0,0.0,0.0,0.0,0.0,0.0,0.0,0.0,0.0,0.0,0.0,0.0,0.0,0.0,0.0,0.0,0.0,0.0,0.0,0.0,0.0,0.0,0.0,0.0,0.0,0.0,0.0,0.0,0.0,0.0,0.0,0.0,0.0,0.0,0.0,0.0,-5.3651,-5.5651,-5.6549,-5.6848,-5.6544,-5.4739,-5.2631,0.0,0.0,0.0,0.0,0.0,0.0,0.0,0.0,0.0,0.0,0.0,0.0,0.0,0.0,0.0,0.0,0.0,0.0,0.0,0.0,0.0,0.0,0.0,0.0,0.0,0.0,0.0,0.0,0.0,0.0,0.0,0.0,0.0,0.0,0.0,0.0,0.0,0.0,0.0,0.0,0.0,0.0,0.0,0.0,0.0,0.0,0.0,0.0,0.0,0.0,0.0,0.0,0.0,0.0,0.0,0.0,0.0,0.0,0.0,0.0,0.0,0.0,0.0,0.0,0.0,0.0,0.0,0.0,0.0,0.0,0.0,0.0,0.0,0.0,0.0,0.0,0.0,0.0,0.0,0.0,0.0,0.0,0.0,0.0,0.0,0.0,0.0,0.0,0.0,0.0,0.0,0.0,0.0,0.0,0.0,0.0,0.0,0.0,0.0,0.0,0.0,0.0,0.0,0.0,0.0,0.0,0.0,0.0,-5.4246,-5.6665,-5.7565,-5.7978,-5.7828,-5.6062,-5.3935,0.0,0.0,0.0,0.0,0.0,0.0,0.0,0.0,0.0,0.0,0.0,0.0,0.0,0.0,0.0,0.0,0.0,0.0,0.0,0.0,0.0,0.0,0.0,0.0,0.0,0.0,0.0,0.0,0.0,0.0,0.0,0.0,0.0,0.0,0.0,0.0,0.0,0.0,0.0,0.0,0.0,0.0,0.0,0.0,0.0,0.0,0.0,0.0,0.0,0.0,0.0,0.0,0.0,0.0,0.0,0.0,0.0,0.0,0.0,0.0,0.0,0.0,0.0,0.0,0.0,0.0,0.0,0.0,0.0,0.0,0.0,0.0,0.0,0.0,0.0,0.0,0.0,0.0,0.0,0.0,0.0,0.0,0.0,0.0,0.0,0.0,0.0,0.0,0.0,0.0,0.0,0.0,0.0,0.0,0.0,0.0,0.0,0.0,0.0,0.0,0.0,0.0,0.0,0.0,0.0,0.0,0.0,0.0,-5.3777,-5.6097,-5.7088,-5.7199,-5.645,-5.5805,-5.4361,0.0,0.0,0.0,0.0,0.0,0.0,0.0,0.0,0.0,0.0,0.0,0.0,0.0,0.0,0.0,0.0,0.0,0.0,0.0,0.0,0.0,0.0,0.0,0.0,0.0,0.0,0.0,0.0,0.0,0.0,0.0,0.0,0.0,0.0,0.0,0.0,0.0,0.0,0.0,0.0,0.0,0.0,0.0,0.0,0.0,0.0,0.0,0.0,-4.9343,0.0,0.0,0.0,0.0,0.0,0.0,0.0,0.0,0.0,0.0,0.0,0.0,0.0,0.0,0.0,0.0,0.0,0.0,0.0,0.0,0.0,0.0,0.0,0.0,0.0,0.0,0.0,0.0,0.0,0.0,0.0,0.0,0.0,0.0,0.0,0.0,0.0,0.0,0.0,0.0,0.0,0.0,0.0,0.0,0.0,0.0,0.0,0.0,0.0,0.0,0.0,0.0,0.0,0.0,0.0,0.0,0.0,0.0,0.0,-5.3326,-5.5604,-5.6553,-5.6793,-5.6289,-5.5847,-5.4466,0.0,0.0,0.0,0.0,0.0,0.0,0.0,0.0,0.0,0.0,0.0,0.0,0.0,0.0,0.0,0.0,0.0,0.0,0.0,0.0,0.0,0.0,0.0,0.0,0.0,0.0,0.0,0.0,0.0,0.0,0.0,0.0,0.0,0.0,0.0,0.0,0.0,0.0,0.0,0.0,0.0,0.0,0.0,0.0,0.0,0.0,0.0,0.0,0.0,0.0,0.0,0.0,0.0,0.0,0.0,0.0,0.0,0.0,0.0,0.0,0.0,0.0,0.0,0.0,0.0,0.0,0.0,0.0,0.0,0.0,0.0,0.0,0.0,0.0,0.0,0.0,0.0,0.0,0.0,0.0,0.0,0.0,0.0,0.0,0.0,0.0,0.0,0.0,0.0,0.0,0.0,0.0,0.0,0.0,0.0,0.0,0.0,0.0,0.0,0.0,0.0,0.0,0.0,0.0,0.0,0.0,0.0,-5.1331,-5.2762,-5.4894,-5.5829,-5.6218,-5.6085,-5.5526,-5.4029,-5.1543,0.0,0.0,0.0,0.0,0.0,0.0,0.0,0.0,0.0,0.0,0.0,0.0,0.0,0.0,0.0,0.0,0.0,0.0,0.0,0.0,0.0,0.0,0.0,0.0,0.0,0.0,0.0,0.0,0.0,0.0,0.0,0.0,0.0,0.0,0.0,0.0,0.0,0.0,-4.5559,-4.7271,0.0,0.0,0.0,0.0,0.0,0.0,0.0,0.0,-4.9929,0.0,0.0,0.0,0.0,0.0,0.0,0.0,0.0,0.0,0.0,0.0,0.0,0.0,0.0,0.0,0.0,0.0,0.0,0.0,0.0,0.0,0.0,0.0,0.0,0.0,0.0,0.0,0.0,0.0,0.0,0.0,0.0,0.0,0.0,0.0,0.0,0.0,0.0,0.0,0.0,0.0,0.0,0.0,0.0,0.0,0.0,0.0,0.0,0.0,0.0,0.0,0.0,0.0,0.0,0.0,0.0,-5.0238,-5.0899,-5.1948,-5.3514,-5.4448,-5.4538,-5.3784,-5.3321,-5.2342,-5.0745,0.0,0.0,0.0,0.0,0.0,0.0,0.0,0.0,0.0,0.0,0.0,0.0,0.0,0.0,0.0,0.0,0.0,0.0,0.0,0.0,0.0,0.0,0.0,0.0,0.0,0.0,0.0,0.0,0.0,0.0,0.0,0.0,0.0,0.0,0.0,0.0,0.0,0.0,0.0,-4.7946,-4.9139,0.0,0.0,0.0,0.0,0.0,0.0,0.0,0.0,-4.863,0.0,0.0,0.0,0.0,0.0,0.0,0.0,0.0,0.0,0.0,0.0,0.0,0.0,0.0,0.0,0.0,0.0,0.0,0.0,0.0,0.0,0.0,0.0,0.0,0.0,0.0,0.0,0.0,0.0,0.0,0.0,0.0,0.0,0.0,0.0,0.0,0.0,0.0,0.0,0.0,0.0,0.0,0.0,0.0,0.0,0.0,0.0,0.0,0.0,0.0,0.0,0.0,0.0,0.0,0.0,-4.9672,-4.993,-5.0883,-5.2725,-5.323,-5.3248,-5.2796,-5.251,-5.1683,0.0,0.0,0.0,0.0,0.0,0.0,0.0,0.0,0.0,0.0,0.0,0.0,0.0,0.0,0.0,0.0,0.0,0.0,0.0,0.0,0.0,0.0,0.0,0.0,0.0,0.0,0.0,0.0,0.0,0.0,0.0,0.0,0.0,0.0,0.0,0.0,0.0,0.0,0.0,0.0,-4.7936,-4.9062,-4.9096,0.0,0.0,0.0,0.0,0.0,0.0,-4.8352,-4.7746,0.0,0.0,0.0,0.0,0.0,0.0,0.0,0.0,0.0,0.0,0.0,0.0,0.0,0.0,0.0,0.0,0.0,0.0,0.0,0.0,0.0,0.0,0.0,0.0,0.0,0.0,0.0,0.0,0.0,0.0,0.0,0.0,0.0,0.0,0.0,0.0,0.0,0.0,0.0,0.0,0.0,0.0,0.0,0.0,0.0,0.0,0.0,0.0,0.0,0.0,0.0,0.0,0.0,0.0,0.0,-4.8781,-4.8823,-4.9772,-5.1652,-5.1926,-5.1926,-5.1767,-5.1576,-5.0868,0.0,0.0,0.0,0.0,0.0,0.0,0.0,0.0,0.0,0.0,0.0,0.0,0.0,0.0,0.0,0.0,0.0,0.0,0.0,0.0,0.0,0.0,0.0,0.0,0.0,0.0,0.0,0.0,0.0,0.0,0.0,0.0,0.0,0.0,0.0,0.0,0.0,0.0,0.0,0.0,0.0,-4.8618,-4.8732,-4.8839,0.0,0.0,0.0,0.0,-4.8025,-4.7335,0.0,0.0,0.0,0.0,0.0,0.0,0.0,0.0,0.0,0.0,0.0,0.0,0.0,0.0,0.0,0.0,0.0,0.0,0.0,0.0,0.0,0.0,0.0,0.0,0.0,0.0,0.0,0.0,0.0,0.0,0.0,0.0,0.0,0.0,0.0,0.0,0.0,0.0,0.0,0.0,0.0,0.0,0.0,0.0,0.0,0.0,0.0,0.0,0.0,0.0,0.0,0.0,0.0,0.0,0.0,0.0,-4.6891,-4.8013,-4.8855,-4.9567,-5.0385,-5.042,-4.9602,-4.937,-4.8964,0.0,0.0,0.0,0.0,0.0,0.0,0.0,0.0,0.0,0.0,0.0,0.0,0.0,0.0,0.0,0.0,0.0,0.0,0.0,0.0,0.0,0.0,0.0,0.0,0.0,0.0,0.0,0.0,0.0,0.0,0.0,0.0,0.0,0.0,0.0,0.0,0.0,0.0,0.0,0.0,0.0,-4.7739,-4.844,-4.8495,-4.8477,0.0,0.0,-4.7395,-4.6729,-4.5975,0.0,0.0,0.0,0.0,0.0,0.0,0.0,0.0,0.0,0.0,0.0,0.0,0.0,0.0,0.0,0.0,0.0,0.0,0.0,0.0,0.0,0.0,0.0,0.0,0.0,0.0,0.0,0.0,0.0,0.0,0.0,0.0,0.0,0.0,0.0,0.0,0.0,0.0,0.0,0.0,0.0,0.0,0.0,0.0,0.0,0.0,0.0,0.0,0.0,0.0,0.0,0.0,0.0,0.0,0.0,-4.487,-4.6259,-4.7422,-4.8266,-4.8695,-4.9596,-4.9648,-4.8729,-4.8537,-4.8186,0.0,0.0,0.0,0.0,0.0,0.0,0.0,0.0,0.0,0.0,0.0,0.0,0.0,0.0,0.0,0.0,0.0,0.0,0.0,0.0,0.0,0.0,0.0,0.0,0.0,0.0,0.0,0.0,0.0,0.0,0.0,0.0,0.0,0.0,0.0,0.0,0.0,0.0,0.0,0.0,0.0,0.0,-4.7454,-4.7796,0.0,0.0,0.0,-4.6636,-4.544,0.0,0.0,0.0,0.0,0.0,0.0,0.0,0.0,0.0,0.0,0.0,0.0,0.0,0.0,0.0,0.0,0.0,0.0,0.0,0.0,0.0,0.0,0.0,0.0,0.0,0.0,0.0,0.0,0.0,0.0,0.0,0.0,0.0,0.0,0.0,0.0,0.0,0.0,0.0,0.0,0.0,0.0,0.0,0.0,0.0,0.0,0.0,0.0,0.0,0.0,0.0,0.0,0.0,0.0,0.0,0.0,0.0,-4.5229,-4.6608,-4.7386,-4.76,-4.8497,-4.8548,-4.7634,-4.7554,0.0,0.0,0.0,0.0,0.0,0.0,0.0,0.0,0.0,0.0,0.0,0.0,0.0,0.0,0.0,0.0,0.0,0.0,0.0,0.0,0.0,0.0,0.0,0.0,0.0,0.0,0.0,-3.9107,0.0,0.0,0.0,0.0,0.0,0.0,0.0,0.0,0.0,0.0,0.0,0.0,0.0,0.0,-4.6182,-4.6277,-4.6659,-4.6738,0.0,0.0,-4.5594,-4.4431,-4.4273,-4.4157,0.0,0.0,0.0,0.0,0.0,0.0,0.0,0.0,0.0,0.0,0.0,0.0,0.0,0.0,0.0,0.0,0.0,0.0,0.0,0.0,0.0,0.0,0.0,0.0,0.0,0.0,0.0,0.0,0.0,0.0,0.0,0.0,0.0,0.0,0.0,0.0,0.0,0.0,0.0,0.0,0.0,0.0,0.0,0.0,0.0,0.0,0.0,0.0,0.0,0.0,0.0,0.0,0.0,0.0,0.0,-4.3177,-4.5155,-4.6022,-4.5626,-4.6498,-4.6561,-4.5643,-4.5892,-4.5798,0.0,0.0,0.0,0.0,0.0,0.0,0.0,0.0,0.0,0.0,0.0,0.0,0.0,0.0,0.0,0.0,0.0,0.0,0.0,0.0,0.0,0.0,0.0,0.0,0.0,0.0,0.0,0.0,0.0,0.0,0.0,0.0,0.0,0.0,0.0,0.0,0.0,0.0,0.0,0.0,0.0,-4.4353,-4.5029,-4.4982,-4.4889,0.0,0.0,-4.3824,-4.3834,-4.3343,-4.301,-4.3214,0.0,0.0,0.0,0.0,0.0,0.0,0.0,0.0,0.0,0.0,0.0,0.0,0.0,0.0,0.0,0.0,0.0,0.0,0.0,0.0,0.0,0.0,0.0,0.0,0.0,0.0,0.0,0.0,0.0,0.0,0.0,0.0,0.0,0.0,0.0,0.0,0.0,0.0,0.0,0.0,0.0,0.0,0.0,0.0,0.0,0.0,0.0,0.0,0.0,0.0,0.0,0.0,0.0,-4.3147,-4.28,-4.4697,-4.5445,-4.5037,-4.5781,-4.5754,-4.4873,-4.5122,-4.5074,0.0,0.0,0.0,0.0,0.0,0.0,0.0,0.0,0.0,0.0,0.0,0.0,0.0,0.0,0.0,0.0,0.0,0.0,0.0,0.0,0.0,0.0,0.0,0.0,0.0,0.0,0.0,0.0,-3.9815,-4.0117,-4.092,0.0,0.0,0.0,0.0,0.0,0.0,0.0,0.0,0.0,0.0,-4.3521,-4.3675,-4.4063,0.0,0.0,-4.3479,-4.3247,-4.2825,-4.2629,-4.2629,-4.2786,-4.2939,0.0,0.0,0.0,0.0,0.0,0.0,0.0,0.0,0.0,0.0,0.0,0.0,0.0,0.0,0.0,0.0,0.0,0.0,0.0,0.0,0.0,0.0,0.0,0.0,0.0,0.0,0.0,0.0,0.0,0.0,0.0,0.0,0.0,0.0,0.0,0.0,0.0,0.0,0.0,0.0,0.0,0.0,0.0,0.0,0.0,0.0,0.0,0.0,0.0,0.0,0.0,0.0,-4.2766,-4.2453,-4.3984,-4.4597,-4.4191,-4.4622,-4.4545,-4.3978,-4.4127,-4.4006,0.0,0.0,0.0,0.0,0.0,0.0,0.0,0.0,0.0,0.0,0.0,0.0,0.0,0.0,0.0,0.0,0.0,0.0,0.0,0.0,0.0,0.0,0.0,0.0,0.0,0.0,0.0,0.0,-3.9823,-4.0038,-4.0588,0.0,0.0,0.0,0.0,0.0,0.0,0.0,0.0,0.0,0.0,-4.2237,-4.2075,-4.2693,-4.2986,-4.2452,-4.2578,-4.255,-4.198,-4.2023,-4.2228,-4.2371,0.0,0.0,0.0,0.0,0.0,0.0,0.0,0.0,0.0,0.0,0.0,0.0,0.0,0.0,0.0,0.0,0.0,0.0,0.0,0.0,0.0,0.0,0.0,0.0,0.0,0.0,0.0,0.0,0.0,0.0,0.0,0.0,0.0,0.0,0.0,0.0,0.0,0.0,0.0,0.0,0.0,0.0,0.0,0.0,0.0,0.0,0.0,0.0,0.0,0.0,0.0,0.0,0.0,-4.2286,-4.1826,-4.2895,-4.3284,-4.2963,-4.2775,-4.2681,-4.2665,-4.2649,-4.2402,-4.1868,0.0,0.0,0.0,0.0,0.0,0.0,0.0,0.0,0.0,0.0,0.0,0.0,0.0,0.0,0.0,0.0,0.0,0.0,0.0,0.0,0.0,0.0,0.0,0.0,0.0,0.0,-4.0311,-4.0272,-4.0289,0.0,0.0,0.0,0.0,0.0,0.0,0.0,0.0,0.0,0.0,-3.9876,-4.0233,-4.0209,-4.0752,-4.1233,-4.1261,-4.1375,-4.1443,-4.1426,-4.1538,-4.1692,0.0,0.0,0.0,0.0,0.0,0.0,0.0,0.0,0.0,0.0,0.0,0.0,0.0,0.0,0.0,0.0,0.0,0.0,0.0,0.0,0.0,0.0,0.0,0.0,0.0,0.0,0.0,-3.895,-3.8996,0.0,0.0,0.0,0.0,0.0,0.0,0.0,0.0,0.0,0.0,0.0,-3.787,-3.787,0.0,0.0,0.0,0.0,0.0,0.0,0.0,0.0,0.0,0.0,0.0,0.0,-4.1395,-4.1488,-4.1927,-4.2225,-4.2365,-4.2061,-4.1932,-4.1916,-4.1932,-4.1438,-4.0458,0.0,0.0,0.0,0.0,0.0,0.0,0.0,0.0,0.0,0.0,0.0,0.0,0.0,0.0,0.0,0.0,0.0,0.0,0.0,0.0,0.0,0.0,0.0,0.0,0.0,-3.9458,0.0,0.0,0.0,0.0,0.0,0.0,0.0,0.0,0.0,0.0,0.0,-3.9193,-3.8873,-3.9396,-3.9744,-3.964,-4.0335,-4.0858,0.0,0.0,0.0,0.0,0.0,0.0,0.0,0.0,0.0,0.0,0.0,0.0,0.0,0.0,-4.0763,-4.2234,-4.1903,-4.1468,-4.1703,0.0,0.0,0.0,0.0,0.0,0.0,0.0,0.0,0.0,0.0,0.0,0.0,0.0,0.0,0.0,0.0,-3.9044,0.0,0.0,0.0,0.0,0.0,0.0,0.0,0.0,-3.7722,-3.7727,-3.7762,-3.7762,-3.7824,0.0,-3.7695,-3.7973,0.0,0.0,0.0,0.0,0.0,0.0,0.0,0.0,-4.0624,-4.0914,-4.1144,-4.1437,-4.1803,-4.1555,-4.1439,-4.1439,-4.1137,-4.0493,-3.9503,-3.9512,-3.9159,0.0,0.0,0.0,0.0,0.0,0.0,0.0,0.0,0.0,0.0,0.0,0.0,0.0,0.0,0.0,0.0,0.0,0.0,0.0,0.0,0.0,0.0,0.0,-3.8572,0.0,0.0,0.0,0.0,0.0,0.0,0.0,0.0,0.0,-3.8386,-3.8161,-3.7789,-3.7528,-3.8299,-3.887,-3.8833,0.0,0.0,0.0,0.0,0.0,0.0,0.0,-4.083,-4.0995,-4.0868,-4.0588,-4.0027,-3.9621,-3.9458,-3.9662,0.0,0.0,-4.0864,-4.063,-4.0228,-4.0446,-4.0503,-4.0415,-3.9977,-3.9847,-3.9666,0.0,0.0,0.0,0.0,0.0,0.0,0.0,0.0,-3.8929,-3.8911,0.0,-3.8882,0.0,0.0,0.0,0.0,0.0,0.0,0.0,0.0,-3.7793,-3.7959,-3.8335,-3.835,-3.8365,-3.8335,-3.7705,-3.7589,-3.7888,-3.8134,0.0,0.0,0.0,0.0,0.0,0.0,-3.9955,-4.0194,-4.0529,-4.0926,-4.1258,-4.112,-4.1068,-4.1034,-4.0246,-3.9563,-3.8978,-3.8324,-3.7856,-3.7673,-3.7815,0.0,0.0,0.0,0.0,0.0,0.0,0.0,0.0,0.0,0.0,0.0,0.0,0.0,0.0,0.0,0.0,0.0,0.0,0.0,0.0,-3.8078,0.0,0.0,0.0,0.0,0.0,0.0,0.0,0.0,0.0,0.0,-3.6894,-3.6343,-3.5706,-3.5514,0.0,0.0,0.0,0.0,-3.9952,-4.0087,-4.007,-4.0138,-4.028,-4.0263,-4.0362,-4.0597,0.0,0.0,-3.8819,-3.8829,-3.8928,-3.9161,-3.8634,-3.8452,-3.9014,-3.8786,-3.8458,-3.8471,-3.8635,-3.8621,-3.8673,-3.8759,-3.867,-4.04,0.0,0.0,0.0,0.0,-3.8763,-3.8962,-3.8993,-3.9482,-3.9661,-3.9596,-3.9263,0.0,0.0,0.0,0.0,0.0,0.0,-3.8097,-3.8117,-3.8052,-3.8045,-3.8047,-3.8047,-3.8047,-3.8032,-3.7849,-3.7595,-3.7283,-3.7419,-3.7635,-3.786,0.0,0.0,0.0,0.0,-3.8768,-3.961,-3.9439,-3.9771,-4.0715,-4.0486,-4.0312,-4.0312,-4.0093,-3.9436,-3.8338,-3.8161,-3.7774,-3.703,-3.7103,0.0,0.0,0.0,0.0,0.0,0.0,0.0,0.0,0.0,0.0,0.0,0.0,0.0,0.0,0.0,0.0,0.0,0.0,0.0,-3.5382,-3.6018,-3.6447,0.0,0.0,0.0,0.0,0.0,0.0,0.0,0.0,0.0,-3.493,-3.5501,-3.5892,0.0,0.0,-3.8171,-3.8338,-3.9168,-3.9781,-3.9833,0.0,0.0,0.0,-3.9884,-3.9775,-3.9542,-3.8536,-3.7752,-3.7602,-3.7314,-3.7084,-3.7168,-3.7283,-3.7441,-3.7598,-3.7755,-3.7915,-3.8136,-3.8218,-3.8318,-3.8449,-3.8462,-3.8444,-4.1355,-4.0803,-3.9747,-3.9259,-3.9325,-3.9476,-3.9536,-3.9551,-3.9687,-3.9747,-3.9768,-3.952,-3.9408,-3.9378,-3.8864,0.0,0.0,0.0,-3.8299,-3.8371,-3.8421,-3.844,-3.8476,-3.8476,-3.8491,-3.8476,-3.8204,-3.7941,-3.7661,-3.7491,-3.7533,-3.7748,0.0,0.0,-3.7358,-3.7597,-3.8105,-3.8949,-3.8919,-3.9379,-4.025,-4.0101,-3.9975,-3.9889,-3.9874,-3.9269,-3.7933,-3.7977,-3.7504,-3.6491,-3.6569,-3.6692,0.0,0.0,0.0,0.0,0.0,0.0,0.0,0.0,0.0,0.0,0.0,-3.7279,-3.718,0.0,0.0,0.0,-3.4745,-3.4417,-3.4074,-3.4665,0.0,0.0,0.0,0.0,0.0,0.0,0.0,-3.4584,-3.4105,-3.3813,-3.3848,-3.4725,-3.5511,-3.5844,-3.7142,-3.8004,-3.7875,0.0,-3.8857,-3.8626,-3.8576,-3.8628,-3.8714,-3.8756,-3.8598,-3.813,-3.7452,-3.6837,-3.6604,-3.631,-3.6148,-3.6301,-3.653,-3.6791,-3.6968,-3.722,-3.7485,-3.7827,-3.7966,-3.8052,-3.8219,-3.8252,-3.8252,-4.2183,-4.2348,-4.1735,-4.1474,-4.1324,-4.0726,-4.0442,-4.0352,-3.9753,-3.9469,-3.9424,-3.9589,-3.9681,-3.9651,-3.9219,0.0,0.0,-3.7997,-3.8292,-3.8742,-3.8742,-3.8968,-3.9409,-3.9373,-3.9388,-3.9394,-3.8766,-3.8557,-3.8607,-3.805,-3.7801,-3.7815,-3.7118,-3.6692,-3.6645,-3.7341,-3.7892,-3.8256,-3.8864,-3.9382,-3.991,-3.9925,-3.9854,-3.9696,-3.9646,-3.9028,-3.7748,-3.7639,-3.7122,-3.6001,-3.6053,-3.6133,-3.6148,0.0,0.0,0.0,0.0,0.0,0.0,0.0,0.0,0.0,0.0,0.0,0.0,0.0,0.0,0.0,-3.3603,0.0,-3.324,-3.3792,0.0,0.0,0.0,-3.4893,-3.4218,-3.4155,-3.3918,-3.3303,0.0,0.0,0.0,0.0,-3.4723,-3.5247,-3.6627,-3.7386,-3.6757,-3.7291,-3.7515,-3.7063,-3.6915,-3.7001,-3.7386,-3.732,-3.7135,-3.6767,-3.6558,-3.6331,-3.5932,-3.5829,-3.5949,-3.6174,-3.628,-3.6409,-3.6853,-3.695,-3.7124,-3.7485,-3.7721,-3.7898,-3.7984,-3.8036,-3.807,-4.2573,-4.2598,-4.2465,-4.201,-4.1384,-4.1257,-4.0861,-4.0397,-4.0232,-3.9888,-3.9409,-3.946,-3.946,-3.9481,-3.9367,-3.9217,-3.9052,-3.9052,-3.9107,-3.9206,-3.9257,-3.9311,-3.9388,-3.9388,-3.9388,-3.9373,-3.926,-3.8951,-3.8477,-3.8312,-3.7967,-3.7522,-3.7173,-3.7191,-3.7557,-3.7776,-3.8153,-3.8804,-3.8661,-3.8822,-3.9307,-3.9322,-3.9373,-3.9445,-3.9337,-3.8639,-3.7357,-3.7174,-3.6565,-3.5451,-3.5442,-3.5477,-3.5576,-3.564,0.0,0.0,0.0,0.0,0.0,0.0,0.0,0.0,0.0,-3.5216,-3.5143,0.0,-3.2838,0.0,-3.271,-3.2617,-3.2617,-3.2772,0.0,0.0,-3.3017,-3.3036,-3.2865,-3.285,-3.2843,-3.2769,-3.2765,-3.285,-3.3032,-3.3731,-3.432,-3.4638,-3.5787,-3.6619,-3.6535,-3.6771,-3.6914,-3.6744,-3.6781,-3.6907,-3.6901,-3.668,-3.6428,-3.6293,-3.6015,-3.5716,-3.5594,-3.5701,-3.5839,-3.591,-3.6131,-3.6322,-3.6447,-3.6733,-3.6989,-3.7145,-3.7428,-3.7739,-3.7899,-3.795,-3.8001,-4.2622,-4.2688,-4.2688,-4.2435,-4.195,-4.173,-4.1441,-4.1068,-4.0614,-4.0187,-3.9828,-3.9508,-3.9388,-3.9388,-3.9388,-3.9388,-3.9388,-3.9388,-3.9388,-3.9388,-3.9388,-3.9388,-3.9388,-3.9388,-3.9388,-3.9388,-3.9301,-3.9071,-3.8713,-3.8612,-3.8383,-3.8026,-3.7899,-3.8005,-3.8272,-3.8023,-3.8083,-3.8442,-3.8528,-3.8697,-3.895,-3.8995,-3.9031,-3.9126,-3.875,-3.8106,-3.7114,-3.6684,-3.6015,-3.5126,-3.5067,-3.5067,-3.507,-3.507,-3.507,0.0,0.0,0.0,0.0,0.0,0.0,0.0,0.0,0.0,0.0,0.0,-3.1923,0.0,-3.202,0.0,-3.2092,-3.2148,-3.2219,-3.2234,-3.2219,-3.2219,-3.2219,-3.2219,-3.2247,-3.2315,-3.2342,-3.2413,-3.2582,-3.3029,-3.3412,-3.3591,-3.4329,-3.5086,-3.5641,-3.5863,-3.5854,-3.558,-3.5658,-3.5801,-3.5901,-3.5769,-3.5632,-3.5671,-3.5536,-3.5423,-3.5492,-3.5611,-3.5728,-3.5778,-3.5954,-3.6131,-3.628,-3.6489,-3.6731,-3.6911,-3.7126,-3.7411,-3.7703,-3.781,-3.7845,-4.2392,-4.2526,-4.2526,-4.2566,-4.2522,-4.2149,-4.1972,-4.1926,-4.0942,-4.039,-4.0247,-3.9642,-3.9373,-3.9373,-3.9388,-3.9337,-3.9337,-3.9352,-3.9301,-3.9352,-3.9301,-3.9337,-3.9301,-3.9337,-3.9337,-3.9316,-3.9126,-3.9068,-3.9068,-3.887,-3.8782,-3.8782,-3.8745,-3.8708,-3.8679,-3.8076,-3.7797,-3.7812,-3.8377,-3.8671,-3.8686,-3.8671,-3.8708,-3.8694,-3.812,-3.7466,-3.6819,-3.6109,-3.5463,-3.4813,-3.4769,-3.4702,-3.4563,-3.4563,-3.4448,0.0,-3.4264,0.0,0.0,0.0,0.0,0.0,0.0,0.0,0.0,-3.1723,-3.1263,-3.1263,-3.1481,-3.161,-3.1625,-3.1783,-3.1883,-3.1912,-3.1896,-3.194,-3.1925,-3.194,-3.194,-3.1968,-3.1968,-3.2025,-3.2178,-3.2259,-3.2398,-3.2594,-3.2917,-3.3475,-3.4293,-3.4675,-3.4649,-3.4115,-3.4201,-3.4603,-3.4791,-3.4853,-3.4956,-3.5074,-3.5208,-3.5314,-3.5446,-3.5526,-3.5639,-3.5728,-3.5795,-3.5888,-3.6191,-3.6259,-3.6406,-3.667,-3.6869,-3.7087,-3.7429,-3.7577,-3.7685,-4.1606,-4.1633,-4.1647,-4.1758,-4.1895,-4.1945,-4.1986,-4.1956,-4.1281,-4.0457,-3.9582,-3.9433,-3.9301,-3.9177,-3.9141,-3.9068,-3.8907,-3.8907,-3.8907,-3.8907,-3.8907,-3.8892,-3.8907,-3.8907,-3.8907,-3.8907,-3.887,-3.8855,-3.887,-3.8833,-3.8782,-3.8782,-3.8449,-3.8315,-3.83,0.0,0.0,0.0,-3.8017,-3.8089,-3.8075,-3.8075,-3.8165,-3.83,-3.7593,0.0,-3.6172,-3.543,-3.4706,-3.4131,-3.4088,0.0,0.0,0.0,0.0,0.0,0.0,0.0,0.0,0.0,0.0,0.0,-3.1332,-3.1517,-3.1894,-3.1441,-3.1132,-3.1146,-3.119,-3.122,-3.122,-3.1249,-3.1307,-3.1438,-3.1438,-3.1467,-3.1568,-3.1597,-3.164,-3.1828,-3.1841,-3.1898,-3.2025,-3.2066,-3.2122,-3.2274,-3.2441,-3.2621,-3.2979,-3.3525,-3.3828,-3.3931,-3.4126,-3.4399,-3.4667,-3.4732,-3.4804,-3.4906,-3.5041,-3.5158,-3.5314,-3.5446,-3.5526,-3.5639,-3.5728,-3.5817,-3.5888,-3.6105,-3.6301,-3.6385,-3.6585,-3.6829,-3.7127,-3.7393,-3.7613,-4.1128,0.0,-4.1198,-4.1325,0.0,-4.1785,-4.1927,-4.1953,-4.134,-4.0464,-3.9403,-3.9301,-3.9177,-3.9104,-3.898,-3.8907,-3.8782,-3.8782,-3.8782,-3.8782,-3.8782,-3.8782,-3.8782,-3.8782,-3.8782,-3.8782,-3.8686,-3.8627,-3.8501,-3.8404,-3.8329,-3.8202,-3.7976,-3.7863,-3.7749,-3.7366,-3.7289,-3.7596,-3.7505,-3.7481,-3.7443,-3.7481,-3.7363,-3.7125,0.0,0.0,0.0,0.0,0.0,0.0,0.0,0.0,0.0,0.0,0.0,-3.2868,-3.2618,-3.2277,-3.1875,-3.139,-3.0879,-3.0346,-3.0235,-3.0444,-3.1031,-3.0907,-3.0851,-3.0866,-3.0925,-3.0955,-3.0955,-3.1043,-3.1132,-3.119,-3.1205,-3.1234,-3.138,-3.1409,-3.1482,-3.1641,-3.1655,-3.1683,-3.1741,-3.187,-3.1912,-3.1996,-3.2137,-3.2274,-3.2492,-3.3011,-3.3503,-3.3822,-3.4075,-3.4275,-3.4472,-3.4635,-3.4732,-3.4804,-3.497,-3.5088,-3.5198,-3.5377,-3.5498,-3.5549,-3.5639,-3.5728,-3.5795,-3.5932,-3.6084,-3.617,-3.6339,-3.6527,-3.6676,-3.7011,-3.7391,-4.0674,-4.0816,-4.083,-4.0972,-4.1297,-4.1465,-4.1573,-4.1628,0.0,0.0,0.0,-3.9104,-3.9031,-3.901,-3.8833,-3.8708,-3.8649,-3.8649,-3.8598,-3.856,-3.8598,-3.8649,-3.8634,-3.8649,-3.8649,-3.8649,-3.8441,-3.824,-3.8089,-3.7915,-3.7739,-3.7548,-3.751,-3.7394,-3.7148,-3.6758,-3.6758,-3.707,-3.6954,-3.6915,-3.6915,-3.6802,-3.6508,-3.6003,-3.5237,-3.4556,-3.4066,-3.3415,-3.3094,-3.3094,-3.3094,-3.2988,-3.2824,-3.281,-3.2646,-3.2295,-3.1864,-3.1488,-3.1211,-3.0453,-2.9967,-2.9781,-2.9668,-2.9789,-3.0235,-3.0447,-3.0538,-3.0538,-3.0687,-3.0747,-3.0762,-3.0895,-3.1014,-3.1058,-3.1058,-3.1087,-3.1234,-3.1292,-3.1336,-3.1438,-3.1496,-3.1496,-3.1496,-3.167,-3.1756,-3.1756,-3.1898,-3.2066,-3.2413,-3.2931,-3.3398,-3.3694,-3.394,-3.4101,-3.425,-3.4448,-3.4635,-3.4707,-3.4875,-3.5041,-3.5128,-3.5308,-3.5423,-3.5446,-3.5526,-3.5616,-3.5706,-3.579,-3.5839,-3.5932,-3.611,-3.6259,-3.6318,-3.6609,-3.7007,-4.0126,-4.0126,-4.0126,-4.0386,-4.0801,-4.083,-4.0684,-4.0369,-4.069,-4.0111,-3.887,-3.887,-3.876,-3.859,-3.8567,-3.8366,-3.8043,-3.8043,-3.7915,0.0,-3.7967,-3.8043,-3.8005,-3.8043,-3.8043,-3.8005,-3.7815,-3.7725,-3.7687,-3.7649,-3.7534,-3.7341,-3.7187,-3.6889,-3.6536,-3.6312,-3.6192,-3.6272,-3.6391,-3.647,-3.6457,-3.597,-3.5651,-3.5526,-3.4323,-3.3629,-3.3482,-3.2709,-3.2259,-3.2273,-3.2273,-3.2178,-3.2059,-3.2073,-3.195,-3.1743,-3.164,-3.1359,-3.0837,-3.0793,-3.0526,-2.9797,-2.9636,-2.9772,-3.0066,-3.0235,-3.0357,-3.0342,-3.0493,-3.0642,-3.0642,-3.0672,-3.0732,-3.0821,-3.0836,-3.091,-3.1102,-3.1205,-3.1292,-3.1322,-3.1438,-3.1511,-3.1555,-3.1584,-3.1628,-3.1583,-3.1757,-3.1968,-3.2358,-3.2904,-3.3282,-3.344,-3.371,-3.3949,-3.4126,-3.425,-3.4423,-3.4683,-3.4732,-3.4851,-3.5058,-3.5135,-3.5222,-3.5314,-3.5406,-3.5514,-3.556,-3.5678,-3.5773,-3.5839,-3.5971,-3.6062,-3.6187,-3.6356,-3.6553,-3.9703,-3.9848,-3.9862,-4.0023,-4.0329,-4.0251,-4.005,-3.9762,-3.9638,-3.9317,-3.8841,-3.8686,-3.8501,-3.8329,-3.8231,-3.8005,-3.7754,-3.7739,-3.7701,-3.761,-3.7701,-3.7739,-3.7739,-3.7739,-3.7739,-3.7739,-3.7663,-3.7495,-3.7303,-3.7264,-3.7123,-3.6825,-3.6615,-3.6417,-3.6246,-3.5978,-3.5884,-3.5898,-3.5978,-3.5854,-3.554,-3.5174,-3.4671,-3.4044,-3.3284,-3.2752,-3.2455,-3.2048,-3.184,-3.1827,-3.184,-3.1803,-3.1743,-3.1757,-3.1633,-3.1471,-3.1143,-3.0778,-3.0392,-3.0375,-3.0277,-3.0018,-2.9797,-2.9807,-3.0126,-3.0159,-3.0249,-3.0296,-3.0387,-3.0463,-3.0598,-3.0612,-3.0612,-3.0687,-3.0702,-3.0762,-3.0925,-3.0969,-3.1058,-3.1176,-3.1292,-3.1529,-3.1901,-3.199,-3.2034,-3.2048,-3.1955,-3.1885,-3.2068,-3.2511,-3.2947,-3.324,-3.3477,-3.3684,-3.3908,-3.4084,-3.4275,-3.4431,-3.4594,-3.4732,-3.4875,-3.497,-3.5088,-3.5182,-3.5291,-3.5423,-3.5469,-3.556,-3.5633,-3.5689,-3.5817,-3.5927,-3.5993,-3.6148,-3.6447,-3.9407,-3.9598,-3.9598,-3.973,-3.9911,-3.983,-3.9616,-3.9318,-3.8825,-3.8568,-3.8508,-3.8366,-3.8217,-3.8052,-3.7877,-3.7701,-3.751,-3.7471,-3.7419,-3.7356,-3.7394,-3.738,-3.7419,-3.738,-3.7419,-3.738,-3.7341,-3.7148,-3.6889,-3.6861,-3.6693,-3.6351,-3.6126,-3.5978,-3.5992,-3.5804,-3.571,-3.571,-3.5669,-3.5412,-3.4966,-3.4551,-3.388,-3.2995,-3.2471,-3.2011,-3.1562,-3.1485,-3.1485,-3.1485,-3.1447,-3.1461,-3.1447,-3.1461,-3.141,-3.1196,-3.079,-3.049,-3.0367,-3.0107,-3.0094,-3.0429,-3.0093,-2.9972,-3.0228,-3.0351,-3.029,-3.0262,-3.0296,-3.0387,-3.0582,-3.0612,-3.0612,-3.0612,-3.0612,-3.0642,-3.0732,-3.0791,-3.0939,-3.1176,-3.1368,-3.1723,-3.2287,-3.2556,-3.2661,-3.2662,-3.242,-3.2193,-3.225,-3.2507,-3.2915,-3.3283,-3.337,-3.3388,-3.3694,-3.3873,-3.4025,-3.4201,-3.4423,-3.457,-3.4691,-3.4899,-3.4994,-3.5041,-3.5175,-3.5268,-3.5377,-3.5446,-3.5492,-3.5571,-3.5661,-3.5728,-3.5817,-3.5993,-3.6301,-3.9305,-3.9349,-3.9349,-3.9496,-3.9749,-3.9745,-3.9395,-3.8858,-3.8652,-3.8235,-3.7715,-3.7701,-3.7687,-3.7649,-3.7663,-3.7419,-3.707,-3.7056,-3.6889,-3.6589,-3.6719,-3.6783,-3.6783,-3.6783,-3.6783,-3.6783,-3.6654,-3.6549,-3.647,-3.6484,-3.6351,-3.6112,-3.5858,-3.5764,-3.5723,-3.571,-3.571,-3.5723,-3.5521,-3.5413,-3.5305,-3.4323,-3.3626,-3.326,-3.2044,-3.1413,-3.131,-3.1161,-3.1061,-3.1061,-3.1061,-3.1061,-3.1061,-3.1061,-3.1061,-3.1024,-3.0959,-3.1007,-3.1103,-3.0665,-3.0516,-3.0846,-3.0497,-3.0351,-3.0555,-3.0885,-3.0811,-3.0375,-3.0248,-3.0473,-3.0582,-3.067,-3.0743,-3.0786,-3.0743,-3.0612,-3.0715,-3.0732,-3.1055,-3.1671,-3.1851,-3.2193,-3.2799,-3.3056,-3.3211,-3.3364,-3.3215,-3.3141,-3.3261,-3.3381,-3.3545,-3.3807,-3.3603,-3.3264,-3.3398,-3.3477,-3.3694,-3.4025,-3.4126,-3.43,-3.4546,-3.4691,-3.478,-3.4923,-3.5018,-3.5111,-3.5175,-3.5245,-3.5377,-3.5452,-3.556,-3.5588,-3.5728,-3.5839,-3.6019,-3.9305,-3.9305,-3.9305,-3.9452,-3.9607,-3.8931,-3.8533,-3.8379,-3.7594,-3.7128,-3.6917,-3.6889,-3.7031,-3.7226,-3.7264,-3.7031,-3.6654,-3.6654,-3.6549,-3.6405,-3.651,-3.6536,-3.6549,-3.6496,-3.6536,-3.6549,-3.6431,-3.6325,-3.6192,-3.6058,-3.5924,-3.5858,-3.5764,-3.571,-3.571,-3.571,-3.5642,-3.5521,-3.544,-3.529,-3.4952,-3.3887,-3.3063,-3.2549,-3.1619,-3.1136,-3.1099,-3.1024,-3.1024,-3.1024,-3.1024,-3.1024,-3.1024,-3.1024,-3.1024,-3.1024,-3.1024,-3.1024,-3.1136,-3.1011,-3.1003,-3.1173,-3.0905,-3.0802,-3.0936,-3.0891,-3.0807,-3.0922,-3.1133,-3.1369,-3.1512,-3.1652,-3.1714,-3.1714,-3.1714,-3.17,-3.1729,-3.1745,-3.1953,-3.2186,-3.2341,-3.2654,-3.3275,-3.3564,-3.3722,-3.3806,-3.3629,-3.3467,-3.3561,-3.3653,-3.3744,-3.3849,-3.3673,-3.3617,-3.3591,-3.3434,-3.3556,-3.3726,-3.3949,-3.4201,-3.4349,-3.457,-3.4715,-3.4813,-3.4998,-3.5094,-3.5105,-3.5152,-3.5222,-3.5354,-3.5469,-3.556,-3.5661,-3.5751,-3.5861,-3.9305,-3.9305,-3.9305,-3.9394,-3.9502,-3.8493,-3.8073,-3.7979,-3.7055,-3.6557,-3.6419,-3.6405,-3.6536,-3.6772,-3.6797,-3.6654,-3.6351,-3.6312,-3.6272,-3.6232,-3.6192,-3.6218,-3.6232,-3.6192,-3.6178,-3.6178,-3.6192,-3.6112,-3.5992,-3.5723,-3.5642,-3.5588,-3.5548,-3.5548,-3.5562,-3.5548,-3.548,-3.5331,-3.5277,-3.5086,-3.4719,-3.3739,-3.2896,-3.2278,-3.1599,-3.1143,-3.1024,-3.1024,-3.1024,-3.1024,-3.1024,-3.1024,-3.1024,-3.1024,-3.1024,-3.1024,-3.1024,-3.1024,-3.1024,-3.1136,-3.1235,-3.1283,-3.1169,-3.1159,-3.1294,-3.1181,-3.1296,-3.1698,-3.2117,-3.2345,-3.2206,-3.2352,-3.2417,-3.2481,-3.2481,-3.2481,-3.2483,-3.2481,-3.2542,-3.273,-3.2856,-3.3185,-3.3805,-3.4112,-3.4242,-3.4297,-3.4021,-3.3726,-3.3913,-3.4068,-3.4161,-3.4163,-3.4181,-3.4089,-3.3986,-3.382,-3.3689,-3.398,-3.4366,-3.4565,-3.4607,-3.4978,-3.5268,-3.5663,-3.5489,-3.5372,-3.5452,-3.5424,-3.5238,-3.5272,-3.5354,-3.5469,-3.5549,-3.5639,-3.5706,-3.9305,-3.9305,-3.9305,-3.9305,-3.9282,-3.8831,-3.8329,-3.7838,-3.7373,-3.6943,-3.6434,-3.6365,-3.6325,-3.6192,-3.6351,-3.6325,-3.6126,-3.6112,-3.5978,-3.5804,-3.5764,-3.575,-3.571,-3.571,-3.5764,-3.5764,-3.575,-3.5764,-3.5683,-3.5521,-3.5399,-3.5399,-3.5249,-3.5154,-3.5154,-3.5154,-3.5127,-3.5113,-3.4962,-3.4839,-3.4703,-3.3971,-3.3301,-3.2712,-3.2084,-3.1522,-3.1065,-3.1024,-3.1024,-3.1024,-3.1024,-3.1024,-3.1024,-3.1024,-3.1024,-3.1024,-3.1024,-3.1024,-3.1024,-3.1024,-3.1099,-3.1272,-3.1294,-3.1442,-3.1719,-3.1906,-3.2104,-3.2566,-3.2849,-3.2885,-3.2391,-3.2421,-3.2479,-3.2593,-3.2568,-3.2582,-3.2568,-3.2698,-3.2832,-3.3267,-3.346,-3.3744,-3.4489,-3.4654,-3.4666,-3.4751,-3.4802,-3.4794,-3.4899,-3.499,-3.5073,-3.5098,-3.493,-3.4606,-3.4434,-3.4178,-3.4467,-3.4701,-3.4778,-3.5284,-3.5797,-3.6184,-3.6356,-3.6514,-3.6461,-3.6315,-3.6059,-3.5801,-3.5559,-3.5438,-3.5288,-3.5337,-3.5435,-3.5475,-3.5543,-3.9305,-3.9305,-3.9305,-3.9305,-3.9237,-3.8755,-3.8374,-3.8118,-3.7248,-3.6757,-3.6497,-3.6142,-3.5884,-3.5844,-3.5924,-3.5924,-3.5858,-3.5844,-3.5804,-3.571,-3.571,-3.571,-3.571,-3.571,-3.5629,-3.5521,-3.548,-3.544,-3.5318,-3.5236,-3.5195,-3.5195,-3.5154,-3.5072,-3.5072,-3.5072,-3.5044,-3.4934,-3.4839,-3.4714,-3.4564,-3.4256,-3.3849,-3.3247,-3.2293,-3.1536,-3.1037,-3.1024,-3.1024,-3.1024,-3.1024,-3.1024,-3.1024,-3.1024,-3.1024,-3.1024,-3.1024,-3.1024,-3.1024,-3.1024,-3.1024,-3.1099,-3.1235,-3.1397,-3.1669,-3.189,-3.2132,-3.2467,-3.2739,-3.2828,-3.3027,-3.3182,-3.3451,-3.3518,-3.3618,-3.3641,-3.3699,-3.3699,-3.3833,-3.4037,-3.408,-3.423,-3.438,-3.4515,-3.4582,-3.4716,-3.4798,-3.485,-3.4983,-3.5115,-3.5228,-3.5311,-3.5262,-3.52,-3.5258,-3.4607,-3.4415,-3.4661,-3.4888,-3.5187,-3.5617,-3.6157,-3.6362,-3.6619,-3.6836,-3.6988,-3.6603,-3.61,-3.5834,-3.5407,-3.5252,-3.5222,-3.5337,-3.536,-3.5429,-3.9305,-3.9305,-3.9305,-3.9305,-3.9264,-3.8884,-3.86,-3.8342,-3.7555,-3.6971,-3.6592,-3.6157,-3.59,-3.5737,-3.571,-3.571,-3.571,-3.571,-3.571,-3.571,-3.571,-3.5669,-3.5588,-3.5588,-3.5521,-3.5331,-3.5318,-3.5236,-3.5113,-3.5044,-3.5003,-3.5003,-3.4908,-3.4867,-3.4867,-3.4853,-3.4784,-3.4673,-3.466,-3.4577,-3.4397,-3.4397,-3.4136,-3.3574,-3.2816,-3.1993,-3.13,-3.1091,-3.1024,-3.1024,-3.1024,-3.1024,-3.1024,-3.1024,-3.1024,-3.1024,-3.1024,-3.1024,-3.1024,-3.1024,-3.1024,-3.1024,-3.1136,-3.1286,-3.1485,-3.1706,-3.1963,-3.2264,-3.2489,-3.2739,-3.3072,-3.3514,-3.3922,-3.4059,-3.423,-3.4346,-3.438,-3.4366,-3.4351,-3.437,-3.4337,-3.4399,-3.438,-3.4414,-3.4481,-3.4597,-3.4597,-3.465,-3.4817,-3.4949,-3.5049,-3.5115,-3.5231,-3.535,-3.5362,-3.498,-3.4957,-3.5185,-3.5347,-3.5502,-3.5694,-3.6194,-3.6559,-3.6788,-3.6988,-3.7206,-3.7021,-3.6472,-3.5959,-3.5442,-3.5174,-3.5081,-3.5175,-3.5245,-3.5314,-3.9305,-3.9305,-3.9305,-3.9305,-3.9305,-3.9251,-3.8952,-3.8505,-3.8312,-3.7648,-3.6848,-3.6591,-3.6265,-3.5873,-3.5859,-3.5778,-3.5805,-3.5846,-3.5778,-3.5723,-3.5669,-3.5588,-3.544,-3.5399,-3.529,-3.5113,-3.5072,-3.5072,-3.5044,-3.488,-3.4797,-3.4743,-3.4564,-3.4481,-3.4439,-3.4439,-3.4439,-3.4439,-3.4439,-3.4397,-3.4397,-3.4397,-3.4175,-3.3705,-3.3522,-3.296,-3.1889,-3.1352,-3.1039,-3.1024,-3.1024,-3.1024,-3.1024,-3.1024,-3.1024,-3.1024,-3.1024,-3.1024,-3.1024,-3.1024,-3.1024,-3.1024,-3.1024,-3.1099,-3.131,-3.1508,-3.1743,-3.2132,-3.2322,-3.2489,-3.2753,-3.3086,-3.3507,-3.3991,-3.4059,-3.4176,-3.4312,-3.438,-3.438,-3.438,-3.438,-3.438,-3.438,-3.438,-3.4414,-3.4448,-3.4448,-3.4515,-3.465,-3.4716,-3.4798,-3.4916,-3.5067,-3.5198,-3.5279,-3.5362,-3.5657,-3.5947,-3.606,-3.6199,-3.6331,-3.6715,-3.7001,-3.7262,-3.7672,-3.7851,-3.74,-3.6856,-3.6241,-3.576,-3.5404,-3.4996,-3.5058,-3.5128,-3.5175,-3.9305,-3.9305,-3.9305,-3.9305,-3.9305,-3.9305,-3.9183,-3.8935,-3.8438,-3.7976,-3.7569,-3.6981,-3.6643,-3.6523,-3.644,-3.6469,-3.644,-3.6456,-3.6192,-3.5778,-3.5575,-3.548,-3.5426,-3.5263,-3.5072,-3.488,-3.4701,-3.4618,-3.4645,-3.4603,-3.4535,-3.4494,-3.4452,-3.4397,-3.4397,-3.4397,-3.4397,-3.4397,-3.4397,-3.4397,-3.4397,-3.4397,-3.4306,-3.4136,-3.3796,-3.3391,-3.3025,-3.211,-3.1405,-3.1026,-3.1024,-3.1024,-3.1024,-3.1024,-3.1024,-3.1024,-3.1024,-3.1024,-3.1024,-3.1024,-3.1024,-3.1024,-3.1024,-3.1099,-3.1272,-3.1347,-3.1582,-3.195,-3.2169,-3.2336,-3.2489,-3.2704,-3.3072,-3.3521,-3.3764,-3.4005,-3.4162,-3.4312,-3.438,-3.438,-3.438,-3.438,-3.438,-3.438,-3.438,-3.438,-3.438,-3.4448,-3.4481,-3.4616,-3.4698,-3.4798,-3.4916,-3.5001,-3.5049,-3.5148,-3.5394,-3.5703,-3.5973,-3.6226,-3.6538,-3.686,-3.7222,-3.7653,-3.8062,-3.816,-3.772,-3.7203,-3.6609,-3.5935,-3.5423,-3.5173,-3.503,-3.4994,-3.5041,-3.9305,-3.9305,-3.9305,-3.9305,-3.9305,-3.9305,-3.9261,-3.9104,-3.8634,-3.8219,-3.7889,-3.738,-3.703,-3.6857,-3.6817,-3.6817,-3.6817,-3.6817,-3.6559,-3.6125,-3.5961,-3.5892,-3.5795,-3.5586,-3.5418,-3.5305,-3.5136,-3.5025,-3.5038,-3.5025,-3.4933,-3.4776,-3.4737,-3.4607,-3.4437,-3.4397,-3.4397,-3.4397,-3.4397,-3.4397,-3.4397,-3.4397,-3.4397,-3.4345,-3.4058,-3.3809,-3.3561,-3.2659,-3.185,-3.1378,-3.1117,-3.1024,-3.1024,-3.1024,-3.1024,-3.1024,-3.1024,-3.1024,-3.1024,-3.1024,-3.1024,-3.1024,-3.1024,-3.1061,-3.1161,-3.1235,-3.1421,-3.1656,-3.1913,-3.2096,-3.2228,-3.2453,-3.2704,-3.2945,-3.3382,-3.3744,-3.3971,-3.4176,-3.4278,-3.4312,-3.4346,-3.438,-3.438,-3.438,-3.438,-3.438,-3.438,-3.438,-3.4414,-3.4515,-3.4563,-3.4631,-3.4716,-3.4817,-3.485,-3.4935,-3.5067,-3.5314,-3.5574,-3.5863,-3.6133,-3.6507,-3.6906,-3.7417,-3.7889,-3.8189,-3.7871,-3.7492,-3.6964,-3.6237,-3.5523,-3.5234,-3.5027,-3.4861,-3.4875,-3.9305,-3.9305,-3.9305,-3.9305,-3.9305,-3.9261,-3.9145,-3.8953,-3.8778,-3.8376,-3.7825,-3.767,-3.7422,-3.697,-3.6993,-3.698,-3.6864,-3.6927,-3.6953,-3.6864,-3.6824,-3.6684,-3.63,-3.6061,-3.5974,-3.5983,-3.5979,-3.6005,-3.59,-3.5913,-3.5835,-3.5378,-3.5312,-3.5038,-3.4646,-3.4476,-3.4476,-3.441,-3.4397,-3.4397,-3.4397,-3.4397,-3.4397,-3.4397,-3.4345,-3.4136,-3.3692,-3.2999,-3.2346,-3.1745,-3.1222,-3.1024,-3.1024,-3.1024,-3.1024,-3.1024,-3.1024,-3.1024,-3.1024,-3.1024,-3.1024,-3.1024,-3.1024,-3.1024,-3.1061,-3.1161,-3.1272,-3.1397,-3.1656,-3.1853,-3.1913,-3.2155,-3.2359,-3.2503,-3.3016,-3.3501,-3.3813,-3.3971,-3.4108,-3.4162,-3.4264,-3.438,-3.438,-3.438,-3.438,-3.438,-3.438,-3.438,-3.4414,-3.4414,-3.4414,-3.4481,-3.4582,-3.4616,-3.465,-3.4783,-3.4916,-3.5001,-3.5264,-3.5509,-3.5831,-3.6211,-3.66,-3.7104,-3.7535,-3.7886,-3.7947,-3.7473,-3.7021,-3.6388,-3.5796,-3.5357,-3.4988,-3.4758,-3.4715,-3.9305,-3.9305,-3.9305,-3.9305,-3.9261,-3.9114,-3.8953,-3.8863,-3.8504,-3.8289,-3.8034,-3.7924,-3.7761,-3.761,-3.7571,-3.761,-3.759,-3.7558,-3.761,-3.761,-3.761,-3.7014,-3.6354,-3.6153,-3.6136,-3.6162,-3.6227,-3.6109,-3.6109,-3.6201,-3.607,-3.59,-3.5887,-3.5626,-3.5142,-3.5038,-3.4803,-3.445,-3.4397,-3.4397,-3.4397,-3.4397,-3.4397,-3.4397,-3.4397,-3.4319,-3.4084,-3.3221,-3.2202,-3.13,-3.1091,-3.1024,-3.1024,-3.1024,-3.1024,-3.1024,-3.1024,-3.1024,-3.1024,-3.1024,-3.1024,-3.1024,-3.1024,-3.1024,-3.1024,-3.1061,-3.1123,-3.1272,-3.1421,-3.1545,-3.1669,-3.189,-3.2119,-3.2417,-3.2874,-3.3276,-3.3466,-3.3744,-3.3985,-3.4094,-3.4128,-3.4244,-3.4346,-3.438,-3.438,-3.438,-3.438,-3.438,-3.438,-3.438,-3.438,-3.438,-3.4448,-3.4448,-3.4515,-3.4664,-3.4765,-3.4783,-3.4983,-3.5198,-3.5557,-3.5973,-3.632,-3.6693,-3.7028,-3.7371,-3.7401,-3.7176,-3.6777,-3.6465,-3.5837,-3.5291,-3.4798,-3.4481,-3.4586,-3.9305,-3.9305,-3.9305,-3.9247,-3.91,-3.8953,-3.8774,-3.8594,-3.8336,-3.8122,-3.8044,-3.7979,-3.79,-3.79,-3.7887,-3.7887,-3.79,-3.79,-3.7887,-3.7887,-3.7861,-3.7482,-3.6985,-3.6854,-3.6854,-3.6854,-3.6854,-3.6881,-3.6894,-3.6854,-3.6737,-3.6528,-3.6488,-3.6201,-3.5639,-3.5378,-3.5155,-3.4789,-3.4554,-3.4397,-3.4397,-3.4397,-3.4397,-3.4397,-3.4384,-3.4332,-3.3992,-3.3404,-3.2529,-3.1588,-3.1143,-3.1024,-3.1024,-3.1024,-3.1024,-3.1024,-3.1024,-3.1024,-3.1024,-3.1024,-3.1024,-3.1024,-3.1024,-3.1024,-3.1024,-3.1024,-3.1061,-3.1161,-3.1235,-3.1347,-3.1471,-3.1669,-3.189,-3.2169,-3.2602,-3.2888,-3.3016,-3.3382,-3.364,-3.3764,-3.3937,-3.4074,-3.4278,-3.4278,-3.4312,-3.438,-3.438,-3.438,-3.438,-3.438,-3.438,-3.438,-3.438,-3.4414,-3.4414,-3.453,-3.4597,-3.4616,-3.4716,-3.4935,-3.5311,-3.5733,-3.6005,-3.6274,-3.6538,-3.6768,-3.6899,-3.6993,-3.6893,-3.6454,-3.583,-3.5255,-3.482,-3.4379,-3.4496,-3.9305,-3.9305,-3.9305,-3.9145,-3.8908,-3.8863,-3.8607,-3.8245,-3.8167,-3.8044,-3.7946,-3.79,-3.79,-3.79,-3.79,-3.79,-3.79,-3.79,-3.79,-3.79,-3.7854,-3.7678,-3.7625,-3.7665,-3.7691,-3.7717,-3.7861,-3.7795,-3.7691,-3.7769,-3.7573,-3.7207,-3.7103,-3.6763,-3.6266,-3.5783,-3.5495,-3.5312,-3.4972,-3.4711,-3.4633,-3.4593,-3.4554,-3.4397,-3.4397,-3.4214,-3.3888,-3.3548,-3.3064,-3.2045,-3.1431,-3.1117,-3.1052,-3.1024,-3.1024,-3.1024,-3.1024,-3.1024,-3.1024,-3.1024,-3.1024,-3.1024,-3.1024,-3.1024,-3.1024,-3.1024,-3.1024,-3.1061,-3.1161,-3.1235,-3.1347,-3.1485,-3.1669,-3.189,-3.2073,-3.2314,-3.261,-3.298,-3.3241,-3.3276,-3.3605,-3.3882,-3.4005,-3.4108,-3.4162,-3.4278,-3.4346,-3.438,-3.438,-3.438,-3.438,-3.438,-3.438,-3.438,-3.4414,-3.4414,-3.4448,-3.4448,-3.4549,-3.475,-3.5096,-3.5442,-3.5686,-3.5958,-3.6164,-3.6445,-3.6692,-3.6747,-3.6768,-3.6458,-3.5811,-3.5354,-3.4937,-3.4507,-3.442,-3.9305,-3.9305,-3.9305,-3.9158,-3.8908,-3.8711,-3.8485,-3.8167,-3.8024,-3.7933,-3.79,-3.79,-3.79,-3.79,-3.7854,-3.79,-3.7854,-3.7854,-3.79,-3.79,-3.7657,-3.7611,-3.7657,-3.7749,-3.79,-3.7854,-3.79,-3.79,-3.7854,-3.7841,-3.7848,-3.7671,-3.7495,-3.7416,-3.681,-3.6562,-3.6371,-3.6005,-3.5757,-3.5456,-3.5129,-3.5038,-3.4829,-3.4476,-3.4397,-3.4358,-3.4175,-3.3822,-3.347,-3.3038,-3.2267,-3.1561,-3.1156,-3.1039,-3.1063,-3.1024,-3.1024,-3.1024,-3.1024,-3.1024,-3.1024,-3.1024,-3.1024,-3.1024,-3.1024,-3.1024,-3.1024,-3.1024,-3.1024,-3.1123,-3.1235,-3.131,-3.1471,-3.1633,-3.1817,-3.2,-3.2132,-3.2538,-3.286,-3.3072,-3.3262,-3.3486,-3.3695,-3.3971,-3.4059,-3.4162,-3.4264,-3.438,-3.438,-3.438,-3.438,-3.438,-3.438,-3.438,-3.438,-3.438,-3.438,-3.438,-3.4448,-3.4515,-3.4865,-3.5129,-3.5377,-3.5557,-3.5735,-3.6006,-3.6321,-3.6399,-3.6384,-3.61,-3.5855,-3.5401,-3.4984,-3.4605,-3.4281,-3.9305,-3.9305,-3.9305,-3.9083,-3.8756,-3.8647,-3.8376,-3.8103,-3.7946,-3.79,-3.7854,-3.7808,-3.7703,-3.7703,-3.7611,-3.7505,-3.7505,-3.7505,-3.7505,-3.7505,-3.7353,-3.7307,-3.7307,-3.74,-3.7505,-3.7505,-3.7505,-3.7505,-3.7518,-3.7564,-3.7505,-3.7505,-3.7551,-3.735,-3.7001,-3.6839,-3.6547,-3.6337,-3.6064,-3.5835,-3.5717,-3.5404,-3.5012,-3.4528,-3.4397,-3.4397,-3.4345,-3.4149,-3.3862,-3.3509,-3.2986,-3.2241,-3.1548,-3.1365,-3.1274,-3.1063,-3.1024,-3.1024,-3.1024,-3.1024,-3.1024,-3.1024,-3.1024,-3.1024,-3.1024,-3.1024,-3.1024,-3.1024,-3.1024,-3.1048,-3.1123,-3.1161,-3.1248,-3.1434,-3.1545,-3.1669,-3.1803,-3.2214,-3.2596,-3.2739,-3.2881,-3.3157,-3.3403,-3.3646,-3.3868,-3.3951,-3.4128,-3.423,-3.4264,-3.4298,-3.438,-3.438,-3.438,-3.438,-3.438,-3.438,-3.438,-3.438,-3.4414,-3.4448,-3.4582,-3.4817,-3.5016,-3.5198,-3.5427,-3.5604,-3.5878,-3.5943,-3.6071,-3.6045,-3.5827,-3.5419,-3.5034,-3.4638,-3.4317,-3.9305,-3.9305,-3.9247,-3.8993,-3.8647,-3.8557,-3.8298,-3.7946,-3.79,-3.7854,-3.7808,-3.7611,-3.7505,-3.7413,-3.7214,-3.7108,-3.7121,-3.7168,-3.7214,-3.7214,-3.7095,-3.7062,-3.7062,-3.7028,-3.7015,-3.7015,-3.7108,-3.7168,-3.7168,-3.7108,-3.7214,-3.7108,-3.7108,-3.7163,-3.7014,-3.6731,-3.6579,-3.6612,-3.6328,-3.6095,-3.6077,-3.5674,-3.5193,-3.4569,-3.4256,-3.423,-3.423,-3.4152,-3.4051,-3.3716,-3.3677,-3.309,-3.2385,-3.1928,-3.168,-3.1196,-3.1196,-3.1117,-3.105,-3.1024,-3.1024,-3.1024,-3.1024,-3.1024,-3.1024,-3.1024,-3.1024,-3.1024,-3.1024,-3.1024,-3.1024,-3.1024,-3.1099,-3.1235,-3.1272,-3.1397,-3.1582,-3.2009,-3.2214,-3.2359,-3.2561,-3.2824,-3.3051,-3.3276,-3.3536,-3.3758,-3.3937,-3.4094,-3.4113,-3.4182,-3.4264,-3.438,-3.438,-3.438,-3.438,-3.438,-3.438,-3.438,-3.438,-3.4414,-3.4414,-3.4549,-3.4783,-3.4916,-3.51,-3.5311,-3.5474,-3.5589,-3.5721,-3.5915,-3.5828,-3.5477,-3.5059,-3.4649,-3.4418,-3.9305,-3.9305,-3.9056,-3.8787,-3.8589,-3.8349,-3.8148,-3.7946,-3.79,-3.7762,-3.7598,-3.7518,-3.7353,-3.7214,-3.7108,-3.7108,-3.7062,-3.7015,-3.7062,-3.7015,-3.6862,-3.6781,-3.6769,-3.67,-3.6546,-3.664,-3.6828,-3.7015,-3.7062,-3.7108,-3.7015,-3.7062,-3.7074,-3.7074,-3.7049,-3.6993,-3.6844,-3.6898,-3.6744,-3.6559,-3.6341,-3.6116,-3.5548,-3.4641,-3.4178,-3.3959,-3.3839,-3.3839,-3.3898,-3.4001,-3.403,-3.3736,-3.3245,-3.2789,-3.2293,-3.181,-3.1628,-3.1523,-3.1185,-3.1052,-3.1013,-3.1024,-3.0986,-3.1024,-3.1024,-3.1024,-3.1024,-3.1024,-3.1024,-3.1024,-3.1024,-3.1024,-3.1024,-3.1099,-3.1198,-3.1272,-3.1384,-3.1582,-3.184,-3.1973,-3.2214,-3.2489,-3.2753,-3.2945,-3.3171,-3.3431,-3.3675,-3.3819,-3.3922,-3.4059,-3.4196,-3.4312,-3.438,-3.438,-3.438,-3.438,-3.438,-3.438,-3.438,-3.438,-3.4414,-3.4414,-3.4549,-3.4716,-3.4835,-3.5001,-3.5133,-3.5279,-3.5394,-3.5544,-3.5539,-3.5516,-3.5217,-3.488,-3.4738,-3.9305,-3.9305,-3.9011,-3.8787,-3.8557,-3.8304,-3.8103,-3.7946,-3.79,-3.7749,-3.7518,-3.7366,-3.7155,-3.6922,-3.6781,-3.6734,-3.6747,-3.6734,-3.6734,-3.6687,-3.664,-3.6534,-3.6534,-3.6452,-3.6417,-3.6452,-3.664,-3.6781,-3.6734,-3.6734,-3.6734,-3.6734,-3.6747,-3.6734,-3.6734,-3.6722,-3.6828,-3.6862,-3.6896,-3.6841,-3.6673,-3.6468,-3.5686,-3.484,-3.4297,-3.4046,-3.3738,-3.3713,-3.3755,-3.3839,-3.3894,-3.3782,-3.3607,-3.3338,-3.2887,-3.2292,-3.2097,-3.1954,-3.1565,-3.1371,-3.1266,-3.1265,-3.1133,-3.0999,-3.1024,-3.1024,-3.1039,-3.1013,-3.1024,-3.1024,-3.1024,-3.1026,-3.1024,-3.1024,-3.1125,-3.1176,-3.1224,-3.1349,-3.1511,-3.1673,-3.1913,-3.2191,-3.2453,-3.2682,-3.2838,-3.31,-3.3347,-3.3556,-3.3681,-3.3854,-3.3991,-3.4162,-3.4278,-3.4346,-3.438,-3.438,-3.438,-3.438,-3.438,-3.438,-3.4414,-3.4414,-3.4414,-3.4515,-3.465,-3.4769,-3.4868,-3.4983,-3.5082,-3.5195,-3.5257,-3.5284,-3.5281,-3.5166,-3.5003,-3.9247,-3.9203,-3.8966,-3.8711,-3.8512,-3.8258,-3.807,-3.7946,-3.79,-3.7703,-3.74,-3.7214,-3.6909,-3.6675,-3.6499,-3.6417,-3.6417,-3.6417,-3.6452,-3.6452,-3.6465,-3.6405,-3.6405,-3.6417,-3.6417,-3.6417,-3.6465,-3.6417,-3.6465,-3.6452,-3.6417,-3.6465,-3.6417,-3.6417,-3.6465,-3.6499,-3.6534,-3.6581,-3.6628,-3.6769,-3.6794,-3.6394,-3.5756,-3.4849,-3.4594,-3.4181,-3.3793,-3.3577,-3.3569,-3.3641,-3.3628,-3.367,-3.3713,-3.37,-3.3332,-3.2735,-3.2571,-3.2322,-3.2012,-3.1755,-3.159,-3.1616,-3.137,-3.1265,-3.1239,-3.1318,-3.1252,-3.1212,-3.1226,-3.1329,-3.1394,-3.1302,-3.1354,-3.1418,-3.1469,-3.139,-3.1468,-3.153,-3.1538,-3.1673,-3.1726,-3.193,-3.2223,-3.2395,-3.2552,-3.2717,-3.3002,-3.3192,-3.3368,-3.3591,-3.3764,-3.3991,-3.4162,-3.4264,-3.4312,-3.438,-3.438,-3.438,-3.438,-3.438,-3.438,-3.4414,-3.4414,-3.4448,-3.4515,-3.4616,-3.4683,-3.475,-3.485,-3.4983,-3.5034,-3.5124,-3.5203,-3.5197,-3.5098,-3.9158,-3.8953,-3.8711,-3.8498,-3.8258,-3.8057,-3.7946,-3.79,-3.79,-3.7611,-3.7214,-3.7108,-3.6875,-3.6546,-3.6417,-3.6417,-3.6417,-3.6417,-3.6417,-3.6417,-3.6417,-3.6417,-3.6417,-3.6417,-3.6417,-3.6417,-3.6417,-3.6417,-3.6417,-3.6417,-3.6417,-3.6417,-3.6417,-3.6417,-3.6417,-3.6417,-3.6405,-3.6439,-3.6439,-3.6452,-3.6424,-3.5982,-3.5609,-3.5193,-3.4564,-3.4004,-3.382,-3.3492,-3.3295,-3.3428,-3.3441,-3.3513,-3.367,-3.3713,-3.3573,-3.3305,-3.3014,-3.2598,-3.2171,-3.1994,-3.1917,-3.1944,-3.1845,-3.1869,-3.1794,-3.1769,-3.1781,-3.1882,-3.1857,-3.1847,-3.1966,-3.2135,-3.2306,-3.2293,-3.2202,-3.2293,-3.2306,-3.1914,-3.1911,-3.1882,-3.202,-3.1979,-3.2055,-3.2191,-3.2314,-3.2431,-3.2596,-3.2803,-3.3002,-3.3262,-3.3536,-3.3764,-3.3971,-3.4074,-3.4176,-3.4244,-3.4278,-3.4312,-3.4346,-3.4346,-3.4346,-3.4346,-3.438,-3.4414,-3.4481,-3.4481,-3.4549,-3.4616,-3.4683,-3.4783,-3.485,-3.5016,-3.5198,-3.5177,-3.5141,-3.8997,-3.8877,-3.853,-3.8317,-3.8167,-3.7965,-3.79,-3.79,-3.79,-3.7703,-3.7366,-3.7168,-3.6828,-3.6465,-3.6417,-3.6417,-3.6417,-3.6417,-3.6417,-3.6417,-3.6417,-3.6417,-3.6417,-3.6417,-3.6417,-3.6417,-3.6417,-3.6417,-3.6417,-3.6417,-3.6417,-3.6417,-3.6417,-3.6417,-3.6417,-3.6417,-3.6417,-3.6417,-3.6417,-3.6417,-3.6355,-3.6132,-3.5868,-3.5495,-3.4731,-3.4286,-3.3859,-3.3382,-3.3136,-3.324,-3.324,-3.3283,-3.3356,-3.3356,-3.3313,-3.3245,-3.311,-3.29,-3.263,-3.2425,-3.2326,-3.2227,-3.2156,-3.1996,-3.2007,-3.2058,-3.2058,-3.1994,-3.1994,-3.2072,-3.2179,-3.218,-3.234,-3.2473,-3.2682,-3.275,-3.275,-3.2568,-3.2332,-3.228,-3.2239,-3.2246,-3.2171,-3.2081,-3.2186,-3.2266,-3.2372,-3.2527,-3.272,-3.2931,-3.3192,-3.3452,-3.3675,-3.3848,-3.3951,-3.402,-3.4054,-3.4088,-3.4162,-3.4196,-3.423,-3.4278,-3.4312,-3.438,-3.4414,-3.4414,-3.4414,-3.4448,-3.4549,-3.4616,-3.4683,-3.4817,-3.4997,-3.5166,-3.5192,-3.8742,-3.8684,-3.8336,-3.8167,-3.8135,-3.7992,-3.79,-3.79,-3.79,-3.7749,-3.7459,-3.7155,-3.6734,-3.6452,-3.6417,-3.6417,-3.6417,-3.6417,-3.6417,-3.6417,-3.6417,-3.6417,-3.6417,-3.6417,-3.6417,-3.6417,-3.6417,-3.6417,-3.6417,-3.6417,-3.6417,-3.6417,-3.6417,-3.6417,-3.6417,-3.6417,-3.6417,-3.6417,-3.6417,-3.6417,-3.6405,-3.6405,-3.6119,-3.573,-3.5182,-3.463,-3.411,-3.3596,-3.3332,-3.3124,-3.3124,-3.3167,-3.3167,-3.3167,-3.3167,-3.3111,-3.3079,-3.3079,-3.294,-3.2824,-3.2689,-3.2566,-3.2498,-3.239,-3.2339,-3.2266,-3.2278,-3.2364,-3.2352,-3.2355,-3.2347,-3.2411,-3.2611,-3.2813,-3.2868,-3.2927,-3.2917,-3.2813,-3.2815,-3.2843,-3.2765,-3.2633,-3.2487,-3.2155,-3.2108,-3.2115,-3.2185,-3.2293,-3.2535,-3.2868,-3.3057,-3.3378,-3.3333,-3.3543,-3.3668,-3.3772,-3.3793,-3.3848,-3.3937,-3.4025,-3.4074,-3.4142,-3.423,-3.4312,-3.4346,-3.4414,-3.4414,-3.4414,-3.4414,-3.4481,-3.4549,-3.4631,-3.4765,-3.4983,-3.5166,-3.8258,-3.8245,-3.82,-3.8089,-3.7946,-3.79,-3.79,-3.79,-3.79,-3.7749,-3.7459,-3.7015,-3.6675,-3.6452,-3.6417,-3.6417,-3.6417,-3.6417,-3.6417,-3.6417,-3.6417,-3.6417,-3.6417,-3.6417,-3.6417,-3.6417,-3.6417,-3.6417,-3.6417,-3.6417,-3.6417,-3.6417,-3.6417,-3.6417,-3.6417,-3.6417,-3.6417,-3.6417,-3.6417,-3.6417,-3.6417,-3.6417,-3.6355,-3.6182,-3.5755,-3.5182,-3.4675,-3.406,-3.352,-3.3162,-3.3124,-3.3124,-3.3124,-3.3124,-3.3124,-3.3124,-3.3124,-3.3124,-3.3061,-3.3048,-3.3048,-3.3023,-3.2965,-3.2887,-3.2836,-3.294,-3.3003,-3.2895,-3.2798,-3.2929,-3.309,-3.3289,-3.3119,-3.3181,-3.3216,-3.3366,-3.3333,-3.3206,-3.3251,-3.3336,-3.33,-3.3182,-3.3104,-3.283,-3.2501,-3.2524,-3.26,-3.2751,-3.2865,-3.3138,-3.3162,-3.3248,-3.3129,-3.3176,-3.3361,-3.3403,-3.3417,-3.3556,-3.3695,-3.3764,-3.3848,-3.3971,-3.4142,-3.4162,-3.4196,-3.4312,-3.438,-3.438,-3.438,-3.438,-3.4448,-3.453,-3.4698,-3.4883,-3.5082,-3.8135,-3.8024,-3.8011,-3.7979,-3.79,-3.79,-3.79,-3.79,-3.79,-3.7762,-3.7459,-3.7121,-3.6828,-3.6581,-3.6465,-3.6417,-3.6417,-3.6417,-3.6417,-3.6417,-3.6417,-3.6417,-3.6417,-3.6417,-3.6417,-3.6417,-3.6417,-3.6417,-3.6417,-3.6417,-3.6417,-3.6417,-3.6417,-3.6417,-3.6417,-3.6417,-3.6417,-3.6417,-3.6417,-3.6417,-3.6417,-3.6417,-3.6417,-3.6367,-3.583,-3.5232,-3.468,-3.4186,-3.3633,-3.3244,-3.3162,-3.3124,-3.3124,-3.3124,-3.3124,-3.3124,-3.3124,-3.3124,-3.3124,-3.3124,-3.3124,-3.3124,-3.3111,-3.3124,-3.3124,-3.3124,-3.3124,-3.3099,-3.3124,-3.3154,-3.3185,-3.3215,-3.3194,-3.3416,-3.3556,-3.3641,-3.3636,-3.3476,-3.3524,-3.356,-3.3708,-3.3708,-3.3656,-3.3578,-3.3247,-3.2949,-3.3067,-3.3158,-3.3237,-3.3313,-3.3319,-3.3282,-3.3172,-3.3157,-3.3297,-3.3243,-3.3128,-3.3269,-3.3438,-3.3452,-3.3521,-3.3848,-3.3985,-3.404,-3.4059,-3.4176,-3.4244,-3.4346,-3.438,-3.438,-3.4414,-3.4481,-3.4664,-3.4798,-3.4949,-3.8011,-3.79,-3.79,-3.79,-3.79,-3.79,-3.79,-3.79,-3.79,-3.7749,-3.7505,-3.7201,-3.6956,-3.6709,-3.6499,-3.6417,-3.6417,-3.6417,-3.6417,-3.6417,-3.6417,-3.6417,-3.6417,-3.6417,-3.6417,-3.6417,-3.6417,-3.6417,-3.6417,-3.6417,-3.6417,-3.6417,-3.6417,-3.6417,-3.6417,-3.6417,-3.6417,-3.6417,-3.6417,-3.6417,-3.6417,-3.6417,-3.6417,-3.6392,-3.5994,-3.5545,-3.5006,-3.448,-3.396,-3.3495,-3.3262,-3.3136,-3.3124,-3.3124,-3.3124,-3.3124,-3.3124,-3.3124,-3.3124,-3.3124,-3.3124,-3.3124,-3.3124,-3.3124,-3.3124,-3.3124,-3.3124,-3.3124,-3.3124,-3.3124,-3.3124,-3.3111,-3.3154,-3.3313,-3.3313,-3.3398,-3.3526,-3.3513,-3.3665,-3.3766,-3.3846,-3.3837,-3.3798,-3.3708,-3.3542,-3.3277,-3.3344,-3.3414,-3.339,-3.3448,-3.341,-3.3394,-3.3306,-3.332,-3.3346,-3.3151,-3.2969,-3.3099,-3.3201,-3.3057,-3.3157,-3.3486,-3.3709,-3.3695,-3.3799,-3.3971,-3.4108,-3.4176,-3.4278,-3.438,-3.4414,-3.4448,-3.4515,-3.4698,-3.4798,-3.79,-3.79,-3.79,-3.79,-3.79,-3.79,-3.79,-3.79,-3.79,-3.7749,-3.7505,-3.7248,-3.7015,-3.6734,-3.6546,-3.6465,-3.6417,-3.6417,-3.6417,-3.6417,-3.6417,-3.6417,-3.6417,-3.6417,-3.6417,-3.6417,-3.6417,-3.6417,-3.6417,-3.6417,-3.6417,-3.6417,-3.6417,-3.6417,-3.6417,-3.6417,-3.6417,-3.6417,-3.6417,-3.6417,-3.6417,-3.6417,-3.6417,-3.638,-3.6317,-3.5918,-3.5332,-3.4931,-3.4399,-3.3796,-3.3395,-3.3206,-3.3093,-3.3124,-3.3124,-3.3124,-3.3124,-3.3124,-3.3124,-3.3124,-3.3124,-3.3124,-3.3124,-3.3124,-3.3124,-3.3124,-3.3124,-3.3124,-3.3124,-3.3124,-3.3124,-3.3124,-3.3124,-3.3167,-3.3154,-3.3197,-3.3356,-3.3398,-3.3526,-3.3696,-3.3725,-3.3713,-3.3713,-3.37,-3.3645,-3.3597,-3.3661,-3.3627,-3.356,-3.3545,-3.3533,-3.346,-3.3384,-3.3382,-3.3324,-3.297,-3.2836,-3.2985,-3.2992,-3.2882,-3.2842,-3.3036,-3.3213,-3.329,-3.3521,-3.373,-3.3868,-3.402,-3.4108,-3.4244,-3.438,-3.4414,-3.4481,-3.4549,-3.4664,-3.79,-3.79,-3.79,-3.79,-3.79,-3.79,-3.79,-3.79,-3.79,-3.7854,-3.7703,-3.7459,-3.7214,-3.6981,-3.6734,-3.6546,-3.6417,-3.6417,-3.6417,-3.6417,-3.6417,-3.6417,-3.6417,-3.6417,-3.6417,-3.6417,-3.6417,-3.6417,-3.6417,-3.6417,-3.6417,-3.6417,-3.6417,-3.6417,-3.6417,-3.6417,-3.6417,-3.6417,-3.6417,-3.6417,-3.6417,-3.6417,-3.6417,-3.6417,-3.6417,-3.6107,-3.5596,-3.5282,-3.4781,-3.4123,-3.3696,-3.3445,-3.3206,-3.3162,-3.3124,-3.3124,-3.3124,-3.3124,-3.3124,-3.3124,-3.3124,-3.3124,-3.3124,-3.3124,-3.3124,-3.3124,-3.3124,-3.3124,-3.3124,-3.3124,-3.3124,-3.3124,-3.3124,-3.3124,-3.3124,-3.3124,-3.321,-3.3197,-3.3283,-3.3441,-3.3526,-3.3526,-3.3526,-3.3484,-3.3441,-3.3471,-3.3513,-3.3598,-3.3572,-3.3627,-3.3627,-3.3555,-3.3446,-3.343,-3.3304,-3.3053,-3.2958,-3.3122,-3.2977,-3.2749,-3.2754,-3.2763,-3.2729,-3.2795,-3.315,-3.3501,-3.364,-3.3779,-3.3917,-3.404,-3.421,-3.4312,-3.438,-3.4448,-3.4515,-3.79,-3.79,-3.79,-3.79,-3.79,-3.79,-3.79,-3.79,-3.79,-3.79,-3.7854,-3.7611,-3.7353,-3.7062,-3.6828,-3.6581,-3.6405,-3.6417,-3.6417,-3.6417,-3.6417,-3.6417,-3.6417,-3.6417,-3.6417,-3.6417,-3.6417,-3.6417,-3.6417,-3.6417,-3.6417,-3.6417,-3.6417,-3.6417,-3.6417,-3.6417,-3.6417,-3.6417,-3.6417,-3.6417,-3.6417,-3.6417,-3.6417,-3.6417,-3.638,-3.6194,-3.5881,-3.552,-3.5194,-3.4562,-3.4098,-3.3784,-3.3432,-3.3194,-3.3162,-3.3124,-3.3124,-3.3124,-3.3124,-3.3124,-3.3124,-3.3124,-3.3124,-3.3124,-3.3124,-3.3124,-3.3124,-3.3124,-3.3124,-3.3124,-3.3124,-3.3124,-3.3174,-3.3174,-3.3212,-3.3212,-3.3212,-3.3212,-3.3174,-3.3333,-3.3326,-3.3326,-3.3326,-3.324,-3.321,-3.324,-3.3313,-3.3441,-3.3569,-3.3556,-3.3598,-3.35,-3.3524,-3.3514,-3.3394,-3.3123,-3.3117,-3.3225,-3.3,-3.2703,-3.2544,-3.255,-3.2417,-3.2305,-3.2674,-3.303,-3.3326,-3.3501,-3.364,-3.3848,-3.4054,-3.4176,-3.4278,-3.4346,-3.4414,-3.7835,-3.7848,-3.7874,-3.7848,-3.7861,-3.7795,-3.7835,-3.7887,-3.79,-3.79,-3.79,-3.7657,-3.7413,-3.7121,-3.6815,-3.6628,-3.6452,-3.6417,-3.6417,-3.6417,-3.6417,-3.6417,-3.6417,-3.6417,-3.6417,-3.6417,-3.6417,-3.6417,-3.6417,-3.6417,-3.6417,-3.6417,-3.6417,-3.6417,-3.6417,-3.6417,-3.6417,-3.6417,-3.6417,-3.6417,-3.6417,-3.6417,-3.6417,-3.6417,-3.6392,-3.6367,-3.6119,-3.5881,-3.5583,-3.5082,-3.4542,-3.4148,-3.3746,-3.3395,-3.325,-3.3124,-3.3124,-3.3124,-3.3124,-3.3124,-3.3124,-3.3124,-3.3124,-3.3124,-3.3124,-3.3124,-3.3124,-3.3124,-3.3124,-3.3124,-3.3124,-3.3199,-3.3219,-3.3269,-3.3363,-3.3363,-3.3319,-3.3294,-3.3275,-3.3268,-3.3192,-3.3179,-3.3167,-3.3124,-3.3174,-3.3167,-3.3197,-3.3197,-3.3326,-3.3356,-3.3398,-3.3386,-3.345,-3.3602,-3.3431,-3.3206,-3.3294,-3.337,-3.2996,-3.2712,-3.2539,-3.2334,-3.2179,-3.2149,-3.2273,-3.2552,-3.2888,-3.3171,-3.3396,-3.3556,-3.3695,-3.3937,-3.404,-3.4176,-3.4278,-3.6619,-3.6671,-3.7077,-3.726,-3.726,-3.726,-3.7482,-3.7861,-3.79,-3.79,-3.7913,-3.7808,-3.7453,-3.7108,-3.7015,-3.6722,-3.6546,-3.6417,-3.6417,-3.6417,-3.6417,-3.6417,-3.6417,-3.6417,-3.6417,-3.6417,-3.6417,-3.6417,-3.6417,-3.6417,-3.6417,-3.6417,-3.6417,-3.6417,-3.6417,-3.6417,-3.6417,-3.6417,-3.6417,-3.6417,-3.6417,-3.6417,-3.6417,-3.6417,-3.6417,-3.6417,-3.6317,-3.6254,-3.5943,-3.542,-3.5207,-3.4793,-3.3884,-3.3721,-3.3583,-3.3162,-3.3124,-3.3124,-3.3124,-3.3136,-3.3187,-3.3237,-3.3224,-3.3124,-3.3124,-3.3174,-3.3174,-3.3124,-3.3212,-3.3232,-3.3357,-3.3458,-3.3583,-3.3696,-3.3796,-3.3935,-3.3909,-3.3771,-3.3709,-3.3621,-3.3533,-3.3307,-3.3312,-3.3237,-3.3232,-3.3174,-3.3124,-3.3124,-3.3124,-3.321,-3.324,-3.3227,-3.327,-3.3398,-3.3471,-3.3271,-3.3411,-3.346,-3.3122,-3.2817,-3.2653,-3.2424,-3.2121,-3.1978,-3.2031,-3.2223,-3.2538,-3.2767,-3.2923,-3.3002,-3.3143,-3.3472,-3.3799,-3.3937,-3.4074,-3.6109,-3.6149,-3.6488,-3.6645,-3.6658,-3.6645,-3.6881,-3.7168,-3.7194,-3.7194,-3.7207,-3.7429,-3.726,-3.686,-3.6921,-3.6828,-3.6417,-3.6417,-3.6417,-3.6417,-3.6417,-3.6417,-3.6417,-3.6417,-3.6417,-3.6417,-3.6417,-3.6417,-3.6417,-3.6417,-3.6417,-3.6417,-3.6417,-3.6417,-3.6417,-3.6417,-3.6417,-3.6417,-3.6417,-3.6417,-3.6417,-3.6417,-3.6417,-3.6417,-3.6417,-3.6417,-3.6417,-3.6417,-3.6157,-3.583,-3.5755,-3.5245,-3.4437,-3.4211,-3.3646,-3.325,-3.3124,-3.3244,-3.3382,-3.3458,-3.3533,-3.3646,-3.3684,-3.3771,-3.3545,-3.3458,-3.3287,-3.3136,-3.3294,-3.347,-3.3658,-3.3847,-3.4035,-3.4223,-3.4449,-3.463,-3.4492,-3.4374,-3.4274,-3.4186,-3.3997,-3.3721,-3.3571,-3.3458,-3.3294,-3.3199,-3.3124,-3.3124,-3.3124,-3.3124,-3.3167,-3.3154,-3.3154,-3.3197,-3.3227,-3.3313,-3.3348,-3.3382,-3.3301,-3.3011,-3.2836,-3.2577,-3.2317,-3.2005,-3.1741,-3.1941,-3.2109,-3.2264,-3.2408,-3.2503,-3.2596,-3.2895,-3.3227,-3.3591,-3.3764,-3.5953,-3.594,-3.6018,-3.6096,-3.6109,-3.6083,-3.6057,-3.6018,-3.6018,-3.6044,-3.6253,-3.6698,-3.6715,-3.6533,-3.6749,-3.6726,-3.6461,-3.6417,-3.6417,-3.6417,-3.6417,-3.6417,-3.6417,-3.6417,-3.6417,-3.6417,-3.6417,-3.6417,-3.6417,-3.6417,-3.6417,-3.6417,-3.6417,-3.6417,-3.6417,-3.6417,-3.6417,-3.6417,-3.6417,-3.6417,-3.6417,-3.6417,-3.6417,-3.6417,-3.6417,-3.6417,-3.6417,-3.6417,-3.6417,-3.6182,-3.5981,-3.5583,-3.5107,-3.4562,-3.3847,-3.3558,-3.3483,-3.3646,-3.3872,-3.396,-3.4198,-3.4437,-3.4668,-3.448,-3.4186,-3.3884,-3.3658,-3.3633,-3.3847,-3.3947,-3.411,-3.4462,-3.468,-3.4876,-3.5064,-3.5228,-3.5228,-3.4989,-3.4713,-3.4613,-3.4412,-3.4173,-3.406,-3.396,-3.3759,-3.3407,-3.3275,-3.3287,-3.3136,-3.3136,-3.3124,-3.3124,-3.3124,-3.3111,-3.3111,-3.3197,-3.3167,-3.3159,-3.325,-3.3166,-3.2904,-3.2702,-3.2577,-3.2044,-3.1521,-3.1523,-3.1612,-3.1757,-3.19,-3.1996,-3.2128,-3.2286,-3.261,-3.3016,-3.3333,-3.4803,-3.4842,-3.5299,-3.5717,-3.6018,-3.5665,-3.5495,-3.5443,-3.4986,-3.5312,-3.6018,-3.6209,-3.6274,-3.6264,-3.6416,-3.6455,-3.6398,-3.6392,-3.6405,-3.6417,-3.6417,-3.6417,-3.6417,-3.6417,-3.6417,-3.6417,-3.6417,-3.6417,-3.6417,-3.6417,-3.6417,-3.6417,-3.6417,-3.6417,-3.6417,-3.6417,-3.6417,-3.6417,-3.6417,-3.6417,-3.6417,-3.6417,-3.6417,-3.6417,-3.6417,-3.6417,-3.6417,-3.6417,-3.6417,-3.6342,-3.6317,-3.5968,-3.5495,-3.4889,-3.4525,-3.4361,-3.4211,-3.4311,-3.4449,-3.4537,-3.4643,-3.4713,-3.4813,-3.4705,-3.4568,-3.4424,-3.4336,-3.4361,-3.4399,-3.4474,-3.4638,-3.4994,-3.5332,-3.5516,-3.5642,-3.5755,-3.5868,-3.5554,-3.519,-3.4969,-3.4793,-3.4668,-3.4555,-3.4367,-3.4198,-3.3997,-3.3796,-3.3633,-3.3257,-3.3174,-3.3124,-3.3124,-3.3124,-3.3124,-3.3124,-3.3124,-3.3124,-3.3124,-3.3172,-3.3071,-3.2928,-3.2655,-3.2408,-3.1792,-3.1358,-3.1316,-3.1309,-3.1312,-3.1434,-3.1482,-3.1643,-3.179,-3.1936,-3.2264,-3.2646,-3.4397,-3.4437,-3.475,-3.5064,-3.526,-3.5025,-3.4907,-3.4842,-3.4528,-3.475,-3.5351,-3.5583,-3.5691,-3.5788,-3.6006,-3.6136,-3.6137,-3.6329,-3.638,-3.6417,-3.6417,-3.6417,-3.6417,-3.6417,-3.6417,-3.6417,-3.6417,-3.6417,-3.6417,-3.6417,-3.6417,-3.6417,-3.6417,-3.6417,-3.6417,-3.6417,-3.6417,-3.6417,-3.6417,-3.6417,-3.6417,-3.6417,-3.6417,-3.6417,-3.6417,-3.6417,-3.6417,-3.6417,-3.6417,-3.6417,-3.638,-3.6031,-3.5608,-3.5207,-3.4919,-3.4718,-3.4643,-3.4781,-3.4956,-3.5056,-3.5144,-3.5265,-3.5416,-3.5567,-3.5592,-3.5403,-3.4964,-3.4964,-3.4956,-3.5031,-3.5228,-3.5508,-3.5818,-3.6006,-3.6056,-3.6166,-3.6204,-3.6006,-3.5818,-3.5742,-3.5579,-3.5441,-3.529,-3.5031,-3.4768,-3.4361,-3.4198,-3.3935,-3.3558,-3.3219,-3.3199,-3.3124,-3.3124,-3.3124,-3.3124,-3.3124,-3.3124,-3.3124,-3.3124,-3.3074,-3.3003,-3.2575,-3.2171,-3.1858,-3.1495,-3.1151,-3.1125,-3.1083,-3.09,-3.0885,-3.1061,-3.1261,-3.141,-3.1582,-3.1936,-3.4397,-3.4397,-3.441,-3.441,-3.4397,-3.441,-3.4424,-3.441,-3.4397,-3.4397,-3.4554,-3.4999,-3.4912,-3.5144,-3.5622,-3.5656,-3.5844,-3.6216,-3.6367,-3.6417,-3.6417,-3.6417,-3.6417,-3.6417,-3.6417,-3.6417,-3.6417,-3.6417,-3.6417,-3.6417,-3.6417,-3.6417,-3.6417,-3.6417,-3.6417,-3.6417,-3.6417,-3.6417,-3.6417,-3.6417,-3.6417,-3.6417,-3.6417,-3.6417,-3.6417,-3.6417,-3.6417,-3.6417,-3.6417,-3.6417,-3.6405,-3.6144,-3.5931,-3.5692,-3.5479,-3.5265,-3.5203,-3.5366,-3.5542,-3.5655,-3.5893,-3.6191,-3.6367,-3.6392,-3.6355,-3.6128,-3.5655,-3.5554,-3.5592,-3.5655,-3.5805,-3.5931,-3.6182,-3.6367,-3.6392,-3.6417,-3.6405,-3.6392,-3.6355,-3.6317,-3.6216,-3.6019,-3.5868,-3.5621,-3.5295,-3.4864,-3.4512,-3.4186,-3.3872,-3.3545,-3.3345,-3.3237,-3.3124,-3.3124,-3.3124,-3.3124,-3.3124,-3.3124,-3.3124,-3.3124,-3.3048,-3.2802,-3.2542,-3.223,-3.1876,-3.1423,-3.1006,-3.0855,-3.0663,-3.0496,-3.0634,-3.0874,-3.0911,-3.1086,-3.1235,-3.4397,-3.4397,-3.4397,-3.4397,-3.4397,-3.4397,-3.4397,-3.4397,-3.4397,-3.4397,-3.4437,-3.4502,-3.4608,-3.4869,-3.5307,-3.5525,-3.578,-3.6159,-3.6342,-3.6417,-3.6417,-3.6417,-3.6417,-3.6417,-3.6417,-3.6417,-3.6417,-3.6417,-3.6417,-3.6417,-3.6417,-3.6417,-3.6417,-3.6417,-3.6417,-3.6417,-3.6417,-3.6417,-3.6417,-3.6417,-3.6417,-3.6417,-3.6417,-3.6417,-3.6417,-3.6417,-3.6417,-3.6417,-3.6417,-3.6417,-3.6405,-3.6317,-3.6241,-3.6107,-3.5981,-3.5868,-3.5793,-3.5893,-3.6044,-3.6081,-3.6329,-3.6342,-3.6417,-3.6417,-3.6392,-3.638,-3.6116,-3.6116,-3.6094,-3.6094,-3.6194,-3.6241,-3.6392,-3.6392,-3.6417,-3.6417,-3.6405,-3.6405,-3.6392,-3.638,-3.6342,-3.6279,-3.6254,-3.6031,-3.5893,-3.5491,-3.5194,-3.4831,-3.4223,-3.3884,-3.3558,-3.3357,-3.3212,-3.3124,-3.3124,-3.3124,-3.3124,-3.3124,-3.3124,-3.3124,-3.3124,-3.3099,-3.2865,-3.2567,-3.216,-3.1723,-3.1324,-3.0988,-3.0609,-3.0483,-3.042,-3.0482,-3.052,-3.0583,-3.0785]},{"header":{"parameterUnit":"m.s-1","parameterCategory":1,"la1":31.0,"la2":29.5877,"lo1":-88.7671,"lo2":-86.6584,"dy":0.0162,"dx":0.0185,"nx":115,"ny":88,"refTime":"2023-05-07T06:00:00:Z","depth":0,"parameterNumber":3,"parameterNumberName":"V-component_of_WINDS"},"data":[0.0,0.0,0.0,0.0,0.0,0.0,0.0,0.0,0.0,0.0,0.0,0.0,0.0,0.0,0.0,0.0,0.0,0.0,0.0,0.0,0.0,0.0,0.0,0.0,0.0,0.0,0.0,0.0,0.0,0.0,0.0,0.0,0.0,0.0,0.0,0.0,0.0,0.0,0.0,0.0,0.0,0.0,0.0,0.0,0.0,0.0,0.0,0.0,0.0,0.0,0.0,0.0,0.0,0.0,0.0,0.0,0.0,0.0,0.0,0.0,0.0,0.0,0.0,0.0,0.0,0.0,0.0,0.0,0.0,0.0,0.0,0.0,0.0,0.0,0.0,0.0,0.0,0.0,0.0,0.0,0.0,0.0,0.0,0.0,0.0,0.0,0.0,0.0,0.0,0.0,0.0,0.0,0.0,0.0,0.0,0.0,0.0,0.0,0.0,0.0,0.0,0.0,0.0,0.0,0.0,0.0,0.0,0.0,0.0,0.0,0.0,0.0,0.0,0.0,0.0,0.0,0.0,0.0,0.0,0.0,0.0,0.0,0.0,0.0,0.0,0.0,0.0,0.0,0.0,0.0,0.0,0.0,0.0,0.0,0.0,0.0,0.0,0.0,0.0,0.0,0.0,0.0,0.0,0.0,0.0,0.0,0.0,0.0,0.0,0.0,0.0,0.0,0.0,0.0,0.0,0.0,0.0,0.0,0.0,0.0,0.0,0.0,0.0,0.0,0.0,0.0,0.0,0.0,0.0,0.0,0.0,0.0,0.0,0.0,0.0,0.0,0.0,0.0,0.0,0.0,0.0,0.0,0.0,0.0,0.0,0.0,0.0,0.0,0.0,0.0,0.0,0.0,0.0,0.0,0.0,0.0,0.0,0.0,0.0,0.0,0.0,0.0,0.0,0.0,0.0,0.0,0.0,0.0,0.0,0.0,0.0,0.0,0.0,0.0,0.0,0.0,0.0,0.0,0.0,0.0,0.0,0.0,0.0,0.0,0.0,0.0,0.0,0.0,0.0,0.0,0.0,0.0,0.0,0.0,0.0,0.0,0.0,0.0,0.0,0.0,0.0,0.0,0.0,0.0,0.0,0.0,0.0,0.0,0.0,0.0,0.0,0.0,0.0,0.0,0.0,0.0,0.0,0.0,0.0,0.0,0.0,0.0,0.0,0.0,0.0,0.0,0.0,0.0,0.0,0.0,0.0,0.0,0.0,0.0,0.0,0.0,0.0,0.0,0.0,0.0,0.0,0.0,0.0,0.0,0.0,0.0,0.0,0.0,0.0,0.0,0.0,0.0,0.0,0.0,0.0,0.0,0.0,0.0,0.0,0.0,0.0,0.0,0.0,0.0,0.0,0.0,0.0,0.0,0.0,0.0,0.0,0.0,0.0,0.0,0.0,0.0,0.0,0.0,0.0,0.0,0.0,0.0,0.0,0.0,0.0,0.0,0.0,0.0,0.0,0.0,0.0,0.0,0.0,0.0,0.0,0.0,0.0,0.0,0.0,0.0,0.0,0.0,0.0,0.0,0.0,0.0,0.0,0.0,0.0,0.0,0.0,0.0,0.0,0.0,0.0,0.0,0.0,0.0,0.0,0.0,0.0,0.0,0.0,0.0,0.0,0.0,0.0,0.0,0.0,0.0,0.0,0.0,0.0,0.0,0.0,0.0,0.0,0.0,0.0,0.0,0.0,0.0,0.0,0.0,0.0,0.0,0.0,0.0,0.0,0.0,0.0,0.0,0.0,0.0,0.0,0.0,0.0,0.0,0.0,0.0,0.0,0.0,0.0,0.0,0.0,0.0,0.0,0.0,0.0,0.0,0.0,0.0,0.0,0.0,0.0,0.0,0.0,0.0,0.0,0.0,0.0,0.0,0.0,0.0,0.0,0.0,0.0,0.0,0.0,0.0,0.0,0.0,0.0,0.0,0.0,0.0,0.0,0.0,0.0,0.0,0.0,0.0,0.0,0.0,0.0,0.0,0.0,0.0,0.0,0.0,0.0,0.0,0.0,0.0,0.0,0.0,0.0,0.0,0.0,0.0,0.0,0.0,0.0,0.0,0.0,0.0,0.0,0.0,0.0,0.0,0.0,0.0,0.0,0.0,0.0,0.0,0.0,0.0,0.0,0.0,0.0,0.0,0.0,0.0,0.0,0.0,0.0,0.0,0.0,0.0,0.0,0.0,0.0,0.0,0.0,0.0,0.0,0.0,0.0,0.0,0.0,0.0,0.0,0.0,0.0,0.0,0.0,0.0,0.0,0.0,0.0,0.0,0.0,0.0,0.0,0.0,0.0,0.0,0.0,0.0,0.0,0.0,0.0,0.0,0.0,0.0,0.0,0.0,0.0,0.0,0.0,0.0,0.0,0.0,0.0,0.0,0.0,0.0,0.0,0.0,0.0,0.0,0.0,0.0,0.0,0.0,0.0,0.0,0.0,0.0,0.0,0.0,0.0,0.0,0.0,0.0,0.0,0.0,0.0,0.0,0.0,0.0,0.0,0.0,0.0,0.0,0.0,0.0,0.0,0.0,0.0,0.0,0.0,0.0,0.0,0.0,0.0,0.0,0.0,0.0,0.0,0.0,0.0,0.0,0.0,0.0,0.0,0.0,0.0,0.0,0.0,0.0,0.0,0.0,0.0,0.0,0.0,0.0,0.0,0.0,0.0,0.0,0.0,0.0,0.0,0.0,0.0,0.0,0.0,0.0,0.0,0.0,0.0,0.0,0.0,0.0,0.0,0.0,0.0,0.0,0.0,0.0,0.0,0.0,0.0,0.0,0.0,0.0,0.0,0.0,0.0,0.0,0.0,0.0,0.0,0.0,0.0,0.0,0.0,0.0,0.0,0.0,0.0,0.0,0.0,0.0,0.0,0.0,0.0,0.0,0.0,0.0,0.0,0.0,0.0,0.0,0.0,0.0,0.0,0.0,0.0,0.0,0.0,0.0,0.0,0.0,0.0,0.0,0.0,0.0,0.0,0.0,0.0,0.0,0.0,0.0,0.0,0.0,0.0,0.0,0.0,0.0,0.0,0.0,0.0,0.0,0.0,0.0,0.0,0.0,0.0,0.0,0.0,0.0,0.0,0.0,0.0,0.0,0.0,0.0,0.0,0.0,0.0,0.0,0.0,0.0,0.0,0.0,0.0,0.0,0.0,0.0,0.0,0.0,0.0,0.0,0.0,0.0,0.0,0.0,0.0,0.0,0.0,0.0,0.0,0.0,0.0,0.0,0.0,0.0,0.0,0.0,0.0,0.0,0.0,0.0,0.0,0.0,0.0,0.0,0.0,0.0,0.0,0.0,0.0,0.0,0.0,0.0,0.0,0.0,0.0,0.0,0.0,0.0,0.0,0.0,0.0,0.0,0.0,0.0,0.0,0.0,0.0,0.0,0.0,0.0,0.0,0.0,0.0,0.0,0.0,0.0,0.0,0.0,0.0,0.0,0.0,0.0,0.0,0.0,0.0,0.0,0.0,0.0,0.0,0.0,0.0,0.0,0.0,0.0,0.0,0.0,0.0,0.0,0.0,0.0,0.0,0.0,0.0,0.0,0.0,0.0,0.0,0.0,0.0,0.0,0.0,0.0,0.0,0.0,0.0,0.0,0.0,0.0,0.0,0.0,0.0,0.0,0.0,0.0,0.0,0.0,0.0,0.0,0.0,0.0,0.0,0.0,0.0,0.0,0.0,0.0,0.0,0.0,0.0,0.0,0.0,0.0,0.0,0.0,0.0,0.0,0.0,0.0,0.0,0.0,0.0,0.0,0.0,0.0,0.0,0.0,0.0,0.0,0.0,0.0,0.0,0.0,0.0,0.0,0.0,0.0,0.0,0.0,0.0,0.0,0.0,0.0,0.0,0.0,0.0,0.0,0.0,0.0,0.0,0.0,0.0,0.0,0.0,0.0,0.0,0.0,0.0,0.0,0.0,0.0,0.0,0.0,0.0,0.0,0.0,0.0,0.0,0.0,0.0,0.0,0.0,0.0,0.0,0.0,0.0,0.0,0.0,0.0,0.0,0.0,0.0,0.0,0.0,0.0,0.0,0.0,0.0,0.0,0.0,0.0,0.0,0.0,0.0,0.0,0.0,0.0,0.0,0.0,0.0,0.0,0.0,0.0,0.0,0.0,0.0,0.0,0.0,0.0,0.0,0.0,0.0,0.0,0.0,0.0,0.0,0.0,0.0,0.0,0.0,0.0,0.0,0.0,0.0,0.0,0.0,0.0,0.0,0.0,0.0,0.0,0.0,0.0,0.0,0.0,0.0,0.0,0.0,0.0,0.0,0.0,0.0,0.0,0.0,0.0,0.0,0.0,0.0,0.0,0.0,0.0,0.0,0.0,0.0,0.0,0.0,0.0,0.0,0.0,0.0,0.0,0.0,0.0,0.0,0.0,0.0,0.0,0.0,0.0,0.0,0.0,0.0,0.0,0.0,0.0,0.0,0.0,0.0,0.0,0.0,0.0,0.0,0.0,0.0,0.0,0.0,0.0,0.0,0.0,0.0,0.0,0.0,0.0,0.0,0.0,0.0,0.0,0.0,0.0,0.0,0.0,0.0,0.0,0.0,0.0,0.0,0.0,0.0,0.0,0.0,0.0,0.0,0.0,0.0,0.0,0.0,0.0,0.0,0.0,0.0,0.0,0.0,0.0,0.0,0.0,0.0,0.0,0.0,0.0,0.0,0.0,0.0,0.0,0.0,0.0,0.0,0.0,0.0,0.0,0.0,0.0,0.0,0.0,0.0,0.0,0.0,0.0,0.0,0.0,0.0,0.0,0.0,0.0665,0.0222,0.0055,0.0054,0.0211,0.0,0.0,0.0,0.0,0.0,0.0,0.0,0.0,0.0,0.0,0.0,0.0,0.0,0.0,0.0,0.0,0.0,0.0,0.0,0.0,0.0,0.0,0.0,0.0,0.0,0.0,0.0,0.0,0.0,0.0,0.0,0.0,0.0,0.0,0.0,0.0,0.0,0.0,0.0,0.0,0.0,0.0,0.0,0.0,0.0,0.0,0.0,0.0,0.0,0.0,0.0,0.0,0.0,0.0,0.0,0.0,0.0,0.0,0.0,0.0,0.0,0.0,0.0,0.0,0.0,0.0,0.0,0.0,0.0,0.0,0.0,0.0,0.0,0.0,0.0,0.0,0.0,0.0,0.0,0.0,0.0,0.0,0.0,0.0,0.0,0.0,0.0,0.0,0.0,0.0,0.0,0.0,0.0,0.0,0.0,0.0,0.0,0.0,0.0,0.0,0.0,0.0,0.0,0.0,0.0,0.0,0.0,0.0,0.0,0.0,0.0,0.0,0.0166,0.0163,0.0474,0.0,0.0,0.0,0.0,0.0,0.0,0.0,0.0,0.0,0.0,0.0,0.0,0.0,0.0,0.0,0.0,0.0,0.0,0.0,0.0,0.0,0.0,0.0,0.0,0.0,0.0,0.0,0.0,0.0,0.0,0.0,0.0,0.0,0.0,0.0,0.0,0.0,0.0,0.0,0.0,0.0,0.0,0.0,0.0,0.0,0.0,0.0,0.0,0.0,0.0,0.0,0.0,0.0,0.0,0.0,0.0,0.0,0.0,0.0,0.0,0.0,0.0,0.0,0.0,0.0,0.0,0.0,0.0,0.0,0.0,0.0,0.0,0.0,0.0,0.0,0.0,0.0,0.0,0.0,0.0,0.0,0.0,0.0,0.0,0.0,0.0,0.0,0.0,0.0,0.0,0.0,0.0,0.0,0.0,0.0,0.0,0.0,0.0,0.0,0.0,0.0,0.0,0.0,0.0,0.0,0.0,0.0,0.0,0.0,0.0,0.1009,0.0392,0.0168,0.0,0.0662,0.0,0.0,0.0,0.0,0.0,0.0,0.0,0.0,0.0,0.0,0.0,0.0,0.0,0.0,0.0,0.0,0.0,0.0,0.0,0.0,0.0,0.0,0.0,0.0,0.0,0.0,0.0,0.0,0.0,0.0,0.0,0.0,0.0,0.0,0.0,0.0,0.0,0.0,0.0,0.0,0.0,0.0,0.0,0.0,0.0,0.0,0.0,0.0,0.0,0.0,0.0,0.0,0.0,0.0,0.0,0.0,0.0,0.0,0.0,0.0,0.0,0.0,0.0,0.0,0.0,0.0,0.0,0.0,0.0,0.0,0.0,0.0,0.0,0.0,0.0,0.0,0.0,0.0,0.0,0.0,0.0,0.0,0.0,0.0,0.0,0.0,0.0,0.0,0.0,0.0,0.0,0.0,0.0,0.0,0.0,0.0,0.0,0.0,0.0,0.0,0.0,0.0,0.0,0.0,0.0,0.0,0.0,0.0,0.0,0.0,0.129,0.0729,0.055,0.0638,0.0,0.0,0.0,0.0,0.0,0.0,0.0,0.0,0.0,0.0,0.0,0.0,0.0,0.0,0.0,0.0,0.0,0.0,0.0,0.0,0.0,0.0,0.0,0.0,0.0,0.0,0.0,0.0,0.0,0.0,0.0,0.0,0.0,0.0,0.0,0.0,0.0,0.0,0.0,0.0,0.0,0.0,0.0,0.0,0.0,0.0,0.0,0.0,0.0,0.0,0.0,0.0,0.0,0.0,0.0,0.0,0.0,0.0,0.0,0.0,0.0,0.0,0.0,0.0,0.0,0.0,0.0,0.0,0.0,0.0,0.0,0.0,0.0,0.0,0.0,0.0,0.0,0.0,0.0,0.0,0.0,0.0,0.0,0.0,0.0,0.0,0.0,0.0,0.0,0.0,0.0,0.0,0.0,0.0,0.0,0.0,0.0,0.0,0.0,0.0,0.0,0.0,0.0,0.0,0.0,0.0,0.0,0.0,0.0,0.0,0.2522,0.1682,0.0952,0.0923,0.1049,0.1214,0.0,0.0,0.0,0.0,0.0,0.0,0.0,0.0,0.0,0.0,0.0,0.0,0.0,0.0,0.0,0.0,0.0,0.0,0.0,0.0,0.0,0.0,0.0,0.0,0.0,0.0,0.0,0.0,0.0,0.0,0.0,0.0,0.0,0.0,0.0,0.0,0.0,0.0,0.0,0.0,0.0,0.0,0.0,0.0,0.0,0.0,0.0,0.0,0.0,0.0,0.0,0.0,0.0,0.0,0.0,0.0,0.0,0.0,0.0,0.0,0.0,0.0,0.0,0.0,0.0,0.0,0.0,0.0,0.0,0.0,0.0,0.0,0.0,0.0,0.0,0.0,0.0,0.0,0.0,0.0,0.0,0.0,0.0,0.0,0.0,0.0,0.0,0.0,0.0,0.0,0.0,0.0,0.0,0.0,0.0,0.0,0.0,0.0,0.0,0.0,0.0,0.0,0.0,0.0,0.0,0.0,0.0,0.0,0.3968,0.308,0.2073,0.0953,0.114,0.1364,0.0,0.0,0.0,0.0,0.0,0.0,0.0,0.0,0.0,0.0,0.0,0.0,0.0,0.0,0.0,0.0,0.0,0.0,0.0,0.0,0.0,0.0,0.0,0.0,0.0,0.0,0.0,0.0,0.0,0.0,0.0,0.0,0.0,0.0,0.0,0.0,0.0,0.0,0.0,0.0,0.0,0.0,0.0,0.0,0.0,0.0,0.0,0.0,0.0,0.0,0.0,0.0,0.0,0.0,0.0,0.0,0.0,0.0,0.0,0.0,0.0,0.0,0.0,0.0,0.0,0.0,0.0,0.0,0.0,0.0,0.0,0.0,0.0,0.0,0.0,0.0,0.0,0.0,0.0,0.0,0.0,0.0,0.0,0.0,0.0,0.0,0.0,0.0,0.0,0.0,0.0,0.0,0.0,0.0,0.0,0.0,0.0,0.0,0.0,0.0,0.0,0.0,0.0,0.0,0.0,0.0,0.0,0.0,0.0,0.4528,0.3138,0.2075,0.1513,0.1358,0.1468,0.0,0.0,0.0,0.0,0.0,0.0,0.0,0.0,0.0,0.0,0.0,0.0,0.0,0.0,0.0,0.0,0.0,0.0,0.0,0.0,0.0,0.0,0.0,0.0,0.0,0.0,0.0,0.0,0.0,0.0,0.0,0.0,0.0,0.0,0.0,0.0,0.0,0.0,0.0,0.0,0.0,0.0,0.0,0.0,0.0,0.0,0.0,0.0,0.0,0.0,0.0,0.0,0.0,0.0,0.0,0.0,0.0,0.0,0.0,0.0,0.0,0.0,0.0,0.0,0.0,0.0,0.0,0.0,0.0,0.0,0.0,0.0,0.0,0.0,0.0,0.0,0.0,0.0,0.0,0.0,0.0,0.0,0.0,0.0,0.0,0.0,0.0,0.0,0.0,0.0,0.0,0.0,0.0,0.0,0.0,0.0,0.0,0.0,0.0,0.0,0.0,0.0,0.0,0.0,0.0,0.0,0.0,0.0,0.0,0.4866,0.0,0.2578,0.2241,0.19,0.1945,0.0,0.0,0.0,0.0,0.0,0.0,0.0,0.0,0.0,0.0,0.0,0.0,0.0,0.0,0.0,0.0,0.0,0.0,0.0,0.0,0.0,0.0,0.0,0.0,0.0,0.0,0.0,0.0,0.0,0.0,0.0,0.0,0.0,0.0,0.0,0.0,0.0,0.0,0.0,0.0,0.0,0.0,0.0,0.0,0.0,0.0,0.0,0.0,0.0,0.0,0.0,0.0,0.0,0.0,0.0,0.0,0.0,0.0,0.0,0.0,0.0,0.0,0.0,0.0,0.0,0.0,0.0,0.0,0.0,0.0,0.0,0.0,0.0,0.0,0.0,0.0,0.0,0.0,0.0,0.0,0.0,0.0,0.0,0.0,0.0,0.0,0.0,0.0,0.0,0.0,0.0,0.0,0.0,0.0,0.0,0.0,0.0,0.0,0.0,0.0,0.0,0.0,0.0,0.0,0.0,0.0,0.0,0.0,0.6227,0.4979,0.437,0.3755,0.3136,0.2824,0.2855,0.0,0.0,0.0,0.0,0.0,0.0,0.0,0.0,0.0,0.0,0.0,0.0,0.0,0.0,0.0,0.0,0.0,0.0,0.0,0.0,0.0,0.0,0.0,0.0,0.0,0.0,0.0,0.0,0.0,0.0,0.0,0.0,0.0,0.0,0.0,0.0,0.0,0.0,0.0,0.0,0.0,0.0,0.0,0.0,0.0,0.0,0.0,0.0,0.0,0.0,0.0,0.0,0.0,0.0,0.0,0.0,0.0,0.0,0.0,0.0,0.0,0.0,0.0,0.0,0.0,0.0,0.0,0.0,0.0,0.0,0.0,0.0,0.0,0.0,0.0,0.0,0.0,0.0,0.0,0.0,0.0,0.0,0.0,0.0,0.0,0.0,0.0,0.0,0.0,0.0,0.0,0.0,0.0,0.0,0.0,0.0,0.0,0.0,0.0,0.0,0.0,0.0,0.0,0.0,0.0,0.0,0.0,0.0,0.0,0.5973,0.5577,0.5064,0.4492,0.4079,0.3955,0.0,0.0,0.0,0.0,0.0,0.0,0.0,0.0,0.0,0.0,0.0,0.0,0.0,0.0,0.0,0.0,0.0,0.0,0.0,0.0,0.0,0.0,0.0,0.0,0.0,0.0,0.0,0.0,0.0,0.0,0.0,0.0,0.0,0.0,0.0,0.0,0.0,0.0,0.0,0.0,0.0,0.0,0.0,0.0,0.0,0.0,0.0,0.0,0.0,0.0,0.0,0.0,0.0,0.0,0.0,0.0,0.0,0.0,0.0,0.0,0.0,0.0,0.0,0.0,0.0,0.0,0.0,0.0,0.0,0.0,0.0,0.0,0.0,0.0,0.0,0.0,0.0,0.0,0.0,0.0,0.0,0.0,0.0,0.0,0.0,0.0,0.0,0.0,0.0,0.0,0.0,0.0,0.0,0.0,0.0,0.0,0.0,0.0,0.0,0.0,0.0,0.0,0.0,0.0,0.0,0.0,0.0,0.0,0.0,0.8276,0.7264,0.6529,0.6069,0.5435,0.5218,0.5332,0.0,0.0,0.0,0.0,0.0,0.0,0.0,0.0,0.0,0.0,0.0,0.0,0.0,0.0,0.0,0.0,0.0,0.0,0.0,0.0,0.0,0.0,0.0,0.0,0.0,0.0,0.0,0.0,0.0,0.0,0.0,0.0,0.0,0.0,0.0,0.0,0.0,0.0,0.0,0.0,0.0,0.0,0.0,0.0,0.0,0.0,0.0,0.0,0.0,0.0,0.0,0.0,0.0,0.0,0.0,0.0,0.0,0.0,0.0,0.0,0.0,0.0,0.0,0.0,0.0,0.0,0.0,0.0,0.0,0.0,0.0,0.0,0.0,0.0,0.0,0.0,0.0,0.0,0.0,0.0,0.0,0.0,0.0,0.0,0.0,0.0,0.0,0.0,0.0,0.0,0.0,0.0,0.0,0.0,0.0,0.0,0.0,0.0,0.0,0.0,0.0,0.0,0.0,0.0,0.0,0.0,0.0,0.0,1.1511,0.9481,0.8233,0.7816,0.7072,0.6669,0.0,0.0,0.0,0.0,0.0,0.0,0.0,0.0,0.0,0.0,0.0,0.0,0.0,0.0,0.0,0.0,0.0,0.0,0.0,0.0,0.0,0.0,0.0,0.0,0.0,0.0,0.0,0.0,0.0,0.0,0.0,0.0,0.0,0.0,0.0,0.0,0.0,0.0,0.0,0.0,0.0,0.0,0.0,0.0,0.0,0.0,0.0,0.0,0.0,0.0,0.0,0.0,0.0,0.0,0.0,0.0,0.0,0.0,0.0,0.0,0.0,0.0,0.0,0.0,0.0,0.0,0.0,0.0,0.0,0.0,0.0,0.0,0.0,0.0,0.0,0.0,0.0,0.0,0.0,0.0,0.0,0.0,0.0,0.0,0.0,0.0,0.0,0.0,0.0,0.0,0.0,0.0,0.0,0.0,0.0,0.0,0.0,0.0,0.0,0.0,0.0,0.0,0.0,0.0,0.0,0.0,0.0,0.0,0.0,1.3126,1.2513,1.1495,1.0105,0.9572,0.9125,0.0,0.0,0.0,0.0,0.0,0.0,0.0,0.0,0.0,0.0,0.0,0.0,0.0,0.0,0.0,0.0,0.0,0.0,0.0,0.0,0.0,0.0,0.0,0.0,0.0,0.0,0.0,0.0,0.0,0.0,0.0,0.0,0.0,0.0,0.0,0.0,0.0,0.0,0.0,0.0,0.0,0.0,0.0,0.0,0.0,0.0,0.0,0.0,0.0,0.0,0.0,0.0,0.0,0.0,0.0,0.0,0.0,0.0,0.0,0.0,0.0,0.0,0.0,0.0,0.0,0.0,0.0,0.0,0.0,0.0,0.0,0.0,0.0,0.0,0.0,0.0,0.0,0.0,0.0,0.0,0.0,0.0,0.0,0.0,0.0,0.0,0.0,0.0,0.0,0.0,0.0,0.0,0.0,0.0,0.0,0.0,0.0,0.0,0.0,0.0,0.0,0.0,0.0,0.0,0.0,0.0,0.0,0.0,1.4313,1.4847,1.4888,1.4437,1.3379,1.2073,1.1007,0.0,0.0,0.0,0.0,0.0,0.0,0.0,0.0,0.0,0.0,0.0,0.0,0.0,0.0,0.0,0.0,0.0,0.0,0.0,0.0,0.0,0.0,0.0,0.0,0.0,0.0,0.0,0.0,0.0,0.0,0.0,0.0,0.0,0.0,0.0,0.0,0.0,0.0,0.0,0.0,0.0,0.0,0.0,0.0,0.0,0.0,0.0,0.0,0.0,0.0,0.0,0.0,0.0,0.0,0.0,0.0,0.0,0.0,0.0,0.0,0.0,0.0,0.0,0.0,0.0,0.0,0.0,0.0,0.0,0.0,0.0,0.0,0.0,0.0,0.0,0.0,0.0,0.0,0.0,0.0,0.0,0.0,0.0,0.0,0.0,0.0,0.0,0.0,0.0,0.0,0.0,0.0,0.0,0.0,0.0,0.0,0.0,0.0,0.0,0.0,0.0,0.0,0.0,0.0,0.0,0.0,0.0,0.0,1.5811,1.6516,1.6779,1.6899,1.6855,1.4433,1.27,0.0,0.0,0.0,0.0,0.0,0.0,0.0,0.0,0.0,0.0,0.0,0.0,0.0,0.0,0.0,0.0,0.0,0.0,0.0,0.0,0.0,0.0,0.0,0.0,0.0,0.0,0.0,0.0,0.0,0.0,0.0,0.0,0.0,0.0,0.0,0.0,0.0,0.0,0.0,0.0,0.0,0.0,0.0,0.0,0.0,0.0,0.0,0.0,0.0,0.0,0.0,0.0,0.0,0.0,0.0,0.0,0.0,0.0,0.0,0.0,0.0,0.0,0.0,0.0,0.0,0.0,0.0,0.0,0.0,0.0,0.0,0.0,0.0,0.0,0.0,0.0,0.0,0.0,0.0,0.0,0.0,0.0,0.0,0.0,0.0,0.0,0.0,0.0,0.0,0.0,0.0,0.0,0.0,0.0,0.0,0.0,0.0,0.0,0.0,0.0,0.0,0.0,0.0,0.0,0.0,0.0,0.0,0.0,1.7214,1.8227,1.8274,1.831,1.8342,1.6398,1.4757,0.0,0.0,0.0,0.0,0.0,0.0,0.0,0.0,0.0,0.0,0.0,0.0,0.0,0.0,0.0,0.0,0.0,0.0,0.0,0.0,0.0,0.0,0.0,0.0,0.0,0.0,0.0,0.0,0.0,0.0,0.0,0.0,0.0,0.0,0.0,0.0,0.0,0.0,0.0,0.0,0.0,0.0,0.0,0.0,0.0,0.0,0.0,0.0,0.584,0.0,0.0,0.0,0.0,0.0,0.0,0.0,0.0,0.0,0.0,0.0,0.0,0.0,0.0,0.0,0.0,0.0,0.0,0.0,0.0,0.0,0.0,0.0,0.0,0.0,0.0,0.0,0.0,0.0,0.0,0.0,0.0,0.0,0.0,0.0,0.0,0.0,0.0,0.0,0.0,0.0,0.0,0.0,0.0,0.0,0.0,0.0,0.0,0.0,0.0,0.0,0.0,0.0,0.0,0.0,0.0,0.0,0.0,0.0,1.8622,1.9622,1.9749,1.9833,1.9795,1.8551,1.6847,0.0,0.0,0.0,0.0,0.0,0.0,0.0,0.0,0.0,0.0,0.0,0.0,0.0,0.0,0.0,0.0,0.0,0.0,0.0,0.0,0.0,0.0,0.0,0.0,0.0,0.0,0.0,0.0,0.0,0.0,0.0,0.0,0.0,0.0,0.0,0.0,0.0,0.0,0.0,0.0,0.0,0.0,0.0,0.0,0.0,0.0,0.0,0.0,0.0,0.0,0.0,0.0,0.0,0.0,0.0,0.0,0.0,0.0,0.0,0.0,0.0,0.0,0.0,0.0,0.0,0.0,0.0,0.0,0.0,0.0,0.0,0.0,0.0,0.0,0.0,0.0,0.0,0.0,0.0,0.0,0.0,0.0,0.0,0.0,0.0,0.0,0.0,0.0,0.0,0.0,0.0,0.0,0.0,0.0,0.0,0.0,0.0,0.0,0.0,0.0,0.0,0.0,0.0,0.0,0.0,0.0,0.0,1.9256,2.0056,2.0934,2.1221,2.1299,2.1319,2.0416,1.8802,1.6375,0.0,0.0,0.0,0.0,0.0,0.0,0.0,0.0,0.0,0.0,0.0,0.0,0.0,0.0,0.0,0.0,0.0,0.0,0.0,0.0,0.0,0.0,0.0,0.0,0.0,0.0,0.0,0.0,0.0,0.0,0.0,0.0,0.0,0.0,0.0,0.0,0.0,0.0,1.3983,1.3778,0.0,0.0,0.0,0.0,0.0,0.0,0.0,0.0,0.8243,0.0,0.0,0.0,0.0,0.0,0.0,0.0,0.0,0.0,0.0,0.0,0.0,0.0,0.0,0.0,0.0,0.0,0.0,0.0,0.0,0.0,0.0,0.0,0.0,0.0,0.0,0.0,0.0,0.0,0.0,0.0,0.0,0.0,0.0,0.0,0.0,0.0,0.0,0.0,0.0,0.0,0.0,0.0,0.0,0.0,0.0,0.0,0.0,0.0,0.0,0.0,0.0,0.0,0.0,0.0,0.0,1.96,2.0371,2.1319,2.2235,2.2275,2.2312,2.2347,2.1205,1.9896,1.8532,0.0,0.0,0.0,0.0,0.0,0.0,0.0,0.0,0.0,0.0,0.0,0.0,0.0,0.0,0.0,0.0,0.0,0.0,0.0,0.0,0.0,0.0,0.0,0.0,0.0,0.0,0.0,0.0,0.0,0.0,0.0,0.0,0.0,0.0,0.0,0.0,0.0,0.0,0.0,1.4659,1.4556,0.0,0.0,0.0,0.0,0.0,0.0,0.0,0.0,0.9508,0.0,0.0,0.0,0.0,0.0,0.0,0.0,0.0,0.0,0.0,0.0,0.0,0.0,0.0,0.0,0.0,0.0,0.0,0.0,0.0,0.0,0.0,0.0,0.0,0.0,0.0,0.0,0.0,0.0,0.0,0.0,0.0,0.0,0.0,0.0,0.0,0.0,0.0,0.0,0.0,0.0,0.0,0.0,0.0,0.0,0.0,0.0,0.0,0.0,0.0,0.0,0.0,0.0,0.0,0.0,2.0638,2.1581,2.2522,2.3475,2.3491,2.3499,2.3506,2.2154,2.0881,0.0,0.0,0.0,0.0,0.0,0.0,0.0,0.0,0.0,0.0,0.0,0.0,0.0,0.0,0.0,0.0,0.0,0.0,0.0,0.0,0.0,0.0,0.0,0.0,0.0,0.0,0.0,0.0,0.0,0.0,0.0,0.0,0.0,0.0,0.0,0.0,0.0,0.0,0.0,0.0,1.5344,1.541,1.5303,0.0,0.0,0.0,0.0,0.0,0.0,1.1441,1.0858,0.0,0.0,0.0,0.0,0.0,0.0,0.0,0.0,0.0,0.0,0.0,0.0,0.0,0.0,0.0,0.0,0.0,0.0,0.0,0.0,0.0,0.0,0.0,0.0,0.0,0.0,0.0,0.0,0.0,0.0,0.0,0.0,0.0,0.0,0.0,0.0,0.0,0.0,0.0,0.0,0.0,0.0,0.0,0.0,0.0,0.0,0.0,0.0,0.0,0.0,0.0,0.0,0.0,0.0,0.0,2.1528,2.2573,2.3541,2.4499,2.4559,2.4559,2.4484,2.303,2.1723,0.0,0.0,0.0,0.0,0.0,0.0,0.0,0.0,0.0,0.0,0.0,0.0,0.0,0.0,0.0,0.0,0.0,0.0,0.0,0.0,0.0,0.0,0.0,0.0,0.0,0.0,0.0,0.0,0.0,0.0,0.0,0.0,0.0,0.0,0.0,0.0,0.0,0.0,0.0,0.0,0.0,1.615,1.6424,1.6105,0.0,0.0,0.0,0.0,1.3771,1.2905,0.0,0.0,0.0,0.0,0.0,0.0,0.0,0.0,0.0,0.0,0.0,0.0,0.0,0.0,0.0,0.0,0.0,0.0,0.0,0.0,0.0,0.0,0.0,0.0,0.0,0.0,0.0,0.0,0.0,0.0,0.0,0.0,0.0,0.0,0.0,0.0,0.0,0.0,0.0,0.0,0.0,0.0,0.0,0.0,0.0,0.0,0.0,0.0,0.0,0.0,0.0,0.0,0.0,0.0,0.0,0.0,2.1679,2.2965,2.4093,2.4984,2.5052,2.507,2.5002,2.3614,2.2314,0.0,0.0,0.0,0.0,0.0,0.0,0.0,0.0,0.0,0.0,0.0,0.0,0.0,0.0,0.0,0.0,0.0,0.0,0.0,0.0,0.0,0.0,0.0,0.0,0.0,0.0,0.0,0.0,0.0,0.0,0.0,0.0,0.0,0.0,0.0,0.0,0.0,0.0,0.0,0.0,0.0,1.673,1.7035,1.7054,1.6988,0.0,0.0,1.5743,1.5014,1.4551,0.0,0.0,0.0,0.0,0.0,0.0,0.0,0.0,0.0,0.0,0.0,0.0,0.0,0.0,0.0,0.0,0.0,0.0,0.0,0.0,0.0,0.0,0.0,0.0,0.0,0.0,0.0,0.0,0.0,0.0,0.0,0.0,0.0,0.0,0.0,0.0,0.0,0.0,0.0,0.0,0.0,0.0,0.0,0.0,0.0,0.0,0.0,0.0,0.0,0.0,0.0,0.0,0.0,0.0,0.0,2.1342,2.2375,2.3903,2.5126,2.6028,2.6163,2.619,2.6046,2.4598,2.3372,0.0,0.0,0.0,0.0,0.0,0.0,0.0,0.0,0.0,0.0,0.0,0.0,0.0,0.0,0.0,0.0,0.0,0.0,0.0,0.0,0.0,0.0,0.0,0.0,0.0,0.0,0.0,0.0,0.0,0.0,0.0,0.0,0.0,0.0,0.0,0.0,0.0,0.0,0.0,0.0,0.0,0.0,1.7802,1.8168,0.0,0.0,0.0,1.6917,1.6259,0.0,0.0,0.0,0.0,0.0,0.0,0.0,0.0,0.0,0.0,0.0,0.0,0.0,0.0,0.0,0.0,0.0,0.0,0.0,0.0,0.0,0.0,0.0,0.0,0.0,0.0,0.0,0.0,0.0,0.0,0.0,0.0,0.0,0.0,0.0,0.0,0.0,0.0,0.0,0.0,0.0,0.0,0.0,0.0,0.0,0.0,0.0,0.0,0.0,0.0,0.0,0.0,0.0,0.0,0.0,0.0,0.0,2.3045,2.4587,2.5863,2.6726,2.6882,2.6911,2.6745,2.5552,0.0,0.0,0.0,0.0,0.0,0.0,0.0,0.0,0.0,0.0,0.0,0.0,0.0,0.0,0.0,0.0,0.0,0.0,0.0,0.0,0.0,0.0,0.0,0.0,0.0,0.0,0.0,1.5404,0.0,0.0,0.0,0.0,0.0,0.0,0.0,0.0,0.0,0.0,0.0,0.0,0.0,0.0,1.7959,1.8463,1.9029,1.93,0.0,0.0,1.796,1.7502,1.6773,1.6017,0.0,0.0,0.0,0.0,0.0,0.0,0.0,0.0,0.0,0.0,0.0,0.0,0.0,0.0,0.0,0.0,0.0,0.0,0.0,0.0,0.0,0.0,0.0,0.0,0.0,0.0,0.0,0.0,0.0,0.0,0.0,0.0,0.0,0.0,0.0,0.0,0.0,0.0,0.0,0.0,0.0,0.0,0.0,0.0,0.0,0.0,0.0,0.0,0.0,0.0,0.0,0.0,0.0,0.0,0.0,2.3382,2.4773,2.5906,2.6675,2.6846,2.6814,2.6685,2.6097,2.5386,0.0,0.0,0.0,0.0,0.0,0.0,0.0,0.0,0.0,0.0,0.0,0.0,0.0,0.0,0.0,0.0,0.0,0.0,0.0,0.0,0.0,0.0,0.0,0.0,0.0,0.0,0.0,0.0,0.0,0.0,0.0,0.0,0.0,0.0,0.0,0.0,0.0,0.0,0.0,0.0,0.0,1.8372,1.8882,1.9442,1.9752,0.0,0.0,1.8772,1.855,1.7953,1.7323,1.6588,0.0,0.0,0.0,0.0,0.0,0.0,0.0,0.0,0.0,0.0,0.0,0.0,0.0,0.0,0.0,0.0,0.0,0.0,0.0,0.0,0.0,0.0,0.0,0.0,0.0,0.0,0.0,0.0,0.0,0.0,0.0,0.0,0.0,0.0,0.0,0.0,0.0,0.0,0.0,0.0,0.0,0.0,0.0,0.0,0.0,0.0,0.0,0.0,0.0,0.0,0.0,0.0,0.0,2.2942,2.3663,2.5353,2.6636,2.7396,2.7712,2.7833,2.7701,2.7179,2.6419,0.0,0.0,0.0,0.0,0.0,0.0,0.0,0.0,0.0,0.0,0.0,0.0,0.0,0.0,0.0,0.0,0.0,0.0,0.0,0.0,0.0,0.0,0.0,0.0,0.0,0.0,0.0,0.0,1.804,1.8177,1.8487,0.0,0.0,0.0,0.0,0.0,0.0,0.0,0.0,0.0,0.0,1.932,1.9789,2.0255,0.0,0.0,1.97,1.9312,1.9011,1.8536,1.804,1.7613,1.7185,0.0,0.0,0.0,0.0,0.0,0.0,0.0,0.0,0.0,0.0,0.0,0.0,0.0,0.0,0.0,0.0,0.0,0.0,0.0,0.0,0.0,0.0,0.0,0.0,0.0,0.0,0.0,0.0,0.0,0.0,0.0,0.0,0.0,0.0,0.0,0.0,0.0,0.0,0.0,0.0,0.0,0.0,0.0,0.0,0.0,0.0,0.0,0.0,0.0,0.0,0.0,0.0,2.3645,2.4202,2.6038,2.7329,2.8017,2.8359,2.8515,2.8423,2.8045,2.7431,0.0,0.0,0.0,0.0,0.0,0.0,0.0,0.0,0.0,0.0,0.0,0.0,0.0,0.0,0.0,0.0,0.0,0.0,0.0,0.0,0.0,0.0,0.0,0.0,0.0,0.0,0.0,0.0,1.8995,1.9043,1.9251,0.0,0.0,0.0,0.0,0.0,0.0,0.0,0.0,0.0,0.0,1.992,2.0351,2.0823,2.1024,2.0648,2.0251,1.9898,1.9687,1.9317,1.8912,1.8589,0.0,0.0,0.0,0.0,0.0,0.0,0.0,0.0,0.0,0.0,0.0,0.0,0.0,0.0,0.0,0.0,0.0,0.0,0.0,0.0,0.0,0.0,0.0,0.0,0.0,0.0,0.0,0.0,0.0,0.0,0.0,0.0,0.0,0.0,0.0,0.0,0.0,0.0,0.0,0.0,0.0,0.0,0.0,0.0,0.0,0.0,0.0,0.0,0.0,0.0,0.0,0.0,0.0,2.4414,2.5194,2.6739,2.7841,2.8369,2.8581,2.8721,2.871,2.8699,2.8332,2.7581,0.0,0.0,0.0,0.0,0.0,0.0,0.0,0.0,0.0,0.0,0.0,0.0,0.0,0.0,0.0,0.0,0.0,0.0,0.0,0.0,0.0,0.0,0.0,0.0,0.0,0.0,2.0044,2.0079,2.0088,0.0,0.0,0.0,0.0,0.0,0.0,0.0,0.0,0.0,0.0,1.9557,2.0114,2.0377,2.0989,2.1293,2.1024,2.0798,2.0663,2.0654,2.0428,2.011,0.0,0.0,0.0,0.0,0.0,0.0,0.0,0.0,0.0,0.0,0.0,0.0,0.0,0.0,0.0,0.0,0.0,0.0,0.0,0.0,0.0,0.0,0.0,0.0,0.0,0.0,0.0,2.6707,2.7053,0.0,0.0,0.0,0.0,0.0,0.0,0.0,0.0,0.0,0.0,0.0,2.6517,2.6517,0.0,0.0,0.0,0.0,0.0,0.0,0.0,0.0,0.0,0.0,0.0,0.0,2.4811,2.5673,2.7098,2.828,2.9117,2.952,2.9703,2.9692,2.9703,2.9218,2.8132,0.0,0.0,0.0,0.0,0.0,0.0,0.0,0.0,0.0,0.0,0.0,0.0,0.0,0.0,0.0,0.0,0.0,0.0,0.0,0.0,0.0,0.0,0.0,0.0,0.0,2.0431,0.0,0.0,0.0,0.0,0.0,0.0,0.0,0.0,0.0,0.0,0.0,1.9221,1.986,2.0508,2.1021,2.1299,2.1616,2.1839,0.0,0.0,0.0,0.0,0.0,0.0,0.0,0.0,0.0,0.0,0.0,0.0,0.0,0.0,1.5342,1.4542,1.4122,1.3574,1.2899,0.0,0.0,0.0,0.0,0.0,0.0,0.0,0.0,0.0,0.0,0.0,0.0,0.0,0.0,0.0,0.0,2.8302,0.0,0.0,0.0,0.0,0.0,0.0,0.0,0.0,2.7596,2.7853,2.8198,2.8198,2.8116,0.0,2.783,2.7148,0.0,0.0,0.0,0.0,0.0,0.0,0.0,0.0,2.5508,2.6506,2.7752,2.888,2.9818,3.0261,3.0454,3.0454,3.037,2.9827,2.8766,2.8119,2.7229,0.0,0.0,0.0,0.0,0.0,0.0,0.0,0.0,0.0,0.0,0.0,0.0,0.0,0.0,0.0,0.0,0.0,0.0,0.0,0.0,0.0,0.0,0.0,2.1381,0.0,0.0,0.0,0.0,0.0,0.0,0.0,0.0,0.0,1.9611,1.9707,2.004,2.0482,2.1229,2.1768,2.1915,0.0,0.0,0.0,0.0,0.0,0.0,0.0,2.1767,2.1454,2.1105,2.0625,1.9957,1.9324,1.8715,1.8232,0.0,0.0,1.5789,1.514,1.4592,1.3976,1.3749,1.3523,1.3231,1.3188,1.3176,0.0,0.0,0.0,0.0,0.0,0.0,0.0,0.0,2.9603,2.9723,0.0,2.9633,0.0,0.0,0.0,0.0,0.0,0.0,0.0,0.0,2.8934,2.9391,3.0085,3.0097,3.0109,3.0085,2.9591,2.9104,2.8616,2.6888,0.0,0.0,0.0,0.0,0.0,0.0,2.6508,2.7689,2.8643,2.9598,3.0599,3.0916,3.1017,3.1062,3.0743,3.0221,2.9506,2.9011,2.8204,2.6996,2.6663,0.0,0.0,0.0,0.0,0.0,0.0,0.0,0.0,0.0,0.0,0.0,0.0,0.0,0.0,0.0,0.0,0.0,0.0,0.0,0.0,2.2823,0.0,0.0,0.0,0.0,0.0,0.0,0.0,0.0,0.0,0.0,2.0661,2.0405,2.0459,2.0867,0.0,0.0,0.0,0.0,2.3416,2.3144,2.3135,2.3057,2.2847,2.2838,2.2662,2.2157,0.0,0.0,2.0262,1.9945,1.9621,1.9153,1.8583,1.7778,1.651,1.5523,1.4811,1.472,1.4397,1.4153,1.4124,1.4059,1.4075,3.2788,0.0,0.0,0.0,0.0,3.0834,3.0992,3.1016,3.1405,3.1619,3.1638,3.1022,0.0,0.0,0.0,0.0,0.0,0.0,2.9564,2.9982,3.0065,3.0262,3.0604,3.0604,3.0604,3.0592,3.0445,3.0106,2.959,2.8908,2.7912,2.6633,0.0,0.0,0.0,0.0,2.7209,2.8384,2.9183,3.0174,3.1383,3.1773,3.1994,3.1994,3.1892,3.1369,3.0427,3.0084,2.9248,2.7904,2.758,0.0,0.0,0.0,0.0,0.0,0.0,0.0,0.0,0.0,0.0,0.0,0.0,0.0,0.0,0.0,0.0,0.0,0.0,0.0,2.2433,2.278,2.3052,0.0,0.0,0.0,0.0,0.0,0.0,0.0,0.0,0.0,2.2307,2.2023,2.1834,0.0,0.0,2.3049,2.2922,2.336,2.3667,2.358,0.0,0.0,0.0,2.3493,2.3254,2.2486,2.1526,2.0765,2.0469,1.9892,1.9408,1.9246,1.8589,1.7909,1.7532,1.6761,1.5948,1.536,1.5103,1.4901,1.4615,1.4524,1.4517,3.4547,3.3561,3.2692,3.2363,3.2345,3.2469,3.2519,3.2531,3.2643,3.2692,3.2636,3.2074,3.1841,3.1816,3.1052,0.0,0.0,0.0,3.0601,3.1073,3.1043,3.1267,3.1717,3.1717,3.1729,3.1717,3.1493,3.1137,3.077,3.036,2.9588,2.8445,0.0,0.0,2.7267,2.7567,2.8261,2.935,3.0066,3.0905,3.1945,3.2257,3.2444,3.2519,3.2506,3.2013,3.0993,3.0753,3.0033,2.8638,2.8315,2.8091,0.0,0.0,0.0,0.0,0.0,0.0,0.0,0.0,0.0,0.0,0.0,2.5204,2.5315,0.0,0.0,0.0,2.3824,2.3544,2.3146,2.3492,0.0,0.0,0.0,0.0,0.0,0.0,0.0,2.3714,2.3549,2.3457,2.3372,2.3367,2.3171,2.2726,2.3378,2.3805,2.3495,0.0,2.3987,2.3728,2.3697,2.3613,2.3434,2.3402,2.3135,2.2237,2.146,2.0841,2.0499,2.0023,1.9627,1.9301,1.8865,1.8393,1.808,1.7554,1.6935,1.6105,1.5775,1.5567,1.5151,1.5068,1.5068,3.5869,3.5613,3.5097,3.4801,3.4675,3.4173,3.3935,3.3859,3.3357,3.3119,3.3081,3.2853,3.2711,3.2686,3.2043,0.0,0.0,3.0976,3.1356,3.2008,3.2008,3.2409,3.3068,3.3111,3.3124,3.3056,3.2528,3.2139,3.1896,3.1435,3.1092,3.0828,2.9262,2.8539,2.8695,2.8978,2.9605,3.0499,3.1052,3.1749,3.2463,3.2475,3.2562,3.2723,3.2754,3.2244,3.1187,3.1165,3.0533,2.9283,2.9,2.887,2.8882,0.0,0.0,0.0,0.0,0.0,0.0,0.0,0.0,0.0,0.0,0.0,0.0,0.0,0.0,0.0,2.4526,0.0,2.4261,2.4664,0.0,0.0,0.0,2.5409,2.4975,2.4929,2.4756,2.4307,0.0,0.0,0.0,0.0,2.437,2.3607,2.4071,2.4337,2.387,2.416,2.4246,2.3612,2.3517,2.3346,2.3023,2.2869,2.2534,2.182,2.1481,2.1135,2.0537,2.0323,2.0029,1.9539,1.9341,1.9054,1.8224,1.8072,1.7757,1.6935,1.6451,1.6038,1.5782,1.5658,1.5575,3.6764,3.6705,3.659,3.5801,3.4726,3.4542,3.4286,3.3897,3.3759,3.347,3.3068,3.3038,3.3038,3.2982,3.2814,3.2689,3.2552,3.2552,3.2669,3.2825,3.2794,3.2912,3.3124,3.3124,3.3124,3.3111,3.2943,3.2612,3.2143,3.2006,3.1718,3.1276,3.1054,3.0726,3.0278,3.0318,3.069,3.1283,3.1799,3.2431,3.3129,3.3142,3.3111,3.3025,3.3154,3.271,3.1625,3.1749,3.1229,2.9945,2.9805,2.9703,2.9523,2.9445,0.0,0.0,0.0,0.0,0.0,0.0,0.0,0.0,0.0,2.6417,2.6482,0.0,2.5254,0.0,2.5099,2.5028,2.5028,2.5147,0.0,0.0,2.5277,2.5349,2.5218,2.5206,2.5087,2.4862,2.4802,2.4754,2.461,2.4846,2.4935,2.4593,2.4481,2.4295,2.4068,2.3993,2.3915,2.3748,2.3545,2.3456,2.3283,2.2754,2.2268,2.2077,2.148,2.0986,2.081,2.0508,2.0225,2.0059,1.9618,1.9262,1.9024,1.8465,1.7991,1.7668,1.7106,1.6458,1.6087,1.5865,1.5692,3.7214,3.7108,3.7108,3.6565,3.575,3.5406,3.5082,3.4767,3.4155,3.3721,3.342,3.3224,3.3124,3.3124,3.3124,3.3124,3.3124,3.3124,3.3124,3.3124,3.3124,3.3124,3.3124,3.3124,3.3124,3.3124,3.3197,3.3076,3.2773,3.2832,3.271,3.2405,3.2584,3.246,3.2114,3.1834,3.1884,3.2185,3.2689,3.3123,3.3488,3.3526,3.3484,3.3343,3.3242,3.2762,3.1909,3.1749,3.1239,3.0267,3.0216,3.0216,3.0152,3.0152,3.0152,0.0,0.0,0.0,0.0,0.0,0.0,0.0,0.0,0.0,0.0,0.0,2.5908,0.0,2.5756,0.0,2.5699,2.5629,2.5571,2.5583,2.5571,2.5571,2.5571,2.5571,2.5535,2.5418,2.5382,2.5324,2.5171,2.523,2.5177,2.497,2.4656,2.4397,2.421,2.402,2.3787,2.3494,2.3268,2.3083,2.2927,2.2405,2.1996,2.1859,2.1405,2.1022,2.0906,2.0664,2.042,2.0294,1.9981,1.9618,1.9341,1.8944,1.8514,1.8152,1.7708,1.7098,1.6492,1.6245,1.6113,3.7505,3.7294,3.7294,3.7248,3.7209,3.6478,3.6085,3.5808,3.4583,3.3966,3.3771,3.3338,3.3111,3.3111,3.3124,3.3154,3.3154,3.3167,3.3197,3.3167,3.3197,3.3154,3.3197,3.3154,3.3154,3.321,3.3343,3.3441,3.3441,3.3641,3.3713,3.3713,3.3755,3.3797,3.3771,3.3392,3.3148,3.316,3.3582,3.3839,3.3852,3.3839,3.3797,3.3784,3.3283,3.2785,3.2219,3.1667,3.11,3.0597,3.0558,3.0634,3.0849,3.0849,3.0949,0.0,3.1123,0.0,0.0,0.0,0.0,0.0,0.0,0.0,0.0,2.6974,2.676,2.676,2.6474,2.6289,2.6302,2.6141,2.605,2.6015,2.6002,2.598,2.5968,2.598,2.598,2.5945,2.5945,2.5875,2.5653,2.5488,2.5312,2.5123,2.4861,2.4601,2.4404,2.4167,2.3758,2.3119,2.2852,2.2633,2.2271,2.1991,2.179,2.1599,2.1418,2.1167,2.0984,2.077,2.0576,2.042,2.0303,2.0098,1.9548,1.9381,1.9103,1.8634,1.8282,1.7789,1.7057,1.673,1.6484,3.8376,3.8317,3.833,3.8181,3.7972,3.7684,3.6902,3.5834,3.518,3.425,3.3287,3.3162,3.3197,3.3313,3.3356,3.3441,3.3598,3.3598,3.3598,3.3598,3.3598,3.3586,3.3598,3.3598,3.3598,3.3598,3.3641,3.3628,3.3641,3.3683,3.3713,3.3713,3.4092,3.4272,3.4259,0.0,0.0,0.0,3.4457,3.4522,3.4509,3.4509,3.4439,3.4259,3.3849,0.0,3.2857,3.2395,3.1942,3.1413,3.1373,0.0,0.0,0.0,0.0,0.0,0.0,0.0,0.0,0.0,0.0,0.0,2.909,2.8628,2.7971,2.7331,2.6943,2.6956,2.6875,2.6841,2.6841,2.6807,2.6739,2.6555,2.6555,2.6521,2.643,2.6396,2.6314,2.6179,2.6131,2.6062,2.5875,2.5793,2.5723,2.55,2.5288,2.5087,2.4908,2.4301,2.3742,2.332,2.2964,2.2553,2.2138,2.2073,2.1959,2.1759,2.1578,2.1387,2.1167,2.0984,2.077,2.0576,2.042,2.0264,2.0098,1.9706,1.9301,1.9143,1.8843,1.8362,1.7659,1.709,1.6648,3.8859,0.0,3.8756,3.8621,0.0,3.8122,3.7586,3.6792,3.5621,3.4332,3.3136,3.3197,3.3313,3.3398,3.3513,3.3598,3.3713,3.3713,3.3713,3.3713,3.3713,3.3713,3.3713,3.3713,3.3713,3.3713,3.3852,3.3949,3.4063,3.4202,3.4285,3.4397,3.4647,3.4771,3.4895,3.5304,3.5386,3.5059,3.5127,3.5182,3.5223,3.5182,3.4994,3.4619,0.0,0.0,0.0,0.0,0.0,0.0,0.0,0.0,0.0,0.0,0.0,3.2511,3.2264,3.1997,3.1736,3.1117,3.0411,2.9755,2.9197,2.8638,2.8001,2.7525,2.7235,2.7248,2.718,2.7146,2.7146,2.7045,2.6943,2.6875,2.6829,2.6794,2.6624,2.6589,2.6533,2.6374,2.6327,2.6292,2.6223,2.6097,2.6015,2.591,2.5735,2.55,2.5158,2.4539,2.3897,2.3409,2.3038,2.274,2.244,2.2225,2.2073,2.1959,2.1693,2.1502,2.1359,2.1099,2.0858,2.0731,2.0576,2.042,2.0303,2.002,1.9745,1.9587,1.9271,1.8913,1.8536,1.7902,1.7188,3.9278,3.9073,3.9087,3.8966,3.8679,3.8498,3.8094,3.7482,0.0,0.0,0.0,3.3398,3.3484,3.3539,3.3683,3.3797,3.3894,3.3894,3.3924,3.3966,3.3924,3.3894,3.3882,3.3894,3.3894,3.3894,3.416,3.4356,3.4522,3.4743,3.4962,3.5168,3.5208,3.5331,3.5562,3.5965,3.5965,3.5642,3.5764,3.5804,3.5804,3.5695,3.541,3.492,3.4251,3.3663,3.3186,3.2623,3.2309,3.2309,3.2309,3.2417,3.261,3.2596,3.2789,3.308,3.2709,3.2394,3.239,3.1329,3.0494,3.0239,2.9219,2.8392,2.7888,2.7656,2.7556,2.7556,2.739,2.7323,2.7335,2.7214,2.7079,2.7058,2.7058,2.6964,2.6794,2.6726,2.6645,2.6555,2.6487,2.6487,2.6487,2.6339,2.6236,2.6236,2.6062,2.5793,2.5324,2.4647,2.4043,2.3593,2.3272,2.3001,2.2777,2.2478,2.2225,2.2111,2.1845,2.1578,2.1474,2.1215,2.1022,2.0984,2.077,2.0615,2.0459,2.0352,2.0225,2.002,1.9657,1.9381,1.9311,1.8754,1.8,3.9865,3.9865,3.9865,3.9601,3.923,3.9172,3.8105,3.6428,3.5684,3.4714,3.3641,3.3641,3.3768,3.3992,3.4047,3.4243,3.4632,3.4632,3.4743,0.0,3.4714,3.4632,3.4673,3.4632,3.4632,3.4673,3.488,3.4949,3.499,3.5031,3.5154,3.5358,3.5521,3.5858,3.6218,3.647,3.6589,3.651,3.6391,3.6312,3.6298,3.5735,3.5418,3.5294,3.4398,3.385,3.3775,3.3358,3.3115,3.3129,3.3129,3.3248,3.3417,3.3431,3.3521,3.3744,3.3707,3.3408,3.2853,3.252,3.1748,3.0387,2.9251,2.8438,2.8099,2.7888,2.7756,2.7743,2.7577,2.7469,2.7469,2.7436,2.7369,2.7268,2.7281,2.7167,2.6977,2.6829,2.6726,2.6692,2.6555,2.6499,2.6537,2.6502,2.648,2.6443,2.6295,2.5945,2.5394,2.4683,2.4236,2.4018,2.3604,2.3224,2.2964,2.2777,2.2515,2.2149,2.2073,2.1883,2.1589,2.1425,2.132,2.1167,2.1012,2.0867,2.079,2.0547,2.0342,2.0225,1.999,1.9784,1.9597,1.928,1.8776,4.0314,4.0198,4.0211,4.0023,3.9631,3.904,3.7923,3.6515,3.5926,3.4938,3.3764,3.3852,3.4063,3.4285,3.4424,3.4673,3.4975,3.4962,3.5003,3.5072,3.5003,3.4962,3.4962,3.4962,3.4962,3.4962,3.5044,3.5195,3.5399,3.544,3.5616,3.5952,3.6138,3.6338,3.6563,3.6772,3.6836,3.685,3.6772,3.6565,3.6245,3.6028,3.5591,3.4948,3.4542,3.4213,3.3903,3.3698,3.3626,3.3612,3.3626,3.366,3.3744,3.3758,3.3848,3.3971,3.369,3.3442,3.3239,3.2644,3.1905,3.1017,3.0058,2.9356,2.9029,2.8371,2.7901,2.7822,2.7723,2.761,2.749,2.7503,2.7503,2.739,2.7403,2.7335,2.718,2.71,2.6998,2.6863,2.6726,2.675,2.7066,2.7021,2.6939,2.6892,2.6577,2.6109,2.5853,2.523,2.4658,2.4261,2.3934,2.3641,2.325,2.299,2.274,2.2467,2.2252,2.2073,2.1845,2.1693,2.1502,2.1349,2.1205,2.1022,2.0945,2.079,2.0625,2.045,2.0264,2.0069,1.9951,1.9627,1.9024,4.063,4.0471,4.0471,4.0342,3.9998,3.8885,3.7841,3.6906,3.6204,3.5186,3.4144,3.4243,3.441,3.4564,3.4784,3.5003,3.5208,3.5249,3.5277,3.5372,3.5331,3.5318,3.5277,3.5318,3.5277,3.5318,3.5358,3.5562,3.5858,3.5831,3.6058,3.6431,3.6682,3.6772,3.6786,3.6915,3.6978,3.6978,3.7017,3.6831,3.6366,3.625,3.5702,3.4845,3.4668,3.4403,3.3994,3.3985,3.3985,3.3985,3.402,3.4034,3.402,3.4034,3.4054,3.4119,3.3749,3.3493,3.3578,3.2785,3.2131,3.1787,3.1026,3.0434,3.0097,2.9246,2.8431,2.7974,2.7822,2.7723,2.7536,2.7503,2.7503,2.7503,2.7503,2.7469,2.7369,2.7302,2.7312,2.722,2.7088,2.7214,2.7637,2.7683,2.7528,2.7406,2.6964,2.6656,2.6526,2.6148,2.5601,2.5024,2.458,2.4091,2.3593,2.3335,2.3113,2.2852,2.2515,2.2289,2.2101,2.1807,2.1655,2.1578,2.1397,2.1244,2.1099,2.0984,2.0906,2.0693,2.0537,2.042,2.0264,1.9951,1.9301,4.0702,4.0659,4.0659,4.0544,4.0185,3.8972,3.8043,3.7362,3.636,3.5577,3.5017,3.5003,3.499,3.5031,3.5044,3.5277,3.5642,3.5629,3.5858,3.6192,3.6005,3.5911,3.5911,3.5911,3.5911,3.5911,3.6098,3.6232,3.6312,3.6325,3.6431,3.6668,3.6889,3.6954,3.6993,3.6978,3.6978,3.6993,3.7187,3.7236,3.7123,3.609,3.5512,3.5589,3.4665,3.4131,3.4094,3.423,3.4346,3.4346,3.4346,3.4346,3.4346,3.4346,3.4346,3.438,3.4308,3.4211,3.4018,3.3465,3.2939,3.2576,3.1857,3.1293,3.1093,3.0683,2.9754,2.8512,2.7961,2.7802,2.7536,2.7555,2.762,2.7659,2.762,2.7503,2.7535,2.7369,2.7475,2.7959,2.7872,2.7985,2.8449,2.842,2.8239,2.8058,2.7871,2.7686,2.7541,2.7395,2.7225,2.6711,2.5668,2.4558,2.421,2.3934,2.3593,2.3113,2.2964,2.2703,2.2327,2.2101,2.1997,2.1769,2.1617,2.1464,2.1397,2.1282,2.1099,2.0935,2.079,2.0702,2.042,2.0225,1.9863,4.0702,4.0702,4.0702,4.0587,4.0216,3.9016,3.8282,3.7798,3.6702,3.6089,3.5885,3.5858,3.5683,3.548,3.544,3.5683,3.6098,3.6098,3.6232,3.6405,3.6272,3.6218,3.6232,3.6258,3.6218,3.6232,3.6351,3.6484,3.6589,3.6693,3.6797,3.6889,3.6954,3.6978,3.6978,3.6978,3.707,3.7187,3.7264,3.7433,3.7482,3.6419,3.5611,3.5289,3.4658,3.4278,3.4312,3.438,3.438,3.438,3.438,3.438,3.438,3.438,3.438,3.438,3.438,3.438,3.4278,3.3917,3.3686,3.3502,3.2709,3.2106,3.1895,3.1366,3.0539,2.9666,2.9159,2.8934,2.8749,2.8625,2.8556,2.8556,2.8556,2.8543,2.8569,2.8521,2.8582,2.879,2.8675,2.8763,2.9181,2.9177,2.8993,2.8746,2.8532,2.8269,2.8036,2.7865,2.7754,2.7533,2.6785,2.5971,2.5198,2.4459,2.3991,2.3615,2.3224,2.2852,2.2735,2.2289,2.2063,2.2018,2.1869,2.1717,2.1512,2.1436,2.132,2.1138,2.0945,2.079,2.0537,2.0381,2.0186,4.0702,4.0702,4.0702,4.0616,4.0374,3.9257,3.8575,3.8145,3.7136,3.6557,3.6419,3.6405,3.6218,3.5978,3.5924,3.6098,3.6431,3.647,3.651,3.6549,3.6589,3.6536,3.6549,3.6589,3.6575,3.6575,3.6589,3.6668,3.6786,3.6993,3.707,3.7095,3.7134,3.7134,3.7148,3.7134,3.7226,3.7394,3.7419,3.7625,3.7724,3.6901,3.6057,3.5458,3.494,3.4588,3.438,3.438,3.438,3.438,3.438,3.438,3.438,3.438,3.438,3.438,3.438,3.438,3.438,3.4278,3.4162,3.4065,3.3425,3.2979,3.269,3.2148,3.157,3.1082,3.0678,3.0294,2.9641,2.9451,2.9381,2.931,2.931,2.931,2.9248,2.931,2.9301,2.947,2.9389,2.9489,2.9908,2.9915,2.9766,2.9553,2.9185,2.8869,2.871,2.8586,2.8475,2.835,2.8052,2.7298,2.6196,2.5543,2.4871,2.4406,2.4063,2.3811,2.3508,2.2987,2.2576,2.2829,2.2446,2.2156,2.1992,2.1814,2.1594,2.1351,2.1138,2.0945,2.0731,2.0576,2.0459,4.0702,4.0702,4.0702,4.0702,4.0589,3.9774,3.9089,3.8504,3.7618,3.6943,3.6514,3.6445,3.6484,3.6589,3.6431,3.6484,3.6682,3.6668,3.6772,3.6915,3.6954,3.694,3.6978,3.6978,3.6954,3.6954,3.694,3.6954,3.7031,3.7187,3.7303,3.7303,3.7471,3.7534,3.7534,3.7534,3.7586,3.7572,3.7739,3.7853,3.7872,3.7482,3.6903,3.6251,3.5633,3.5009,3.4501,3.438,3.438,3.438,3.438,3.438,3.438,3.438,3.438,3.438,3.438,3.438,3.438,3.438,3.4312,3.4128,3.4002,3.3865,3.3498,3.3185,3.2884,3.2566,3.214,3.1343,3.0073,2.9839,2.9631,2.9476,2.9388,2.9401,2.9388,2.9506,2.9562,2.9954,3.0061,3.0184,3.058,3.0659,3.0468,3.0342,3.0253,3.0113,2.9872,2.9885,2.9757,2.9516,2.8986,2.8212,2.7146,2.6523,2.621,2.5736,2.5268,2.5168,2.4776,2.4349,2.3949,2.3599,2.3284,2.2968,2.2642,2.2317,2.2004,2.1716,2.1361,2.1128,2.0925,2.0896,2.078,4.0702,4.0702,4.0702,4.0702,4.0631,3.9957,3.9564,3.9214,3.8153,3.7568,3.7302,3.6939,3.6836,3.6875,3.6797,3.6797,3.6889,3.6875,3.6915,3.6978,3.6978,3.6978,3.6978,3.6978,3.7056,3.7187,3.7226,3.7264,3.738,3.7457,3.7495,3.7495,3.7534,3.761,3.761,3.761,3.7663,3.7792,3.7853,3.7967,3.8052,3.7962,3.7593,3.6925,3.5944,3.5101,3.4395,3.438,3.438,3.438,3.438,3.438,3.438,3.438,3.438,3.438,3.438,3.438,3.438,3.438,3.438,3.4312,3.4162,3.404,3.3813,3.3605,3.3347,3.2966,3.2668,3.205,3.1478,3.0943,3.0652,3.0579,3.0469,3.0357,3.0409,3.0409,3.0464,3.0647,3.0686,3.0753,3.082,3.0874,3.0798,3.0647,3.0584,3.0495,3.0343,3.019,3.0088,2.996,2.9654,2.9211,2.8679,2.7651,2.6949,2.6536,2.6171,2.58,2.5406,2.4908,2.4469,2.4295,2.4036,2.3621,2.3207,2.2613,2.2338,2.1804,2.1497,2.132,2.1128,2.1089,2.0974,4.0702,4.0702,4.0702,4.0702,4.0659,4.0266,3.9971,3.9704,3.8889,3.8285,3.7892,3.7442,3.7175,3.7007,3.6978,3.6978,3.6978,3.6978,3.6978,3.6978,3.6978,3.7017,3.7095,3.7095,3.7187,3.7394,3.738,3.7457,3.7572,3.7663,3.7701,3.7701,3.7763,3.7801,3.7801,3.7787,3.7877,3.8005,3.7991,3.8066,3.8202,3.8202,3.7912,3.7288,3.6446,3.561,3.4762,3.453,3.438,3.438,3.438,3.438,3.438,3.438,3.438,3.438,3.438,3.438,3.438,3.438,3.438,3.438,3.4278,3.4142,3.3985,3.3779,3.3536,3.3192,3.2917,3.2668,3.2359,3.1873,3.1495,3.1347,3.1161,3.1061,3.1024,3.1011,3.0998,3.0947,3.0985,3.0973,3.1024,3.0986,3.0911,3.0811,3.0811,3.0723,3.0533,3.0381,3.0267,3.019,3.0024,2.9793,2.9475,2.8772,2.8119,2.7676,2.7245,2.6752,2.6232,2.5639,2.5185,2.4989,2.4656,2.422,2.3642,2.3012,2.247,2.1932,2.166,2.155,2.1397,2.1282,2.1167,4.0702,4.0702,4.0702,4.0702,4.0702,4.0645,4.0336,3.9873,3.976,3.9071,3.8241,3.7974,3.7718,3.7228,3.7296,3.713,3.7239,3.7282,3.713,3.6993,3.7017,3.7095,3.7264,3.7303,3.7433,3.7572,3.761,3.761,3.7663,3.7815,3.7891,3.7915,3.8052,3.8127,3.8165,3.8165,3.8165,3.8165,3.8165,3.8202,3.8202,3.8202,3.7955,3.7433,3.723,3.6606,3.5494,3.482,3.4472,3.438,3.438,3.438,3.438,3.438,3.438,3.438,3.438,3.438,3.438,3.438,3.438,3.438,3.438,3.4312,3.4094,3.3937,3.3744,3.3347,3.3108,3.2917,3.2682,3.2372,3.1936,3.1421,3.1347,3.1248,3.1099,3.1024,3.1024,3.1024,3.1024,3.1024,3.1024,3.1024,3.0986,3.0949,3.0949,3.0874,3.0723,3.0647,3.0584,3.0419,3.0216,3.0062,2.9998,2.987,2.9394,2.8915,2.8491,2.8028,2.7502,2.6921,2.6392,2.6091,2.553,2.5053,2.4172,2.3537,2.2866,2.2346,2.2069,2.1762,2.1589,2.1474,2.1397,4.0702,4.0702,4.0702,4.0702,4.0702,4.0702,4.0575,4.0407,4.0153,3.9757,3.9417,3.914,3.8868,3.874,3.8737,3.8683,3.8737,3.8669,3.8139,3.7211,3.7162,3.7307,3.7331,3.7485,3.761,3.7815,3.7953,3.8028,3.8057,3.8095,3.8104,3.8142,3.8179,3.8202,3.8202,3.8202,3.8202,3.8202,3.8202,3.8202,3.8202,3.8202,3.8101,3.7912,3.7535,3.7085,3.6678,3.5662,3.4878,3.4457,3.438,3.438,3.438,3.438,3.438,3.438,3.438,3.438,3.438,3.438,3.438,3.438,3.438,3.4312,3.4128,3.4059,3.3868,3.3521,3.3312,3.3122,3.2917,3.2704,3.2359,3.195,3.1693,3.1434,3.1235,3.1099,3.1024,3.1024,3.1024,3.1024,3.1024,3.1024,3.1024,3.1024,3.1024,3.0949,3.0911,3.0761,3.0698,3.0584,3.0419,3.0292,3.0267,3.0152,2.9831,2.9431,2.9131,2.8816,2.8355,2.7903,2.7418,2.6857,2.6343,2.5679,2.4789,2.4045,2.3379,2.2728,2.2296,2.2032,2.1783,2.1655,2.1578,4.0702,4.0702,4.0702,4.0702,4.0702,4.0702,4.0744,4.076,4.0534,4.0362,4.019,3.9998,3.971,3.9524,3.9482,3.9482,3.9482,3.9482,3.8948,3.8068,3.8061,3.8154,3.8218,3.8413,3.8568,3.8698,3.8851,3.8899,3.8913,3.8899,3.8797,3.8623,3.858,3.8434,3.8246,3.8202,3.8202,3.8202,3.8202,3.8202,3.8202,3.8202,3.8202,3.8144,3.7825,3.7549,3.7273,3.6272,3.545,3.4849,3.4559,3.438,3.438,3.438,3.438,3.438,3.438,3.438,3.438,3.438,3.438,3.438,3.438,3.4346,3.423,3.4162,3.3991,3.3799,3.3556,3.3382,3.3227,3.2952,3.2704,3.2516,3.2096,3.1743,3.1471,3.1248,3.1136,3.1099,3.1061,3.1024,3.1024,3.1024,3.1024,3.1024,3.1024,3.1024,3.0986,3.0874,3.0849,3.0773,3.0647,3.0533,3.0495,3.0368,3.0216,2.9896,2.9586,2.9236,2.887,2.8395,2.7874,2.7185,2.6592,2.6124,2.5304,2.4639,2.3947,2.3308,2.2685,2.2339,2.2154,2.1942,2.1845,4.0702,4.0702,4.0702,4.0702,4.0702,4.0744,4.0802,4.0958,4.1043,4.0885,4.0651,4.0662,4.0306,3.9819,3.9931,3.9917,3.9705,3.986,3.9888,3.9705,3.9662,3.9685,3.9614,3.97,3.9778,3.9876,3.9958,3.9987,3.9871,3.9886,3.9799,3.9291,3.9218,3.8913,3.8478,3.8289,3.8289,3.8217,3.8202,3.8202,3.8202,3.8202,3.8202,3.8202,3.8144,3.7912,3.7418,3.6649,3.5923,3.5334,3.4675,3.438,3.438,3.438,3.438,3.438,3.438,3.438,3.438,3.438,3.438,3.438,3.438,3.438,3.4346,3.423,3.4128,3.404,3.3799,3.364,3.3556,3.3297,3.3072,3.2931,3.2444,3.2,3.1669,3.1471,3.1323,3.1235,3.1123,3.1024,3.1024,3.1024,3.1024,3.1024,3.1024,3.1024,3.0986,3.0986,3.0986,3.0911,3.0798,3.0761,3.0723,3.0571,3.0419,3.0292,2.9985,2.9664,2.9275,2.8803,2.8339,2.7644,2.7021,2.6528,2.5959,2.5336,2.4678,2.3971,2.3413,2.2906,2.2505,2.225,2.2063,4.0702,4.0702,4.0702,4.0702,4.0744,4.0859,4.0958,4.1043,4.1381,4.142,4.1416,4.1569,4.148,4.1406,4.1362,4.1406,4.1293,4.1348,4.1406,4.1406,4.1406,4.0839,4.0199,4.0064,4.0133,4.0162,4.0234,4.0104,4.0104,4.0205,4.006,3.9871,3.9857,3.9567,3.903,3.8913,3.8652,3.826,3.8202,3.8202,3.8202,3.8202,3.8202,3.8202,3.8202,3.8115,3.7854,3.6896,3.5764,3.4762,3.453,3.438,3.438,3.438,3.438,3.438,3.438,3.438,3.438,3.438,3.438,3.438,3.438,3.438,3.438,3.4346,3.4264,3.4128,3.3991,3.3902,3.3813,3.3605,3.3333,3.2988,3.2588,3.2205,3.2036,3.1743,3.1485,3.131,3.1272,3.1174,3.1061,3.1024,3.1024,3.1024,3.1024,3.1024,3.1024,3.1024,3.1024,3.1024,3.0949,3.0949,3.0874,3.0736,3.0622,3.0571,3.0343,3.0062,2.9638,2.9131,2.8697,2.8219,2.7713,2.7214,2.6739,2.6213,2.5454,2.477,2.4059,2.347,2.2869,2.2499,2.23,4.0702,4.0702,4.0702,4.073,4.0845,4.0958,4.1128,4.1296,4.1563,4.1785,4.1883,4.1995,4.2092,4.2092,4.2078,4.2078,4.2092,4.2092,4.2078,4.2078,4.2049,4.1628,4.1076,4.0931,4.0931,4.0931,4.0931,4.096,4.0974,4.0931,4.08,4.0568,4.0525,4.0205,3.9581,3.9291,3.9044,3.8638,3.8376,3.8202,3.8202,3.8202,3.8202,3.8202,3.8188,3.813,3.7752,3.7099,3.6127,3.5082,3.4588,3.438,3.438,3.438,3.438,3.438,3.438,3.438,3.438,3.438,3.438,3.438,3.438,3.438,3.438,3.438,3.4346,3.423,3.4162,3.4059,3.3971,3.3813,3.3605,3.3312,3.2888,3.2602,3.2444,3.2096,3.1853,3.1693,3.1508,3.136,3.1136,3.1136,3.1099,3.1024,3.1024,3.1024,3.1024,3.1024,3.1024,3.1024,3.1024,3.0986,3.0986,3.0887,3.0811,3.0761,3.0647,3.0368,2.996,2.9456,2.9091,2.8724,2.8355,2.7959,2.7428,2.6938,2.6376,2.5644,2.4798,2.4117,2.3542,2.2971,2.2724,4.0702,4.0702,4.0702,4.0802,4.1001,4.1043,4.1311,4.1646,4.1744,4.1883,4.2051,4.2092,4.2092,4.2092,4.2092,4.2092,4.2092,4.2092,4.2092,4.2092,4.2133,4.2029,4.1971,4.1831,4.186,4.1889,4.2049,4.1976,4.186,4.1947,4.1729,4.1323,4.1207,4.0829,4.0278,3.9741,3.9421,3.9218,3.8841,3.8551,3.8463,3.842,3.8376,3.8202,3.8202,3.7999,3.7636,3.7259,3.6722,3.5668,3.4907,3.4559,3.4486,3.438,3.438,3.438,3.438,3.438,3.438,3.438,3.438,3.438,3.438,3.438,3.438,3.438,3.438,3.4346,3.423,3.4162,3.4059,3.3985,3.3813,3.3605,3.3431,3.3171,3.2824,3.248,3.2241,3.2205,3.189,3.1596,3.1434,3.1323,3.1235,3.1136,3.1061,3.1024,3.1024,3.1024,3.1024,3.1024,3.1024,3.1024,3.0986,3.0986,3.0949,3.0949,3.0836,3.0609,3.0241,2.9805,2.9482,2.9118,2.8831,2.8474,2.8028,2.7566,2.7145,2.661,2.584,2.5102,2.4406,2.3827,2.3435,4.0702,4.0702,4.0702,4.0816,4.1001,4.1241,4.1451,4.1744,4.1953,4.2036,4.2092,4.2092,4.2092,4.2092,4.2133,4.2092,4.2133,4.2133,4.2092,4.2092,4.2284,4.2325,4.2284,4.2201,4.2092,4.2133,4.2092,4.2092,4.2133,4.2119,4.2034,4.193,4.1826,4.1555,4.0971,4.0695,4.0394,3.9987,3.9712,3.9378,3.9015,3.8913,3.8681,3.8289,3.8202,3.8159,3.7955,3.7564,3.7172,3.6693,3.5836,3.5053,3.4603,3.4472,3.4424,3.438,3.438,3.438,3.438,3.438,3.438,3.438,3.438,3.438,3.438,3.438,3.438,3.438,3.438,3.4264,3.4162,3.4094,3.3971,3.3848,3.3675,3.3501,3.3347,3.2895,3.2574,3.2359,3.2191,3.1986,3.1767,3.1471,3.1347,3.1235,3.1123,3.1024,3.1024,3.1024,3.1024,3.1024,3.1024,3.1024,3.1024,3.1024,3.1024,3.1024,3.0949,3.0874,3.0508,3.0203,2.9882,2.9638,2.9392,2.9028,2.8633,2.8438,2.8108,2.7451,2.6835,2.6136,2.5417,2.474,2.4116,4.0702,4.0702,4.0702,4.0915,4.1198,4.1354,4.1606,4.1856,4.2051,4.2092,4.2133,4.2175,4.2242,4.2242,4.2325,4.2392,4.2392,4.2392,4.2392,4.2392,4.25,4.2541,4.2541,4.2459,4.2392,4.2392,4.2392,4.2392,4.2407,4.2366,4.2392,4.2392,4.2351,4.2216,4.1821,4.1547,4.1127,4.0712,4.0406,4.0061,3.9668,3.932,3.8884,3.8347,3.8202,3.8202,3.8144,3.7926,3.7607,3.7215,3.6635,3.5807,3.5038,3.4835,3.4733,3.4424,3.438,3.438,3.438,3.438,3.438,3.438,3.438,3.438,3.438,3.438,3.438,3.438,3.438,3.4332,3.4264,3.423,3.4176,3.4005,3.3902,3.3813,3.366,3.3213,3.281,3.2668,3.2525,3.23,3.2046,3.179,3.1582,3.1522,3.1272,3.1161,3.1123,3.1086,3.1024,3.1024,3.1024,3.1024,3.1024,3.1024,3.1024,3.1024,3.0986,3.0949,3.0798,3.0533,3.0305,3.0062,2.9793,2.9611,2.9248,2.9106,2.8885,2.8288,2.7678,2.7055,2.64,2.5689,2.5105,4.0702,4.0702,4.073,4.1001,4.1354,4.1438,4.1704,4.2051,4.2092,4.2133,4.2175,4.2325,4.2392,4.2474,4.2622,4.2688,4.2703,4.2662,4.2622,4.2622,4.2673,4.2729,4.2729,4.2784,4.2769,4.2769,4.2688,4.2662,4.2662,4.2688,4.2622,4.2688,4.2688,4.2563,4.2486,4.2162,4.1802,4.1565,4.1243,4.0798,4.0421,3.9969,3.943,3.8731,3.8381,3.8352,3.8352,3.8264,3.8067,3.7528,3.7484,3.683,3.6046,3.5537,3.5261,3.4646,3.4646,3.4559,3.4409,3.438,3.438,3.438,3.438,3.438,3.438,3.438,3.438,3.438,3.438,3.438,3.438,3.438,3.4312,3.4162,3.4128,3.404,3.3868,3.3437,3.3213,3.3072,3.2846,3.261,3.2408,3.2205,3.1963,3.1757,3.1508,3.131,3.1259,3.1185,3.1123,3.1024,3.1024,3.1024,3.1024,3.1024,3.1024,3.1024,3.1024,3.0986,3.0986,3.0836,3.0571,3.0419,3.0177,2.996,2.9767,2.9599,2.9316,2.8954,2.8563,2.7968,2.733,2.6647,2.6113,4.0702,4.0702,4.0887,4.1142,4.1381,4.1577,4.1814,4.2051,4.2092,4.2216,4.231,4.2407,4.25,4.2622,4.2688,4.2688,4.2729,4.2769,4.2729,4.2769,4.2875,4.297,4.2955,4.3065,4.317,4.309,4.293,4.2769,4.2729,4.2688,4.2769,4.2729,4.2743,4.2743,4.2714,4.2555,4.2478,4.2353,4.2176,4.1871,4.1439,4.1091,4.0446,3.9501,3.8972,3.8723,3.8671,3.8671,3.8568,3.8347,3.8295,3.7798,3.7085,3.6496,3.5944,3.5407,3.5281,3.5087,3.4787,3.4486,3.4443,3.438,3.4414,3.438,3.438,3.438,3.438,3.438,3.438,3.438,3.438,3.438,3.438,3.4312,3.4196,3.4128,3.4025,3.3868,3.3626,3.3472,3.3213,3.2917,3.2682,3.2516,3.2314,3.2073,3.1817,3.1606,3.1495,3.1347,3.1198,3.1099,3.1024,3.1024,3.1024,3.1024,3.1024,3.1024,3.1024,3.1024,3.0986,3.0986,3.0836,3.0647,3.0482,3.0292,3.0139,2.9998,2.9831,2.9561,2.9231,2.8889,2.8264,2.7621,2.7202,4.0702,4.0702,4.093,4.1142,4.1438,4.1619,4.1856,4.2051,4.2092,4.2201,4.2407,4.2514,4.2648,4.285,4.297,4.301,4.3025,4.301,4.301,4.305,4.309,4.3155,4.3155,4.325,4.3305,4.325,4.309,4.297,4.301,4.301,4.301,4.301,4.3025,4.301,4.301,4.2996,4.293,4.2875,4.282,4.2662,4.2187,4.1951,4.1052,4.0079,3.9542,3.9165,3.8811,3.8782,3.8745,3.8671,3.8649,3.8436,3.8069,3.7682,3.709,3.626,3.6041,3.5959,3.5599,3.538,3.5107,3.503,3.4729,3.4428,3.438,3.438,3.4472,3.4443,3.438,3.438,3.438,3.4457,3.438,3.438,3.4341,3.4322,3.4225,3.4137,3.4014,3.389,3.3556,3.3262,3.2952,3.2753,3.2624,3.2386,3.2132,3.1913,3.1753,3.1569,3.1421,3.1235,3.1136,3.1061,3.1024,3.1024,3.1024,3.1024,3.1024,3.1024,3.0986,3.0986,3.0986,3.0874,3.0723,3.0558,3.0444,3.0343,3.0228,3.0126,2.9782,2.9476,2.9083,2.8668,2.8156,4.073,4.0773,4.0972,4.1241,4.148,4.166,4.1912,4.2051,4.2092,4.2242,4.2459,4.2622,4.2835,4.3036,4.321,4.3305,4.3305,4.3305,4.325,4.325,4.3265,4.329,4.329,4.3305,4.3305,4.3305,4.3265,4.3305,4.3265,4.325,4.3305,4.3265,4.3305,4.3305,4.3265,4.321,4.3155,4.3115,4.3076,4.2955,4.2702,4.2144,4.1405,4.0356,4.006,3.9668,3.9306,3.9054,3.8958,3.887,3.8855,3.8819,3.8782,3.8767,3.8259,3.7328,3.6978,3.6937,3.6663,3.6369,3.5942,3.5893,3.5302,3.503,3.5001,3.5166,3.5015,3.4894,3.4986,3.5025,3.5097,3.4918,3.4898,3.4893,3.4873,3.4786,3.4795,3.4712,3.4493,3.4264,3.3948,3.3648,3.3368,3.3037,3.2909,3.2717,3.2431,3.2264,3.2082,3.1877,3.1693,3.1421,3.1235,3.1123,3.1099,3.1024,3.1024,3.1024,3.1024,3.1024,3.1024,3.0986,3.0986,3.0949,3.0874,3.0761,3.0685,3.0609,3.0495,3.0343,3.0254,2.9999,2.9604,2.9338,2.8997,4.0816,4.0958,4.1241,4.1465,4.166,4.1897,4.2051,4.2092,4.2092,4.2325,4.2622,4.2688,4.289,4.317,4.3305,4.3305,4.3305,4.3305,4.3305,4.3305,4.3305,4.3305,4.3305,4.3305,4.3305,4.3305,4.3305,4.3305,4.3305,4.3305,4.3305,4.3305,4.3305,4.3305,4.3305,4.3305,4.329,4.3235,4.3235,4.325,4.3121,4.2598,4.2249,4.1756,4.101,4.0256,3.995,3.9563,3.9243,3.9053,3.9068,3.898,3.8819,3.8782,3.8877,3.8567,3.8147,3.75,3.7172,3.6886,3.6797,3.6748,3.6472,3.658,3.6334,3.6305,3.632,3.6595,3.6487,3.6314,3.6131,3.6242,3.6195,3.6023,3.5842,3.5865,3.588,3.5366,3.5131,3.4946,3.4714,3.4219,3.3853,3.348,3.3171,3.3002,3.281,3.266,3.2431,3.2191,3.1963,3.1693,3.1471,3.136,3.1248,3.1174,3.1136,3.1099,3.1061,3.1061,3.1061,3.1061,3.1024,3.0986,3.0911,3.0911,3.0836,3.0761,3.0685,3.0571,3.0495,3.0305,3.0062,2.9846,2.9617,4.0916,4.1057,4.1409,4.1633,4.1744,4.198,4.2092,4.2092,4.2092,4.2242,4.2514,4.2662,4.293,4.3265,4.3305,4.3305,4.3305,4.3305,4.3305,4.3305,4.3305,4.3305,4.3305,4.3305,4.3305,4.3305,4.3305,4.3305,4.3305,4.3305,4.3305,4.3305,4.3305,4.3305,4.3305,4.3305,4.3305,4.3305,4.3305,4.3305,4.323,4.306,4.2746,4.2396,4.1482,4.0861,4.0352,3.9783,3.9403,3.9265,3.9265,3.9228,3.9141,3.9141,3.9177,3.9184,3.8939,3.8606,3.8374,3.7881,3.7682,3.7484,3.7236,3.6807,3.6901,3.696,3.696,3.6886,3.6886,3.6895,3.6855,3.6775,3.6635,3.6543,3.6697,3.6532,3.6453,3.617,3.583,3.5693,3.5493,3.5037,3.4574,3.4177,3.3917,3.3706,3.3522,3.3317,3.2935,3.2503,3.2264,3.2023,3.1817,3.1633,3.1522,3.1447,3.141,3.1373,3.1235,3.1198,3.1161,3.1136,3.1099,3.1024,3.0986,3.0986,3.0986,3.0949,3.0836,3.0761,3.0685,3.0533,3.0356,3.0101,2.9858,4.1184,4.1212,4.1563,4.1744,4.18,4.2009,4.2092,4.2092,4.2092,4.2201,4.2433,4.2648,4.301,4.325,4.3305,4.3305,4.3305,4.3305,4.3305,4.3305,4.3305,4.3305,4.3305,4.3305,4.3305,4.3305,4.3305,4.3305,4.3305,4.3305,4.3305,4.3305,4.3305,4.3305,4.3305,4.3305,4.3305,4.3305,4.3305,4.3305,4.329,4.329,4.3045,4.2581,4.2021,4.1362,4.0651,4.0038,3.9723,3.9388,3.9388,3.9352,3.9352,3.9352,3.9352,3.9373,3.9247,3.9247,3.9083,3.8773,3.8528,3.8299,3.805,3.7757,3.7697,3.7529,3.7543,3.7727,3.7712,3.7632,3.7458,3.7532,3.7514,3.7416,3.7315,3.7054,3.688,3.6764,3.6605,3.6396,3.6229,3.6006,3.5531,3.5014,3.4659,3.4439,3.4213,3.403,3.3691,3.3229,3.2985,3.28,3.2259,3.204,3.188,3.177,3.172,3.1633,3.1508,3.1384,3.136,3.1286,3.1161,3.1099,3.1061,3.0986,3.0986,3.0986,3.0986,3.0911,3.0836,3.0773,3.0622,3.0343,3.0101,4.166,4.1646,4.1688,4.1841,4.2051,4.2092,4.2092,4.2092,4.2092,4.2201,4.2433,4.2769,4.3036,4.325,4.3305,4.3305,4.3305,4.3305,4.3305,4.3305,4.3305,4.3305,4.3305,4.3305,4.3305,4.3305,4.3305,4.3305,4.3305,4.3305,4.3305,4.3305,4.3305,4.3305,4.3305,4.3305,4.3305,4.3305,4.3305,4.3305,4.3305,4.3305,4.323,4.312,4.2611,4.2021,4.1324,4.0591,3.9948,3.9433,3.9388,3.9388,3.9388,3.9388,3.9388,3.9388,3.9388,3.9388,3.9313,3.9298,3.9298,3.9269,3.9113,3.8847,3.8788,3.9083,3.9158,3.8943,3.8743,3.8811,3.8829,3.889,3.8521,3.8339,3.8127,3.8047,3.7842,3.7616,3.7419,3.7186,3.6983,3.6852,3.6765,3.6302,3.5624,3.5339,3.5189,3.4968,3.486,3.4466,3.4116,3.3759,3.2913,3.2531,3.2286,3.2186,3.2059,3.1913,3.1767,3.1693,3.1633,3.1471,3.1286,3.1235,3.1198,3.1099,3.1024,3.1024,3.1024,3.1024,3.0949,3.0887,3.0698,3.0457,3.0228,4.18,4.1953,4.1939,4.1995,4.2092,4.2092,4.2092,4.2092,4.2092,4.2216,4.2433,4.2703,4.293,4.3115,4.3265,4.3305,4.3305,4.3305,4.3305,4.3305,4.3305,4.3305,4.3305,4.3305,4.3305,4.3305,4.3305,4.3305,4.3305,4.3305,4.3305,4.3305,4.3305,4.3305,4.3305,4.3305,4.3305,4.3305,4.3305,4.3305,4.3305,4.3305,4.3305,4.3245,4.2701,4.2081,4.1422,4.0741,4.0083,3.9619,3.9433,3.9388,3.9388,3.9388,3.9388,3.9388,3.9388,3.9388,3.9388,3.9388,3.9388,3.9388,3.9373,3.9388,3.9388,3.9388,3.9388,3.9358,3.9388,3.9337,3.9286,3.9235,3.9124,3.9038,3.8943,3.887,3.8694,3.8341,3.8143,3.785,3.785,3.785,3.7791,3.7704,3.6925,3.6273,3.6086,3.5949,3.5877,3.5646,3.5265,3.4842,3.4052,3.352,3.3297,3.2882,3.2413,3.2268,3.215,3.2023,3.195,3.1633,3.1485,3.1397,3.1347,3.1248,3.1174,3.1061,3.1024,3.1024,3.0986,3.0911,3.0736,3.0584,3.0381,4.1939,4.2092,4.2092,4.2092,4.2092,4.2092,4.2092,4.2092,4.2092,4.2201,4.2392,4.2607,4.2795,4.2981,4.321,4.3305,4.3305,4.3305,4.3305,4.3305,4.3305,4.3305,4.3305,4.3305,4.3305,4.3305,4.3305,4.3305,4.3305,4.3305,4.3305,4.3305,4.3305,4.3305,4.3305,4.3305,4.3305,4.3305,4.3305,4.3305,4.3305,4.3305,4.3305,4.3275,4.2895,4.2455,4.1811,4.1183,4.0472,3.9918,3.9553,3.9403,3.9388,3.9388,3.9388,3.9388,3.9388,3.9388,3.9388,3.9388,3.9388,3.9388,3.9388,3.9388,3.9388,3.9388,3.9388,3.9388,3.9388,3.9388,3.9388,3.9373,3.9337,3.9177,3.9177,3.9104,3.8995,3.8723,3.8642,3.8502,3.8509,3.8414,3.837,3.8267,3.7996,3.7448,3.7441,3.7274,3.7165,3.6823,3.6301,3.5811,3.525,3.4806,3.4455,3.3882,3.3403,3.3027,3.2841,3.2485,3.23,3.1986,3.178,3.1767,3.1656,3.1471,3.1323,3.1248,3.1136,3.1024,3.0986,3.0949,3.0874,3.0698,3.0584,4.2092,4.2092,4.2092,4.2092,4.2092,4.2092,4.2092,4.2092,4.2092,4.2201,4.2392,4.2566,4.2769,4.301,4.317,4.3265,4.3305,4.3305,4.3305,4.3305,4.3305,4.3305,4.3305,4.3305,4.3305,4.3305,4.3305,4.3305,4.3305,4.3305,4.3305,4.3305,4.3305,4.3305,4.3305,4.3305,4.3305,4.3305,4.3305,4.3305,4.3305,4.3305,4.3305,4.326,4.3185,4.2806,4.2201,4.1722,4.0995,4.0277,3.9798,3.9574,3.9439,3.9388,3.9388,3.9388,3.9388,3.9388,3.9388,3.9388,3.9388,3.9388,3.9388,3.9388,3.9388,3.9388,3.9388,3.9388,3.9388,3.9388,3.9388,3.9388,3.9388,3.9352,3.9337,3.9301,3.9141,3.9104,3.8995,3.8848,3.8797,3.8782,3.8782,3.8767,3.8789,3.8649,3.8723,3.8598,3.8267,3.7916,3.7324,3.6917,3.6432,3.5955,3.5502,3.4896,3.4376,3.3934,3.3573,3.3243,3.2842,3.2535,3.2355,3.2218,3.195,3.173,3.1582,3.1447,3.1323,3.1174,3.1024,3.0986,3.0911,3.0836,3.0736,4.2092,4.2092,4.2092,4.2092,4.2092,4.2092,4.2092,4.2092,4.2092,4.2133,4.2242,4.2433,4.2622,4.2824,4.301,4.317,4.3305,4.3305,4.3305,4.3305,4.3305,4.3305,4.3305,4.3305,4.3305,4.3305,4.3305,4.3305,4.3305,4.3305,4.3305,4.3305,4.3305,4.3305,4.3305,4.3305,4.3305,4.3305,4.3305,4.3305,4.3305,4.3305,4.3305,4.3305,4.3305,4.303,4.2515,4.2141,4.1542,4.0666,4.0157,3.9858,3.9574,3.9433,3.9388,3.9388,3.9388,3.9388,3.9388,3.9388,3.9388,3.9388,3.9388,3.9388,3.9388,3.9388,3.9388,3.9388,3.9388,3.9388,3.9388,3.9388,3.9388,3.9388,3.9388,3.9388,3.9316,3.9301,3.9228,3.9068,3.8995,3.8995,3.8995,3.9031,3.9068,3.9017,3.898,3.8907,3.862,3.8598,3.826,3.8011,3.7638,3.7128,3.6584,3.5993,3.5576,3.5209,3.4674,3.4135,3.3696,3.3195,3.2872,3.2723,3.2363,3.2,3.1853,3.1706,3.1559,3.1397,3.1211,3.1099,3.1024,3.0949,3.0874,4.2092,4.2092,4.2092,4.2092,4.2092,4.2092,4.2092,4.2092,4.2092,4.2092,4.2133,4.2325,4.25,4.2729,4.293,4.3115,4.329,4.3305,4.3305,4.3305,4.3305,4.3305,4.3305,4.3305,4.3305,4.3305,4.3305,4.3305,4.3305,4.3305,4.3305,4.3305,4.3305,4.3305,4.3305,4.3305,4.3305,4.3305,4.3305,4.3305,4.3305,4.3305,4.3305,4.3305,4.326,4.3135,4.2761,4.2425,4.2036,4.119,4.0636,4.0262,3.9843,3.9559,3.9433,3.9388,3.9388,3.9388,3.9388,3.9388,3.9388,3.9388,3.9388,3.9388,3.9388,3.9388,3.9388,3.9388,3.9388,3.9388,3.9388,3.9388,3.9448,3.9448,3.9493,3.9493,3.9493,3.9493,3.9448,3.9288,3.9192,3.9192,3.9192,3.9265,3.9316,3.9265,3.9177,3.9068,3.8958,3.8943,3.8907,3.8708,3.848,3.8048,3.758,3.7193,3.678,3.6498,3.5856,3.5146,3.4519,3.4002,3.3642,3.3234,3.2816,3.2458,3.2182,3.2,3.1853,3.1633,3.141,3.1248,3.1136,3.1061,3.0986,4.202,4.2034,4.2063,4.2034,4.2049,4.1976,4.202,4.2078,4.2092,4.2092,4.2092,4.2284,4.2474,4.2703,4.2915,4.3076,4.325,4.3305,4.3305,4.3305,4.3305,4.3305,4.3305,4.3305,4.3305,4.3305,4.3305,4.3305,4.3305,4.3305,4.3305,4.3305,4.3305,4.3305,4.3305,4.3305,4.3305,4.3305,4.3305,4.3305,4.3305,4.3305,4.3305,4.3305,4.3275,4.3245,4.3045,4.2761,4.25,4.1901,4.1257,4.0696,4.0217,3.9798,3.9538,3.9388,3.9388,3.9388,3.9388,3.9388,3.9388,3.9388,3.9388,3.9388,3.9388,3.9388,3.9388,3.9388,3.9388,3.9388,3.9388,3.9478,3.9589,3.9649,3.9672,3.9672,3.9709,3.9679,3.9568,3.9471,3.9382,3.9367,3.9352,3.9388,3.9448,3.9352,3.9301,3.9301,3.9192,3.9141,3.9104,3.909,3.8906,3.8826,3.8458,3.8032,3.7798,3.747,3.6888,3.6171,3.551,3.4902,3.4433,3.3952,3.3347,3.2909,3.2602,3.2314,3.2109,3.1913,3.1767,3.1508,3.1397,3.1248,3.1136,4.067,4.0728,4.1178,4.1381,4.1381,4.1381,4.1628,4.2049,4.2092,4.2092,4.2107,4.2175,4.2333,4.2688,4.2769,4.2996,4.317,4.3305,4.3305,4.3305,4.3305,4.3305,4.3305,4.3305,4.3305,4.3305,4.3305,4.3305,4.3305,4.3305,4.3305,4.3305,4.3305,4.3305,4.3305,4.3305,4.3305,4.3305,4.3305,4.3305,4.3305,4.3305,4.3305,4.3305,4.3305,4.3305,4.3185,4.311,4.2836,4.2306,4.2051,4.1557,4.0382,4.0187,4.0023,3.9433,3.9388,3.9388,3.9388,3.9403,3.9463,3.9523,3.9508,3.9388,3.9388,3.9448,3.9448,3.9388,3.9493,3.9604,3.9753,3.9873,4.0023,4.0157,4.0277,4.0442,4.0412,4.0247,4.0172,4.0068,3.9963,3.9694,3.9612,3.9523,3.9604,3.9448,3.9388,3.9388,3.9388,3.9316,3.9265,3.925,3.9213,3.9104,3.9017,3.8699,3.8604,3.8406,3.7768,3.7256,3.6827,3.6168,3.5363,3.4593,3.3902,3.3368,3.2895,3.2696,3.2566,3.2431,3.2286,3.1973,3.1656,3.1508,3.136,4.0104,4.0147,4.0525,4.0699,4.0713,4.0699,4.096,4.1279,4.1308,4.1308,4.1323,4.157,4.193,4.2309,4.2566,4.293,4.3305,4.3305,4.3305,4.3305,4.3305,4.3305,4.3305,4.3305,4.3305,4.3305,4.3305,4.3305,4.3305,4.3305,4.3305,4.3305,4.3305,4.3305,4.3305,4.3305,4.3305,4.3305,4.3305,4.3305,4.3305,4.3305,4.3305,4.3305,4.3305,4.3305,4.3305,4.3305,4.309,4.2701,4.2611,4.2096,4.104,4.0771,4.0098,3.9538,3.9388,3.9619,3.9783,3.9873,3.9963,4.0098,4.0142,4.0247,3.9978,3.9873,3.9582,3.9403,3.9679,3.9888,4.0113,4.0337,4.0561,4.0786,4.1055,4.1362,4.1197,4.0965,4.0846,4.0741,4.0516,4.0187,4.0008,3.9873,3.9679,3.9478,3.9388,3.9388,3.9388,3.9388,3.9352,3.9337,3.9337,3.9301,3.925,3.9177,3.9045,3.8913,3.8648,3.8227,3.794,3.7311,3.6368,3.5389,3.4413,3.388,3.3396,3.3192,3.3051,3.2931,3.281,3.2538,3.2228,3.1877,3.1693,3.9929,3.9915,4.0002,4.0089,4.0104,4.0075,4.0046,4.0002,4.0002,4.0031,4.0263,4.0757,4.1317,4.1842,4.2275,4.2812,4.3165,4.3305,4.3305,4.3305,4.3305,4.3305,4.3305,4.3305,4.3305,4.3305,4.3305,4.3305,4.3305,4.3305,4.3305,4.3305,4.3305,4.3305,4.3305,4.3305,4.3305,4.3305,4.3305,4.3305,4.3305,4.3305,4.3305,4.3305,4.3305,4.3305,4.3305,4.3305,4.3305,4.312,4.288,4.25,4.1931,4.119,4.0337,3.9993,3.9903,4.0098,4.0367,4.0472,4.0756,4.104,4.1407,4.1183,4.0741,4.0382,4.0113,4.0083,4.0337,4.0457,4.0651,4.107,4.1422,4.1564,4.1788,4.1983,4.1983,4.1698,4.1369,4.125,4.101,4.0726,4.0591,4.0472,4.0232,3.9813,3.9568,3.9582,3.9403,3.9403,3.9388,3.9388,3.9388,3.9373,3.9373,3.9301,3.9352,3.9256,3.9103,3.8918,3.8525,3.7952,3.7311,3.614,3.4931,3.4401,3.3974,3.3758,3.3542,3.3423,3.3269,3.3143,3.2824,3.2444,3.2119,3.8652,3.8696,3.9204,3.9668,4.0002,3.961,3.9421,3.9363,3.8855,3.9218,4.0002,4.0303,4.0821,4.1533,4.1892,4.2401,4.3091,4.3275,4.329,4.3305,4.3305,4.3305,4.3305,4.3305,4.3305,4.3305,4.3305,4.3305,4.3305,4.3305,4.3305,4.3305,4.3305,4.3305,4.3305,4.3305,4.3305,4.3305,4.3305,4.3305,4.3305,4.3305,4.3305,4.3305,4.3305,4.3305,4.3305,4.3305,4.3305,4.3215,4.3185,4.2865,4.2396,4.1579,4.1145,4.095,4.0771,4.0891,4.1055,4.116,4.1377,4.1369,4.1489,4.1452,4.1287,4.1025,4.092,4.095,4.0995,4.1085,4.128,4.1796,4.2201,4.2327,4.2476,4.2611,4.2746,4.2372,4.1938,4.1767,4.1557,4.1407,4.1272,4.1048,4.0756,4.0516,4.0277,4.0083,3.9634,3.9448,3.9388,3.9388,3.9388,3.9388,3.9388,3.9388,3.9388,3.9388,3.9271,3.9152,3.9068,3.8403,3.7612,3.6492,3.5444,3.501,3.4544,3.4171,3.4005,3.3908,3.3785,3.3646,3.3507,3.3192,3.2789,3.8202,3.8246,3.8594,3.8942,3.916,3.8899,3.8768,3.8696,3.8347,3.8594,3.9262,3.9605,4.0164,4.0989,4.142,4.2031,4.2877,4.32,4.326,4.3305,4.3305,4.3305,4.3305,4.3305,4.3305,4.3305,4.3305,4.3305,4.3305,4.3305,4.3305,4.3305,4.3305,4.3305,4.3305,4.3305,4.3305,4.3305,4.3305,4.3305,4.3305,4.3305,4.3305,4.3305,4.3305,4.3305,4.3305,4.3305,4.3305,4.3305,4.326,4.294,4.253,4.2051,4.1707,4.1467,4.1377,4.1542,4.1752,4.1871,4.1976,4.2028,4.2207,4.2387,4.2417,4.2192,4.1669,4.1669,4.1752,4.1841,4.1983,4.241,4.2686,4.291,4.297,4.3006,4.305,4.291,4.2686,4.2596,4.2402,4.2237,4.2058,4.1841,4.1527,4.095,4.0756,4.0442,3.9993,3.9589,3.9478,3.9388,3.9388,3.9388,3.9388,3.9388,3.9388,3.9388,3.9388,3.9328,3.9158,3.865,3.7918,3.7055,3.631,3.5678,3.5258,3.4826,3.4544,3.4452,3.4346,3.4191,3.4054,3.3868,3.3507,3.8202,3.8202,3.8217,3.8217,3.8202,3.8217,3.8231,3.8217,3.8202,3.8202,3.8376,3.887,3.9288,4.0074,4.0978,4.1748,4.2434,4.3065,4.3245,4.3305,4.3305,4.3305,4.3305,4.3305,4.3305,4.3305,4.3305,4.3305,4.3305,4.3305,4.3305,4.3305,4.3305,4.3305,4.3305,4.3305,4.3305,4.3305,4.3305,4.3305,4.3305,4.3305,4.3305,4.3305,4.3305,4.3305,4.3305,4.3305,4.3305,4.3305,4.329,4.3075,4.2821,4.2536,4.2282,4.2028,4.1953,4.2147,4.2357,4.2491,4.2776,4.3035,4.3245,4.3275,4.323,4.2961,4.2491,4.2372,4.2417,4.2491,4.2671,4.2821,4.312,4.3245,4.3275,4.3305,4.329,4.3275,4.323,4.3185,4.3065,4.2925,4.2746,4.2545,4.2156,4.1549,4.113,4.0741,4.0367,3.9978,3.9738,3.9523,3.9388,3.9388,3.9388,3.9388,3.9388,3.9388,3.9388,3.9388,3.9298,3.8919,3.8525,3.8072,3.7322,3.663,3.5984,3.5495,3.5274,3.5005,3.4702,3.4515,3.4481,3.4298,3.4162,3.8202,3.8202,3.8202,3.8202,3.8202,3.8202,3.8202,3.8202,3.8202,3.8202,3.8246,3.8318,3.8774,3.9586,4.0527,4.132,4.2079,4.2807,4.3215,4.3305,4.3305,4.3305,4.3305,4.3305,4.3305,4.3305,4.3305,4.3305,4.3305,4.3305,4.3305,4.3305,4.3305,4.3305,4.3305,4.3305,4.3305,4.3305,4.3305,4.3305,4.3305,4.3305,4.3305,4.3305,4.3305,4.3305,4.3305,4.3305,4.3305,4.3305,4.329,4.3185,4.3095,4.303,4.288,4.2746,4.2656,4.2776,4.2955,4.3,4.32,4.3215,4.3305,4.3305,4.3275,4.326,4.2946,4.2946,4.3015,4.3015,4.3135,4.3095,4.3275,4.3275,4.3305,4.3305,4.329,4.329,4.3275,4.326,4.3215,4.314,4.311,4.294,4.2776,4.2297,4.2036,4.1602,4.0786,4.0382,3.9993,3.9753,3.9493,3.9388,3.9388,3.9388,3.9388,3.9388,3.9388,3.9388,3.9388,3.9358,3.8994,3.8555,3.8157,3.7555,3.692,3.6283,3.5759,3.5455,3.5071,3.4835,3.4802,3.4721,3.4568]}]]